[[{"header":{"parameterUnit":"m.s-1","parameterCategory":1,"la1":30.6,"la2":29.2853,"lo1":-89.7004,"lo2":-87.6739,"dy":0.0162,"dx":0.0183,"nx":112,"ny":82,"refTime":"2026-05-15T00:00:00:Z","depth":0,"parameterNumber":2,"parameterNumberName":"U-component_of_WINDS"},"data":[0.0,0.0,0.0,0.0,0.0,0.0,0.0,0.0,0.0,0.0,0.0,0.0,0.0,0.0,0.0,0.0,0.0,0.0,0.0,0.0,0.0,0.0,0.0,0.0,0.0,0.0,0.0,0.0,0.0,0.0,0.0,0.0,0.0,0.0,0.0,0.0,0.0,0.0,0.0,0.0,0.0,0.0,0.0,0.0,0.0,0.0,0.0,0.0,0.0,0.0,0.0,0.0,0.0,0.0,0.0,0.0,0.0,0.0,0.0,0.0,0.0,0.0,0.0,0.0,0.0,0.0,0.0,0.0,0.0,0.0,0.0,0.0,0.0,0.0,0.0,0.0,0.0,0.0,0.0,0.0,0.0,0.0,0.0,0.0,0.0,0.0,0.0,0.0,0.0,0.0,0.0,-4.0527,-4.4121,-4.6308,-4.6308,-4.4453,-4.0819,-3.4964,0.0,0.0,0.0,0.0,0.0,0.0,0.0,0.0,0.0,0.0,0.0,0.0,0.0,0.0,0.0,0.0,0.0,0.0,0.0,0.0,0.0,0.0,0.0,0.0,0.0,0.0,0.0,0.0,0.0,0.0,0.0,0.0,0.0,0.0,0.0,0.0,0.0,0.0,0.0,0.0,0.0,0.0,0.0,0.0,0.0,0.0,0.0,0.0,0.0,0.0,0.0,0.0,0.0,0.0,0.0,0.0,0.0,0.0,0.0,0.0,0.0,0.0,0.0,0.0,0.0,0.0,0.0,0.0,0.0,0.0,0.0,0.0,0.0,0.0,0.0,0.0,0.0,0.0,0.0,0.0,0.0,0.0,0.0,0.0,0.0,0.0,0.0,0.0,0.0,0.0,0.0,0.0,0.0,0.0,0.0,0.0,0.0,0.0,0.0,0.0,0.0,0.0,0.0,0.0,-3.7578,-4.457,-4.5918,-4.6308,-4.6308,-4.3398,-3.9589,-3.4906,0.0,0.0,0.0,0.0,0.0,0.0,0.0,0.0,0.0,0.0,0.0,0.0,0.0,0.0,0.0,0.0,0.0,0.0,0.0,0.0,0.0,0.0,0.0,0.0,0.0,0.0,0.0,0.0,0.0,0.0,0.0,0.0,0.0,0.0,0.0,0.0,0.0,0.0,0.0,0.0,0.0,0.0,0.0,0.0,0.0,0.0,0.0,0.0,0.0,0.0,0.0,0.0,0.0,0.0,0.0,0.0,0.0,0.0,0.0,0.0,0.0,0.0,0.0,0.0,0.0,0.0,0.0,0.0,0.0,0.0,0.0,0.0,0.0,0.0,0.0,0.0,0.0,0.0,0.0,0.0,0.0,0.0,0.0,0.0,0.0,0.0,0.0,0.0,0.0,0.0,0.0,0.0,0.0,0.0,0.0,0.0,0.0,0.0,0.0,0.0,0.0,0.0,0.0,-3.5059,-3.8887,-4.4316,-4.5312,-4.5391,-4.4922,-4.2187,-3.8613,-3.4235,-3.113,0.0,0.0,0.0,0.0,0.0,0.0,0.0,0.0,0.0,0.0,0.0,0.0,0.0,0.0,0.0,0.0,0.0,0.0,0.0,0.0,0.0,0.0,0.0,0.0,0.0,0.0,0.0,0.0,0.0,0.0,0.0,0.0,0.0,0.0,0.0,0.0,0.0,0.0,0.0,0.0,0.0,0.0,0.0,0.0,0.0,0.0,0.0,0.0,0.0,0.0,0.0,0.0,0.0,0.0,0.0,0.0,0.0,0.0,0.0,0.0,0.0,0.0,0.0,0.0,0.0,0.0,0.0,0.0,0.0,0.0,0.0,0.0,0.0,0.0,0.0,0.0,0.0,0.0,0.0,0.0,0.0,0.0,0.0,0.0,0.0,0.0,0.0,0.0,0.0,0.0,0.0,0.0,0.0,0.0,0.0,0.0,0.0,0.0,0.0,0.0,0.0,0.0,-3.7988,-4.0137,-4.3359,-4.4297,-4.4258,-4.3203,-4.0762,-3.7519,-3.3379,-2.9707,0.0,0.0,0.0,0.0,0.0,0.0,0.0,0.0,0.0,0.0,0.0,0.0,0.0,0.0,0.0,0.0,0.0,0.0,0.0,0.0,0.0,0.0,0.0,0.0,0.0,0.0,0.0,0.0,0.0,0.0,0.0,0.0,0.0,0.0,0.0,0.0,0.0,0.0,0.0,0.0,0.0,0.0,0.0,0.0,0.0,0.0,0.0,0.0,0.0,0.0,0.0,0.0,0.0,0.0,0.0,0.0,0.0,0.0,0.0,0.0,0.0,0.0,0.0,0.0,0.0,0.0,0.0,0.0,0.0,0.0,0.0,0.0,0.0,0.0,0.0,0.0,0.0,0.0,0.0,0.0,0.0,0.0,0.0,0.0,0.0,0.0,0.0,0.0,0.0,0.0,0.0,0.0,0.0,0.0,0.0,0.0,0.0,0.0,0.0,0.0,0.0,0.0,-3.7773,-4.0801,-4.3418,-4.375,-4.3144,-4.1504,-3.8984,-3.5996,-3.25,-2.8262,0.0,0.0,0.0,0.0,0.0,0.0,0.0,0.0,0.0,0.0,0.0,0.0,0.0,0.0,0.0,0.0,0.0,0.0,0.0,0.0,0.0,0.0,0.0,0.0,0.0,0.0,0.0,0.0,0.0,0.0,0.0,0.0,0.0,0.0,0.0,0.0,0.0,0.0,0.0,0.0,0.0,0.0,0.0,0.0,0.0,0.0,0.0,0.0,0.0,0.0,0.0,0.0,0.0,0.0,0.0,0.0,0.0,0.0,0.0,0.0,0.0,0.0,0.0,0.0,0.0,0.0,0.0,0.0,0.0,0.0,0.0,0.0,0.0,0.0,0.0,0.0,0.0,0.0,0.0,0.0,0.0,0.0,0.0,0.0,0.0,0.0,0.0,0.0,0.0,0.0,0.0,0.0,0.0,0.0,0.0,0.0,0.0,0.0,0.0,0.0,0.0,0.0,-3.5801,-3.9277,0.0,-4.2148,-4.1894,-4.125,-3.8278,-3.4995,-3.1601,0.0,0.0,0.0,0.0,0.0,0.0,0.0,0.0,0.0,0.0,0.0,0.0,0.0,0.0,0.0,0.0,0.0,0.0,0.0,0.0,0.0,0.0,0.0,0.0,0.0,0.0,0.0,0.0,0.0,0.0,0.0,0.0,0.0,0.0,0.0,0.0,0.0,0.0,0.0,0.0,0.0,0.0,0.0,0.0,0.0,0.0,0.0,0.0,0.0,0.0,0.0,0.0,0.0,0.0,0.0,0.0,0.0,0.0,0.0,0.0,0.0,0.0,0.0,0.0,0.0,0.0,0.0,0.0,0.0,0.0,0.0,0.0,0.0,0.0,0.0,0.0,0.0,0.0,0.0,0.0,0.0,0.0,0.0,0.0,0.0,0.0,0.0,0.0,0.0,0.0,0.0,0.0,0.0,0.0,0.0,0.0,0.0,0.0,0.0,0.0,0.0,0.0,-3.0488,-3.4648,-3.8086,0.0,-4.0331,-4.0211,-3.9957,-3.6931,-3.3719,-3.062,0.0,0.0,0.0,0.0,0.0,0.0,0.0,0.0,0.0,0.0,0.0,0.0,0.0,0.0,0.0,0.0,0.0,0.0,0.0,0.0,0.0,0.0,0.0,0.0,0.0,0.0,0.0,0.0,0.0,0.0,0.0,0.0,0.0,0.0,0.0,0.0,0.0,0.0,0.0,0.0,0.0,0.0,0.0,0.0,0.0,0.0,0.0,0.0,0.0,0.0,0.0,0.0,0.0,0.0,0.0,0.0,0.0,0.0,0.0,0.0,0.0,0.0,0.0,0.0,0.0,0.0,0.0,0.0,0.0,0.0,0.0,0.0,0.0,0.0,0.0,0.0,0.0,0.0,0.0,0.0,0.0,0.0,0.0,0.0,0.0,0.0,0.0,0.0,0.0,0.0,0.0,0.0,0.0,0.0,0.0,0.0,0.0,0.0,0.0,0.0,0.0,0.0,-3.0547,-3.4629,-3.7617,-3.8496,-3.8464,-3.8051,-3.725,-3.4739,-3.2108,0.0,0.0,0.0,0.0,0.0,0.0,0.0,0.0,0.0,0.0,0.0,0.0,0.0,0.0,0.0,0.0,0.0,0.0,0.0,0.0,0.0,0.0,0.0,0.0,0.0,0.0,0.0,0.0,0.0,0.0,0.0,0.0,0.0,0.0,0.0,0.0,0.0,0.0,0.0,0.0,0.0,0.0,0.0,0.0,0.0,0.0,0.0,0.0,0.0,0.0,0.0,0.0,0.0,0.0,0.0,0.0,0.0,0.0,0.0,0.0,0.0,0.0,0.0,0.0,0.0,0.0,0.0,0.0,0.0,0.0,0.0,0.0,0.0,0.0,0.0,0.0,0.0,0.0,0.0,0.0,0.0,0.0,0.0,0.0,0.0,0.0,0.0,0.0,0.0,0.0,0.0,0.0,0.0,0.0,0.0,0.0,0.0,0.0,0.0,0.0,0.0,0.0,0.0,-2.8809,-3.3359,-3.6698,-3.7524,-3.7572,-3.718,-3.6284,-3.4314,-3.1545,-2.7792,0.0,0.0,0.0,0.0,0.0,0.0,0.0,0.0,0.0,0.0,0.0,0.0,0.0,0.0,0.0,0.0,0.0,0.0,0.0,0.0,0.0,0.0,0.0,0.0,0.0,0.0,0.0,0.0,0.0,0.0,0.0,0.0,0.0,0.0,0.0,0.0,0.0,0.0,0.0,0.0,0.0,0.0,0.0,0.0,0.0,0.0,0.0,0.0,0.0,0.0,0.0,0.0,0.0,0.0,0.0,0.0,0.0,0.0,0.0,0.0,0.0,0.0,0.0,0.0,0.0,0.0,0.0,0.0,0.0,0.0,0.0,0.0,0.0,0.0,0.0,0.0,0.0,0.0,0.0,0.0,0.0,0.0,0.0,0.0,0.0,0.0,0.0,0.0,0.0,0.0,0.0,0.0,0.0,0.0,0.0,0.0,0.0,0.0,0.0,0.0,0.0,0.0,-2.7981,-3.2447,-3.5713,-3.6521,-3.6587,-3.6184,-3.5275,-3.3863,-3.1235,-2.7029,0.0,0.0,0.0,0.0,0.0,0.0,0.0,0.0,0.0,0.0,0.0,0.0,0.0,0.0,0.0,0.0,0.0,0.0,0.0,0.0,0.0,0.0,0.0,0.0,0.0,0.0,0.0,0.0,0.0,0.0,0.0,0.0,0.0,0.0,0.0,0.0,0.0,0.0,0.0,0.0,0.0,0.0,0.0,0.0,0.0,0.0,0.0,0.0,0.0,0.0,0.0,0.0,0.0,0.0,0.0,0.0,0.0,0.0,0.0,0.0,0.0,0.0,0.0,0.0,0.0,0.0,0.0,0.0,0.0,0.0,0.0,0.0,0.0,0.0,0.0,0.0,0.0,0.0,0.0,0.0,0.0,0.0,0.0,0.0,0.0,0.0,0.0,0.0,0.0,0.0,0.0,0.0,0.0,0.0,0.0,0.0,0.0,0.0,0.0,0.0,0.0,0.0,-2.775,-3.1692,-3.4598,-3.5479,-3.545,-3.5044,-3.424,-3.3323,-3.1047,-2.6955,0.0,0.0,0.0,0.0,0.0,0.0,0.0,0.0,0.0,0.0,0.0,0.0,0.0,0.0,0.0,0.0,0.0,0.0,0.0,0.0,0.0,0.0,0.0,0.0,0.0,0.0,0.0,0.0,0.0,0.0,0.0,0.0,0.0,0.0,0.0,0.0,0.0,0.0,0.0,0.0,0.0,0.0,0.0,0.0,0.0,0.0,0.0,0.0,0.0,0.0,0.0,0.0,0.0,0.0,0.0,0.0,0.0,0.0,0.0,0.0,-2.9204,0.0,0.0,0.0,0.0,0.0,0.0,0.0,0.0,0.0,0.0,0.0,0.0,0.0,0.0,0.0,0.0,0.0,0.0,0.0,0.0,0.0,0.0,0.0,0.0,0.0,0.0,0.0,0.0,0.0,0.0,0.0,0.0,0.0,0.0,0.0,0.0,0.0,0.0,0.0,0.0,0.0,-2.6841,-3.0273,-3.3018,-3.4443,-3.4013,-3.3528,-3.3228,-3.2429,-3.0435,-2.6843,0.0,0.0,0.0,0.0,0.0,0.0,0.0,0.0,0.0,0.0,0.0,0.0,0.0,0.0,0.0,0.0,0.0,0.0,0.0,0.0,0.0,0.0,0.0,0.0,0.0,0.0,0.0,0.0,0.0,0.0,0.0,0.0,0.0,0.0,0.0,0.0,0.0,0.0,0.0,0.0,0.0,0.0,0.0,0.0,0.0,0.0,0.0,0.0,0.0,0.0,0.0,0.0,0.0,0.0,0.0,0.0,0.0,0.0,0.0,0.0,0.0,-3.0408,0.0,0.0,0.0,0.0,0.0,0.0,0.0,0.0,0.0,0.0,0.0,0.0,0.0,0.0,0.0,0.0,0.0,0.0,0.0,0.0,0.0,0.0,0.0,0.0,0.0,0.0,0.0,0.0,0.0,0.0,0.0,0.0,0.0,0.0,0.0,0.0,0.0,0.0,0.0,0.0,-2.6519,-2.9744,-3.2266,-3.3509,-3.3252,-3.2819,-3.2359,-3.1564,-2.9788,-2.6794,-2.5029,0.0,0.0,0.0,0.0,0.0,0.0,0.0,0.0,0.0,0.0,0.0,0.0,0.0,0.0,0.0,0.0,0.0,0.0,0.0,0.0,0.0,0.0,0.0,0.0,0.0,0.0,0.0,0.0,0.0,0.0,0.0,0.0,0.0,0.0,0.0,0.0,0.0,0.0,0.0,0.0,0.0,0.0,0.0,0.0,0.0,0.0,0.0,0.0,0.0,0.0,0.0,0.0,0.0,0.0,0.0,-3.7165,-3.7823,-3.8135,-3.7988,-3.5257,-3.3757,-3.3123,0.0,0.0,0.0,0.0,0.0,0.0,0.0,0.0,0.0,0.0,0.0,0.0,0.0,0.0,0.0,0.0,0.0,0.0,0.0,0.0,0.0,0.0,0.0,0.0,0.0,-2.7872,-2.8176,0.0,0.0,0.0,0.0,0.0,0.0,0.0,0.0,0.0,0.0,0.0,0.0,-2.6463,-2.954,-3.1795,-3.2602,-3.241,-3.2025,-3.1525,-3.0538,-2.9,-2.6736,-2.5164,-2.3304,0.0,0.0,0.0,0.0,0.0,0.0,0.0,0.0,0.0,0.0,0.0,0.0,0.0,0.0,0.0,0.0,0.0,0.0,0.0,0.0,0.0,0.0,0.0,0.0,0.0,0.0,0.0,0.0,0.0,0.0,0.0,0.0,-3.0804,-3.0946,0.0,0.0,0.0,0.0,0.0,0.0,0.0,0.0,0.0,0.0,0.0,0.0,0.0,0.0,-3.5323,-3.6577,-3.7611,-3.84,-3.9826,-4.0496,-4.0471,-4.0581,-4.0618,-4.06,-4.0159,0.0,-3.5624,-3.3283,0.0,0.0,0.0,0.0,0.0,0.0,0.0,0.0,0.0,0.0,0.0,0.0,0.0,0.0,0.0,0.0,0.0,0.0,0.0,0.0,0.0,0.0,-3.1344,-3.0441,-3.0581,-3.0419,0.0,-2.5257,-2.2557,-2.2274,0.0,0.0,0.0,0.0,0.0,0.0,0.0,0.0,-2.6467,-2.8974,-3.0904,-3.1775,-3.0506,-2.9852,-3.0519,-2.914,-2.7755,-2.6678,-2.5673,-2.4683,-2.3642,-2.1243,0.0,0.0,0.0,0.0,0.0,0.0,0.0,0.0,0.0,0.0,0.0,0.0,0.0,0.0,0.0,0.0,0.0,0.0,0.0,0.0,0.0,0.0,0.0,0.0,0.0,0.0,0.0,0.0,0.0,-3.1376,-3.2899,-3.2493,-3.2154,-3.1419,0.0,0.0,0.0,0.0,0.0,0.0,0.0,0.0,0.0,-3.5249,-3.5301,-3.604,-3.7593,-3.817,-3.8786,-3.9456,-4.0496,-4.1344,-4.1996,-4.1996,-4.2156,-4.2415,-4.1974,-4.078,-3.8978,-3.6402,-3.3963,-3.1747,0.0,0.0,0.0,0.0,0.0,0.0,-3.1522,0.0,0.0,0.0,0.0,0.0,0.0,0.0,0.0,0.0,0.0,0.0,0.0,0.0,0.0,-3.073,-3.0942,-3.0914,-2.9269,-2.7173,-2.5405,0.0,-2.3626,-2.2241,-2.057,0.0,0.0,0.0,0.0,0.0,-2.6524,-2.8434,-2.9813,-3.0198,-2.9146,-2.8588,-2.8967,-2.7871,-2.7005,-2.6621,-2.5788,-2.4947,-2.4129,-2.2081,-2.0415,0.0,0.0,0.0,0.0,0.0,0.0,0.0,0.0,0.0,0.0,0.0,0.0,0.0,0.0,0.0,0.0,0.0,0.0,0.0,0.0,0.0,0.0,0.0,0.0,0.0,0.0,0.0,0.0,-3.3203,-3.4878,-3.4336,-3.4438,-3.3897,0.0,0.0,0.0,0.0,0.0,0.0,-3.3715,-3.4945,-3.6355,-3.7895,-3.7946,-3.8531,-3.9817,-3.9804,-3.9983,-4.0383,-4.089,-4.1599,-4.248,-4.248,-4.2694,-4.3032,-4.2432,-4.1722,-4.0797,-3.8545,-3.6116,-3.3759,-3.3237,-3.2182,0.0,-3.2653,-3.2852,-3.2522,-3.3954,-3.4156,-3.3532,-3.1953,0.0,-2.9297,-2.759,0.0,0.0,0.0,0.0,-2.9203,-3.0661,0.0,-3.175,-3.098,-3.117,-3.112,-2.9708,-2.8884,-2.8101,0.0,-2.6001,-2.4643,-2.247,0.0,0.0,0.0,0.0,-2.6049,-2.7161,-2.8361,-2.9107,-2.9107,-2.8184,-2.7563,-2.7563,-2.6774,-2.6269,-2.6269,-2.5462,-2.4716,-2.4129,-2.2432,-2.1124,-2.0314,0.0,0.0,0.0,0.0,0.0,0.0,0.0,0.0,0.0,0.0,0.0,0.0,0.0,0.0,0.0,0.0,0.0,0.0,0.0,0.0,0.0,0.0,0.0,0.0,0.0,0.0,0.0,0.0,0.0,-3.6643,-3.7246,0.0,0.0,0.0,0.0,-3.4218,-3.5013,-3.6056,-3.755,-3.8345,-3.9445,-4.0933,-4.0984,-4.1356,-4.2117,-4.2001,-4.194,-4.1988,-4.182,-4.1789,-4.1853,-4.1853,-4.1874,-4.1877,-4.1842,-4.1081,-3.9782,-3.8435,-3.7023,-3.5649,-3.4619,-3.3713,-3.3109,-3.4406,-3.4857,-3.4949,-3.5862,-3.5128,-3.3917,-3.4546,-3.317,-3.1268,-3.1152,-3.0175,0.0,0.0,-3.0216,-3.0717,-3.2121,-3.2517,-3.254,-3.2491,-3.212,-3.1548,-3.0703,-2.9895,-2.9067,0.0,-2.75,-2.6535,-2.4828,0.0,0.0,-2.4749,-2.5773,-2.7121,-2.8767,-2.9055,-2.9107,-2.9107,-2.764,-2.6678,-2.6678,-2.5865,-2.5365,-2.5365,-2.4606,-2.4149,-2.411,-2.2432,-2.1119,-2.0316,-1.9319,0.0,0.0,0.0,0.0,0.0,0.0,0.0,0.0,0.0,0.0,0.0,0.0,0.0,0.0,0.0,0.0,0.0,0.0,0.0,0.0,0.0,0.0,0.0,0.0,0.0,0.0,0.0,0.0,-3.892,-3.958,0.0,0.0,-3.7161,-3.711,-3.7364,-3.8531,-3.9445,-4.0003,-4.0713,-4.1576,-4.2564,-4.2151,-4.2252,-4.3014,-4.249,-4.1989,-4.1528,-4.1445,-4.1352,-4.1223,-4.1223,-4.1446,-4.181,-4.181,-4.131,-4.0423,-3.9497,-3.8278,-3.689,-3.6377,-3.586,-3.5515,-3.6506,-3.676,-3.6652,-3.696,-3.6684,-3.5968,-3.4651,-3.3642,-3.2742,-3.1709,-3.1409,-3.1476,-3.1672,-3.2163,-3.2747,-3.3246,-3.3366,-3.3238,-3.2711,-3.2059,-3.1315,-3.0522,-2.9698,-2.9053,-2.8747,-2.8083,-2.7258,-2.6226,-2.6145,-2.5904,-2.496,-2.6496,-2.7597,-2.715,-2.7675,-2.7873,-2.735,-2.6259,-2.5623,-2.5745,-2.4886,-2.4391,-2.4524,-2.3721,-2.3259,-2.3259,-2.212,-2.137,-2.1077,-1.9712,-1.801,0.0,0.0,0.0,0.0,0.0,0.0,0.0,0.0,0.0,0.0,0.0,0.0,0.0,0.0,0.0,0.0,0.0,0.0,0.0,0.0,0.0,0.0,0.0,0.0,0.0,0.0,-4.0143,-4.0425,-4.133,-4.1373,-3.9884,-3.9969,-4.0104,-4.0104,-4.1255,-4.1948,-4.1948,-4.2658,-4.3284,-4.3792,-4.3318,-4.3301,-4.3809,-4.3047,-4.2303,-4.1576,-4.1322,-4.0993,-4.0631,-4.0631,-4.0844,-4.1218,-4.1218,-4.1007,-4.058,-3.984,-3.8786,-3.7632,-3.7587,-3.7288,-3.6967,-3.7849,-3.807,-3.7878,-3.7584,-3.7492,-3.7144,-3.4926,-3.4197,-3.3972,-3.2614,-3.2577,-3.2999,-3.2999,-3.3385,-3.3807,-3.3807,-3.3807,-3.3678,-3.3115,-3.2173,-3.125,-3.0723,-2.9769,-2.9005,-2.9005,-2.8636,-2.8078,-2.7288,-2.7298,-2.7053,-2.5997,-2.7075,-2.7724,-2.6937,-2.6929,-2.6792,-2.6255,-2.5437,-2.5005,-2.5173,-2.435,-2.3897,-2.4082,-2.3009,-2.235,-2.235,-2.1543,-2.1096,-2.1096,-1.9712,-1.8311,-1.691,0.0,0.0,0.0,0.0,0.0,0.0,0.0,0.0,0.0,0.0,0.0,0.0,0.0,0.0,0.0,0.0,0.0,0.0,0.0,0.0,0.0,0.0,0.0,-3.6669,-3.8613,-4.0315,-4.1184,-4.2574,-4.2868,-4.1441,-4.1948,-4.2354,-4.2354,-4.3031,-4.3426,-4.3426,-4.4181,-4.4615,-4.4615,-4.4615,-4.4615,-4.4615,-4.3826,-4.3081,-4.232,-4.1593,-4.0849,-4.013,-4.0113,-4.0096,-4.0096,-4.0096,-4.0096,-4.0045,-3.9326,-3.8582,-3.7916,-3.8171,-3.7805,-3.7285,-3.8269,-3.8643,-3.8533,-3.7759,-3.7499,-3.7242,-3.5581,-3.5031,-3.4894,-3.4055,-3.3812,-3.3807,-3.3807,-3.3807,-3.3807,-3.3807,-3.3807,-3.3807,-3.3807,-3.2577,-3.1433,-3.1415,-3.0173,-2.9023,-2.9005,-2.9232,-2.906,-2.8026,-2.8165,-2.8339,-2.8128,-2.761,0.0,-2.8307,-2.7005,-2.6005,-2.5967,-2.5269,-2.4849,-2.4986,-2.4224,-2.3829,-2.4034,-2.2419,-2.1453,-2.1453,-2.0703,-2.0281,-2.0285,-1.945,-1.8588,-1.7738,0.0,0.0,0.0,0.0,0.0,0.0,0.0,0.0,0.0,0.0,0.0,0.0,0.0,0.0,0.0,0.0,0.0,0.0,0.0,0.0,0.0,0.0,-3.7378,-3.8815,-4.0482,-4.2095,-4.3489,-4.4012,-4.4096,-4.369,-4.3853,-4.3972,-4.3972,-4.4175,-4.4265,-4.4265,-4.4496,-4.4615,-4.4615,-4.4615,-4.4615,-4.4615,-4.4395,-4.3876,-4.3098,-4.2354,-4.161,-4.0882,-4.035,-4.0096,-4.0096,-4.0096,-4.0096,-4.0079,-3.9893,-3.9039,-3.7845,-3.7393,-3.696,-3.6643,-3.6941,-3.7284,-3.7596,-3.7363,-3.7501,-3.7558,-3.6125,-3.5788,-3.5713,-3.4516,-3.3992,-3.3807,-3.3807,-3.3807,-3.3807,-3.3807,-3.3807,-3.3807,-3.3807,-3.3018,-3.2118,-3.1525,-3.0595,-2.9702,-2.9115,-2.9232,-2.9246,-2.875,-2.8762,-2.8627,-2.7983,0.0,0.0,-2.644,-2.6497,-2.6222,-2.5043,-2.4706,-2.4662,-2.4842,-2.3394,-2.2578,0.0,-2.1208,-2.0278,-2.0278,-2.0045,-1.9977,-2.0073,-1.9373,-1.8876,0.0,0.0,0.0,0.0,0.0,0.0,0.0,0.0,0.0,0.0,0.0,0.0,0.0,0.0,0.0,0.0,0.0,0.0,0.0,0.0,0.0,0.0,-3.6987,-3.8785,-4.0433,-4.1488,-4.2602,-4.3881,-4.4384,-4.4615,-4.4615,-4.4615,-4.4615,-4.4615,-4.4615,-4.4615,-4.4615,-4.4615,-4.4615,-4.4615,-4.4615,-4.4615,-4.4615,-4.4615,-4.4028,-4.2929,-4.2489,-4.1745,-4.0713,-4.0299,-4.0096,0.0,-4.0096,-4.0096,-4.0096,-4.0096,-3.9394,0.0,0.0,0.0,0.0,0.0,-3.6941,-3.7209,-3.7209,-3.7378,-3.7417,-3.6272,-3.6006,-3.5869,-3.4442,-3.3874,-3.3686,-3.3585,-3.355,-3.3578,-3.3748,-3.3807,-3.3807,-3.3807,-3.2926,-3.2063,-3.1935,-3.0742,-2.9647,-2.9537,0.0,0.0,-2.904,-2.9089,-2.8968,-2.8397,-2.84,-2.7879,0.0,-2.612,-2.5782,-2.4504,-2.4375,-2.4452,-2.4654,-2.3332,0.0,0.0,0.0,-2.0143,-1.9809,-1.979,0.0,0.0,0.0,0.0,0.0,0.0,0.0,0.0,-1.7852,-1.8159,0.0,0.0,0.0,0.0,0.0,0.0,0.0,0.0,0.0,0.0,0.0,0.0,0.0,0.0,0.0,0.0,-3.9002,-3.9998,-4.1366,-4.1736,-4.2221,-4.3169,-4.3977,-4.4485,-4.4598,-4.4615,-4.4615,-4.4615,-4.4615,-4.4615,-4.4615,0.0,0.0,0.0,0.0,-4.4615,-4.4615,-4.4615,-4.3887,-4.2422,-4.2337,-4.1585,-4.0231,-4.0146,-4.0096,-4.0096,-4.0096,-4.0096,-4.0096,-4.0096,-3.9622,-3.8834,-3.8522,-3.7534,-3.6354,-3.6825,-3.702,0.0,0.0,0.0,0.0,-3.6135,-3.5892,-3.5613,-3.4111,-3.3688,-3.3631,-3.3232,-3.3178,-3.3322,-3.3583,-3.3694,-3.3734,-3.3734,-3.2635,-3.1787,-3.2472,-3.0803,-2.9398,-3.0069,-2.9537,-2.9005,-2.9005,-2.9211,-2.9267,-2.9051,-2.8393,0.0,-2.6722,-2.597,-2.5191,-2.43,0.0,0.0,-2.4444,-2.3665,-2.2957,-2.2407,-2.1568,-2.074,-1.99,-1.9906,-1.9925,-1.9944,-1.9978,-2.0064,-2.0273,-2.0273,-2.0315,-2.0404,-1.885,-1.8965,0.0,0.0,0.0,0.0,0.0,0.0,0.0,0.0,0.0,0.0,0.0,0.0,0.0,0.0,0.0,-3.8265,-3.9391,-4.0321,-4.0624,-4.0828,-4.1543,-4.3108,-4.3456,-4.3814,-4.4542,-4.4615,-4.4615,-4.4615,-4.4615,-4.4615,-4.4615,-4.4615,0.0,-4.4615,-4.4615,-4.4615,-4.4615,-4.4615,-4.4113,-4.32,0.0,0.0,-4.0967,-4.0383,-4.0096,-4.0096,-4.0096,-4.0096,-4.0096,-4.0096,-3.9292,-3.8041,-3.7403,-3.6582,-3.5783,-3.5876,-3.592,-3.592,-3.592,-3.6186,-3.646,-3.5844,-3.5781,-3.5664,-3.4392,-3.4227,0.0,-3.299,-3.306,-3.3414,-3.2889,-3.3045,-3.3317,-3.3317,-3.3082,-3.2809,-3.264,-3.1469,-3.0409,-3.0222,-2.9537,-2.9005,-2.9005,-2.9033,-2.9055,-2.9017,-2.8877,-2.8235,-2.6785,-2.6465,-2.5805,-2.4355,-2.419,-2.4209,-2.4247,-2.352,-2.2995,-2.2873,-2.2097,-2.1266,-2.0409,-2.0522,-2.031,-1.9694,-1.9773,-1.9912,-2.0064,-2.0064,-2.0478,-2.1254,-2.0927,-2.0946,0.0,0.0,0.0,0.0,0.0,0.0,0.0,0.0,0.0,0.0,0.0,-3.4879,-3.6214,0.0,-3.9199,-4.0231,-4.0666,-4.0891,-4.0891,-4.0716,-4.0921,-4.1868,-4.2785,-4.3472,-4.3902,-4.4355,-4.4615,-4.4615,-4.4615,-4.4615,-4.4615,-4.4615,-4.4615,-4.4615,-4.4615,-4.4615,-4.4615,-4.4198,-4.3606,-4.2844,-4.21,-4.1356,-4.0629,-4.0282,-4.0096,-4.0096,-4.0096,-4.0096,-4.0079,-3.9706,-3.8886,-3.7838,-3.71,-3.6299,-3.56,-3.56,-3.56,-3.56,-3.56,-3.5783,-3.5963,-3.5689,-3.5668,-3.5569,-3.4579,-3.4183,-3.3869,-3.3,-3.2739,-3.2669,-3.2522,-3.2665,-3.284,-3.284,-3.2536,-3.2297,-3.2511,-3.1153,-3.003,-3.0422,-2.9519,-2.8761,-2.897,-2.9005,-2.9005,-2.9005,-2.8656,-2.797,-2.6759,-2.6245,-2.5529,-2.4318,-2.419,-2.419,-2.419,-2.3465,-2.3006,-2.3006,-2.2244,-2.14,-2.0548,-2.0589,-2.0326,-1.9608,-1.9663,-1.9768,-1.9906,-1.9978,-2.048,-2.1421,-2.1921,-2.237,0.0,0.0,0.0,0.0,0.0,0.0,0.0,0.0,-3.4068,-3.6207,-3.6641,-3.73,-3.9409,-3.9903,-4.0502,-4.2141,-4.1856,-4.1422,-4.1422,-4.0711,-4.0269,-4.0439,-4.1997,-4.3108,-4.3276,-4.4093,-4.4615,-4.4615,-4.4615,-4.4615,-4.4615,-4.4615,-4.4615,-4.4615,-4.4615,-4.4615,-4.4615,-4.3809,-4.3031,-4.2286,-4.1542,-4.0798,-4.0096,-4.0096,-4.0096,-4.0096,-4.0096,-4.0096,-4.0045,-3.9292,-3.8565,-3.7838,-3.71,-3.6299,-3.56,-3.56,-3.56,-3.56,-3.56,-3.56,-3.56,-3.56,-3.56,-3.543,-3.4556,-3.3964,-3.3473,-3.284,-3.23,-3.1942,-3.2197,-3.2299,-3.2349,-3.2349,-3.1857,-3.1608,-3.2343,-3.0706,-2.9407,-3.0467,-2.9386,-2.8438,-2.8827,-2.8875,-2.8917,-2.8994,-2.8448,-2.7695,-2.6712,-2.6025,-2.5264,-2.43,-2.419,-2.419,-2.419,-2.3621,-2.3226,-2.3226,-2.2611,-2.1877,-2.1025,-2.0841,-2.0518,-2.0036,-1.9708,-1.9779,-2.022,-2.0185,-2.0698,-2.1752,-2.2555,-2.3343,-2.745,-2.7309,-2.7962,-2.9922,-3.0589,-3.2073,0.0,0.0,-3.7599,-4.0187,-4.0726,-4.0816,-4.1115,-4.1677,-4.2141,-4.2366,-4.1856,-4.1422,-4.1422,-4.0307,-3.9535,-3.9553,-4.1095,-4.2458,-4.3229,-4.4093,-4.4615,-4.4615,-4.4615,-4.4615,-4.4615,-4.4615,-4.4615,-4.4615,-4.4615,-4.4615,-4.4615,-4.3809,-4.3031,-4.2286,-4.1542,-4.0798,-4.0096,-4.0096,-4.0096,-4.0096,-4.0096,-4.0096,-4.0045,-3.9292,-3.8565,-3.7838,-3.71,-3.6299,-3.56,-3.56,-3.56,-3.56,-3.56,-3.56,-3.56,-3.56,-3.56,-3.5346,-3.3964,-3.3931,-3.3969,-3.1964,-3.1814,-3.2123,-3.1499,-3.1603,-3.1897,-3.1897,-3.181,-3.1882,-3.24,-3.09,-2.9601,-3.015,-2.9018,-2.8061,-2.8407,-2.8458,-2.859,-2.894,-2.8932,-2.8326,-2.6804,-2.6521,-2.5878,-2.4355,-2.419,-2.419,-2.419,-2.4116,-2.4061,-2.4061,-2.3969,-2.3566,-2.2749,-2.2024,-2.1619,-2.1552,-2.0081,-2.0137,-2.1742,-2.104,-2.1601,-2.3268,-2.3364,-2.3661,-3.1251,-2.996,-2.9189,0.0,-3.2214,-3.3817,-3.7105,-3.7978,-3.8715,-4.0942,-4.1422,-4.1422,-4.1422,-4.1961,-4.2396,0.0,-4.1856,-4.1422,-4.1422,-4.0247,-3.9439,-3.9493,-4.0978,-4.2125,-4.252,-4.332,-4.3844,-4.3844,-4.3844,-4.3844,-4.3844,-4.431,-4.4615,-4.4615,-4.4615,-4.4615,-4.4615,-4.3369,-4.2608,-4.2286,-4.1119,-4.0417,-4.0096,-4.0096,-4.0096,-4.0079,-3.9656,-3.9706,-3.9977,-3.8386,-3.7787,-3.7787,-3.6569,-3.591,-3.56,-3.56,-3.56,-3.56,-3.56,-3.56,-3.56,-3.56,-3.5295,-3.4928,-3.4742,-3.3998,-3.3123,-3.2611,-3.207,-3.1599,-3.1275,-3.1312,-3.1468,-3.1468,-3.1468,-3.1488,-3.1712,-3.0398,-2.9334,-2.9721,-2.8578,-2.7663,-2.8047,-2.8102,-2.8156,-2.8321,-2.8342,-2.7897,-2.6749,-2.619,-2.5456,-2.4318,-2.419,-2.419,-2.419,-2.419,-2.419,-2.419,-2.419,-2.3841,-2.3024,-2.2685,-2.2281,-2.1812,-2.1115,-2.1138,-2.1875,-2.1617,-2.2152,-2.339,-2.3455,-2.3858,-3.3179,-3.2067,0.0,-3.2767,-3.4534,-3.6348,-3.7836,-3.881,-3.9794,-4.1337,-4.1542,-4.1422,-4.1422,-4.1811,-4.2126,-4.2126,-4.1572,-4.1115,-4.1115,-3.9978,-3.9219,-3.9497,-4.0651,-4.147,-4.1627,-4.2878,-4.3562,-4.3306,-4.3306,-4.3306,-4.3306,-4.3919,-4.4355,-4.4598,-4.4615,-4.4496,-4.4265,-4.2946,-4.2185,-4.1982,-4.0722,-4.0096,-4.0096,-4.0096,-4.0096,-4.0062,-3.9334,-3.9436,-3.9926,-3.7709,-3.7229,-3.7753,-3.6191,-3.56,-3.56,-3.56,-3.56,-3.56,-3.56,-3.56,-3.56,-3.56,-3.525,-3.4827,-3.494,-3.388,-3.2632,-3.2763,-3.2019,-3.119,-3.119,-3.119,-3.119,-3.119,-3.119,-3.119,-3.119,-3.0192,-2.9321,-2.9351,-2.8319,-2.7499,-2.7698,-2.7722,-2.7783,-2.7883,-2.7862,-2.7464,-2.6427,-2.5502,-2.4744,-2.4263,-2.419,-2.419,-2.419,-2.419,-2.419,-2.419,-2.419,-2.3933,-2.3354,-2.3116,-2.2832,-2.2473,-2.2033,-2.2014,-2.2455,-2.2345,-2.2706,-2.3555,-2.3657,-2.4057,-3.139,0.0,-3.4475,-3.5291,-3.7565,-3.9816,-4.053,-4.1008,-4.1534,-4.2231,-4.1856,-4.1422,-4.1422,-4.1437,-4.1452,-4.1452,-4.0861,-4.0427,-4.0427,-3.9275,-3.8661,-3.9341,-3.9743,-4.0166,0.0,-4.3045,-4.4196,-4.3366,-4.3306,-4.3306,-4.3306,-4.3336,-4.3726,-4.457,-4.4615,-4.4215,-4.3426,-4.2675,-4.1931,-4.1221,-4.0468,-4.0096,-4.0096,-4.0096,-4.0096,-4.0062,-3.9334,-3.9436,-3.9926,-3.7709,-3.7229,-3.7753,-3.6191,-3.56,-3.56,-3.56,-3.56,-3.56,-3.56,-3.56,-3.56,-3.56,-3.5583,-3.5295,-3.3897,-3.3423,-3.3085,-3.1664,-3.1224,-3.119,-3.119,-3.119,-3.119,-3.119,-3.119,-3.119,-3.119,-3.0598,-2.9854,-2.9163,-2.835,-2.7692,-2.7378,-2.7334,-2.7439,-2.784,-2.7908,-2.7305,-2.5746,-2.4496,-2.3873,-2.417,-2.419,-2.419,-2.419,-2.419,-2.419,-2.419,-2.419,-2.419,-2.4153,-2.341,-2.3354,-2.4116,-2.2584,-2.2565,-2.4135,-2.3345,-2.3382,-2.4163,-2.4172,-2.4293,-3.409,-3.4416,-3.4889,-3.6316,-3.732,-3.8464,-4.0244,-4.0416,-4.0368,-4.0934,-4.0531,-3.9948,-3.9484,-3.9768,-4.0083,-4.0083,-4.0262,-4.0397,-4.0397,-3.9634,-3.9189,-3.949,-4.0042,0.0,0.0,0.0,0.0,-4.1595,-4.1677,-4.1675,-4.1577,-4.2676,-4.3426,-4.3726,-4.4298,-4.4198,-4.3392,-4.2675,-4.1931,-4.1187,-4.0468,-4.0096,-4.0096,-4.0096,-4.0096,-4.0028,-3.8802,-3.8684,-3.9216,-3.6941,-3.6468,-3.706,-3.6005,-3.56,-3.56,-3.56,-3.56,-3.56,-3.56,-3.56,-3.56,-3.56,-3.5261,-3.4878,-3.4856,-3.3829,-3.2662,-3.2662,-3.1952,-3.119,-3.119,-3.119,-3.119,-3.119,-3.119,-3.119,-3.119,-3.0615,-2.9888,-2.9145,-2.8349,-2.7605,-2.701,-2.6906,-2.7035,-2.7439,-2.681,-2.6109,-2.5578,-2.426,-2.35,-2.3827,-2.3876,-2.3966,-2.418,-2.419,-2.419,-2.419,-2.419,-2.419,-2.419,-2.3933,-2.3914,-2.419,-2.3657,-2.3657,-2.419,-2.3933,-2.3933,-2.419,-2.419,-2.4237,-3.6635,-3.6902,-3.7157,-3.8471,-3.8724,-3.9036,-4.0546,-4.0198,-3.9622,-3.998,-3.9155,-3.8242,-3.7793,-3.7883,-3.8167,-3.8631,-3.905,-3.9499,-3.9993,-3.9469,-3.9174,-3.9486,-3.9788,-4.006,0.0,0.0,0.0,-4.0683,-4.1067,-4.1117,-4.0727,-4.1772,-4.252,-4.2816,-4.368,-4.3635,-4.2568,-4.2126,-4.1372,-4.0383,-3.9897,-3.9662,-3.9662,-3.9662,-3.9662,-3.9621,-3.8434,-3.8328,-3.8819,-3.6529,-3.6079,-3.6728,-3.5904,-3.56,-3.56,-3.56,-3.56,-3.56,-3.56,-3.56,-3.56,-3.56,-3.5278,-3.4878,-3.4822,-3.3829,-3.2679,-3.2628,-3.1935,-3.119,-3.119,-3.119,-3.119,-3.119,-3.119,-3.119,-3.119,-3.0835,-3.0277,-2.9533,-2.8755,-2.7994,-2.7232,-2.686,-2.6791,-2.7035,-2.6197,-2.5533,-2.5504,-2.4045,-2.3153,-2.3488,-2.3522,-2.3599,-2.3816,-2.3837,-2.3837,-2.3837,-2.3966,-2.4016,-2.4016,-2.4016,-2.4016,-2.4016,-2.3907,-2.3907,-2.4016,-2.4016,-2.4084,-2.419,-2.419,-2.419,-3.8772,-3.9816,-4.1031,-4.1573,-4.1523,-4.1355,-4.1317,-4.0262,-3.9269,-3.9194,-3.7689,-3.6327,0.0,0.0,-3.5863,-3.7105,-3.7404,-3.7913,-3.923,-3.8856,-3.8691,0.0,0.0,0.0,0.0,0.0,0.0,-4.0582,0.0,-4.1496,-4.069,-4.069,-4.108,-4.1901,-4.2753,-4.2459,-4.0955,-4.1004,-4.028,-3.8854,-3.8854,-3.8854,-3.8854,-3.8854,-3.8854,-3.8853,-3.8154,-3.827,-3.8768,-3.6512,-3.6045,-3.666,-3.591,-3.56,-3.56,-3.56,-3.56,-3.56,-3.56,-3.56,-3.56,-3.56,-3.56,-3.5329,-3.3897,-3.344,-3.3102,-3.1664,-3.1224,-3.119,-3.119,-3.119,-3.119,-3.119,-3.119,-3.119,-3.119,-3.119,-3.097,-3.0243,-2.9465,-2.867,-2.7874,-2.7165,-2.6691,-2.6691,-2.6065,-2.5554,-2.5469,-2.3864,-2.2862,-2.3129,-2.3177,-2.3177,-2.32,-2.32,-2.32,-2.32,-2.3511,-2.3671,-2.3671,-2.3671,-2.3671,-2.3671,-2.3357,-2.3357,-2.3671,-2.3671,-2.3855,-2.417,-2.417,-2.418,-3.947,-4.0948,-4.2368,-4.1821,-4.1287,-4.0725,-4.0049,-3.8886,-3.7659,-3.6701,-3.531,-3.4113,0.0,0.0,0.0,-3.5848,-3.7195,0.0,-3.9269,-3.9275,0.0,-3.9394,0.0,-3.9234,-3.9394,-4.0036,0.0,0.0,-4.0019,-4.0078,-3.9743,-4.0343,-4.0811,-4.1013,-4.139,-4.1137,-4.0188,-3.9185,-3.8463,-3.8092,-3.8092,-3.8092,-3.8092,-3.8092,-3.8386,-3.8826,-3.7564,-3.7436,-3.8058,-3.6309,-3.5718,-3.5893,-3.5667,-3.56,-3.56,-3.56,-3.56,-3.56,-3.56,-3.56,-3.56,-3.56,-3.56,-3.543,-3.4506,-3.3846,-3.322,-3.2293,-3.1633,-3.119,-3.119,-3.119,-3.119,-3.119,-3.119,-3.119,-3.119,-3.119,-3.097,-3.0243,-2.9007,-2.7875,-2.7114,-2.6826,-2.6691,-2.6691,-2.6065,-2.54,-2.4831,-2.3867,-2.3117,-2.2867,-2.2835,-2.2935,-2.3177,-2.32,-2.32,-2.32,-2.3288,-2.3335,-2.3335,-2.3335,-2.3335,-2.3335,-2.3236,-2.3236,-2.3335,-2.3335,-2.3511,-2.3827,-2.3827,-2.3947,-4.1693,-4.2928,-4.3864,-4.2684,-4.159,-4.0419,-3.8974,-3.76,-3.6167,-3.452,-3.3125,0.0,-3.1345,-3.2302,0.0,0.0,0.0,0.0,-3.9245,-3.9388,-3.9388,0.0,-3.9388,0.0,-3.9388,-3.9829,-3.9935,0.0,-3.9799,-3.9891,-3.943,-3.9864,-4.0115,-4.0115,-4.0324,-3.9961,-3.895,-3.8173,-3.7632,-3.7263,-3.7263,-3.7263,-3.7263,-3.7263,-3.7353,-3.7416,0.0,-3.6525,-3.6841,-3.5669,-3.5339,-3.56,-3.56,-3.56,-3.56,-3.56,-3.56,-3.5577,-3.5253,-3.5362,-3.56,-3.56,-3.56,-3.5397,-3.4336,-3.3728,-3.3186,-3.2124,-3.1532,-3.119,-3.119,-3.119,-3.119,-3.119,-3.119,-3.119,-3.119,-3.119,-3.0886,-2.982,-2.8924,-2.7977,-2.6877,-2.6691,-2.6691,-2.6691,-2.6353,-2.5812,-2.5083,-2.4052,-2.3192,-2.2599,-2.251,-2.259,-2.2798,-2.2811,-2.2811,-2.2811,-2.2915,-2.2984,-2.2984,-2.2984,-2.2984,-2.2984,-2.287,-2.287,-2.2984,-2.2984,-2.3153,-2.3488,-2.3488,-2.3577,-4.4253,-4.5012,-4.5272,-4.3561,-4.2002,-4.0293,-3.7934,-3.626,-3.4587,-3.2435,0.0,-2.9819,-2.9307,-3.0253,-3.163,-3.3245,0.0,-3.6971,-3.911,-3.9298,-3.932,-3.9373,-3.9388,-3.9388,-3.9388,-3.9388,-3.9388,-3.9388,-4.008,-4.0205,-3.9445,-3.9388,-3.9298,-3.9119,-3.931,-3.8762,-3.7435,-3.7474,-3.713,-3.6446,-3.6446,-3.6446,-3.6446,-3.6446,-3.6152,-3.5605,0.0,0.0,-3.5514,-3.4775,-3.4823,-3.5339,-3.5339,-3.5339,-3.5339,-3.5339,-3.5339,-3.5253,-3.4664,-3.4847,-3.5339,-3.5447,-3.547,-3.5183,-3.3739,-3.3262,-3.2955,-3.1496,-3.1099,-3.1089,-3.1093,-3.1022,-3.0975,-3.0975,-3.0975,-3.0995,-3.1055,-3.1075,-3.0653,-2.9188,-2.8901,-2.8394,-2.686,-2.6657,-2.6691,-2.6691,-2.6691,-2.642,-2.5693,-2.4475,-2.3376,-2.2533,-2.2448,-2.2398,-2.2296,-2.2296,-2.2296,-2.2296,-2.2527,-2.2647,-2.2647,-2.2647,-2.2647,-2.2647,-2.2426,-2.2412,-2.2647,-2.2647,-2.281,-2.3129,-2.3129,-2.3153,-4.4525,-4.5443,-4.5858,-4.2955,-4.1596,-4.0103,-3.6647,-3.4406,0.0,0.0,-2.8203,-2.723,-2.7126,-2.8203,-3.0073,-3.3021,-3.4247,-3.5893,-3.899,-3.8931,-3.8781,0.0,0.0,0.0,0.0,0.0,0.0,0.0,0.0,0.0,-3.9424,-3.9388,-3.888,-3.7793,-3.7766,-3.7176,-3.5881,-3.5874,-3.5814,-3.5701,-3.5701,-3.5701,-3.5701,-3.5701,-3.5673,-3.5576,0.0,0.0,-3.4826,-3.4076,-3.3836,-3.3953,-3.3953,-3.3953,-3.3953,-3.3953,-3.3953,-3.3937,-3.3811,-3.3836,-3.4037,-3.4592,-3.4759,-3.4518,-3.3077,-3.2624,-3.2286,-3.0924,-3.0517,-3.0483,-3.0535,-3.0131,-2.9717,-2.9717,-2.9717,-2.9848,-3.0351,-3.0456,-3.0046,-2.8611,-2.8288,-2.7805,-2.6369,-2.6436,-2.6691,-2.6691,-2.6691,-2.642,-2.5693,-2.5389,-2.4712,-2.3342,-2.3207,-2.297,-2.2347,-2.2296,-2.2296,-2.2296,-2.2349,-2.236,-2.236,-2.236,-2.236,-2.236,-2.2321,-2.2307,-2.236,-2.236,-2.25,-2.2784,-2.2784,-2.2935,-4.4381,-4.4978,-4.5193,-4.3704,-4.1601,-3.9173,-3.643,0.0,0.0,0.0,-2.6767,-2.5974,-2.563,-2.723,0.0,-3.0687,-3.2362,-3.4502,-3.7479,-3.7599,0.0,0.0,0.0,0.0,0.0,0.0,0.0,0.0,0.0,0.0,-3.9388,-3.908,-3.8422,-3.7434,-3.7105,-3.6462,-3.5519,-3.5504,-3.5504,-3.5504,-3.5504,-3.5504,-3.5504,-3.5504,-3.5143,-3.4501,0.0,0.0,-3.3565,-3.3234,-3.3287,-3.3582,-3.3582,-3.3582,-3.3582,-3.3582,-3.3582,-3.3556,-3.3182,-3.3313,-3.3598,-3.3572,-3.3786,-3.3827,-3.2422,-3.196,-3.1737,-3.0701,-3.0132,-2.9842,-2.9868,-2.964,-2.9406,-2.9406,-2.9406,-2.9473,-2.9761,-2.9827,-2.9426,-2.8001,-2.7721,-2.7326,-2.6189,-2.6191,-2.6419,-2.6657,-2.6487,-2.6215,-2.5847,-2.5814,-2.5346,-2.4105,-2.3628,-2.3257,-2.2902,-2.2516,-2.2296,-2.2296,-2.2296,-2.2296,-2.2296,-2.2296,-2.2296,-2.2296,-2.2296,-2.2296,-2.2296,-2.2296,-2.2377,-2.2487,-2.2487,-2.2581,-4.3985,-4.4268,-4.4287,-4.3876,-4.117,-3.8109,-3.6035,-3.2793,0.0,0.0,-2.5734,-2.5038,-2.4664,-2.6309,-2.7979,0.0,-3.0537,-3.2916,-3.5863,-3.6402,-3.7165,0.0,0.0,0.0,0.0,0.0,0.0,0.0,0.0,0.0,0.0,-3.8766,-3.8078,-3.7434,-3.6806,-3.6178,-3.5519,-3.5504,-3.5504,-3.5504,-3.5504,-3.5504,-3.5504,-3.5355,-3.4637,-3.3484,0.0,0.0,0.0,-3.2355,-3.268,-3.3156,-3.3156,-3.3156,-3.3156,-3.3156,-3.3156,-3.3077,-3.2559,-3.2707,-3.3045,-3.2373,-3.2607,-3.2962,-3.1849,-3.1404,-3.1133,-3.0425,-2.9824,-2.9379,-2.9264,-2.9107,-2.9019,-2.9019,-2.9111,-2.9203,-2.9203,-2.9203,-2.8837,-2.7588,-2.7217,-2.6833,-2.6013,-2.584,-2.5961,-2.6315,-2.6052,-2.5834,-2.5834,-2.5834,-2.5516,-2.4729,-2.4181,-2.3731,-2.3427,-2.2868,-2.2465,-2.2313,-2.2296,-2.2296,-2.2296,-2.2296,-2.2296,-2.2296,-2.2296,-2.2296,-2.2296,-2.2296,-2.2296,-2.2296,-2.2296,-2.2296,-4.3412,-4.378,-4.3853,-4.1603,-3.9434,-3.7111,-3.4364,0.0,-2.8201,-2.6108,-2.4672,-2.3954,-2.45,-2.4814,-2.595,-2.8996,-2.9726,-3.1195,-3.5055,-3.6118,-3.6985,0.0,0.0,0.0,0.0,0.0,0.0,0.0,0.0,0.0,0.0,-3.8766,-3.8078,-3.7434,-3.6806,-3.6178,-3.5519,-3.5504,-3.5504,-3.5504,-3.5504,-3.5504,-3.5489,-3.4861,-3.4173,-3.3469,0.0,0.0,0.0,-3.1611,-3.164,-3.1682,-3.1682,-3.1682,-3.1682,-3.1682,-3.1682,-3.1682,-3.1611,-3.164,-3.1577,-3.0904,-3.1189,-3.1773,-3.1622,-3.1115,-3.0449,-2.9849,-2.9592,-2.9367,-2.8808,-2.8228,-2.776,-2.776,-2.8174,-2.8583,-2.8583,-2.8583,-2.835,-2.7619,-2.6936,-2.6262,-2.5559,-2.5358,-2.5297,-2.5335,-2.5297,-2.5278,-2.5278,-2.5278,-2.5249,-2.5158,-2.5294,-2.4864,-2.3511,-2.3342,-2.3004,-2.233,-2.2296,-2.2296,-2.2296,-2.2296,-2.2296,-2.2296,-2.2296,-2.2296,-2.2296,-2.2296,-2.2296,-2.2296,-2.2296,-2.2296,-4.182,-4.2365,-4.2763,-4.1863,-3.9015,-3.5901,-3.4083,0.0,-2.753,-2.5929,-2.4537,-2.3684,-2.3954,-2.4335,-2.5173,-2.6916,-2.7515,-2.8891,-3.2048,-3.308,0.0,0.0,0.0,0.0,0.0,0.0,0.0,0.0,0.0,0.0,0.0,-3.7599,-3.712,-3.6866,-3.6222,-3.5774,-3.5504,-3.5504,-3.5504,-3.5504,-3.5504,-3.5504,-3.5489,-3.522,-3.4517,-3.3484,0.0,0.0,0.0,-3.1511,-3.1511,-3.1511,-3.1511,-3.1511,-3.1511,-3.1511,-3.1511,-3.1511,-3.1511,-3.1511,-3.1466,-3.1182,-3.1033,-3.0858,-3.0521,-3.0175,-2.9807,-2.918,-2.8695,-2.8303,-2.8055,-2.7809,-2.76,-2.76,-2.7785,-2.7944,-2.7944,-2.7944,-2.7625,-2.6571,-2.6122,-2.5674,-2.4925,-2.4759,-2.4831,-2.5163,-2.493,-2.4732,-2.4732,-2.4732,-2.4732,-2.4732,-2.434,-2.3967,-2.3616,-2.2583,-2.1926,-2.1886,-2.1884,-2.1884,-2.1884,-2.2149,-2.2296,-2.2296,-2.2296,-2.2296,-2.2296,-2.2296,-2.2296,-2.2296,-2.2296,-2.2296,-3.955,-4.034,-4.0992,-4.0888,-3.7997,-3.4856,0.0,-3.027,-2.7165,-2.563,-2.4403,-2.3595,-2.3595,-2.3999,-2.4515,-2.5187,-2.6033,-2.744,-2.9879,-3.1122,0.0,0.0,0.0,0.0,0.0,0.0,0.0,0.0,0.0,0.0,0.0,0.0,-3.6297,-3.6477,-3.5848,-3.5504,-3.5504,-3.5504,-3.5504,-3.5504,-3.5504,-3.5504,-3.5489,-3.51,-3.4397,0.0,0.0,0.0,0.0,-3.1511,-3.1511,-3.1511,-3.1511,-3.1511,-3.1511,-3.1511,-3.1511,-3.1511,-3.1511,-3.1511,-3.1511,-3.1511,-3.1032,-3.0387,-2.9786,-2.9606,-2.9472,-2.8786,-2.8113,-2.76,-2.76,-2.76,-2.76,-2.76,-2.76,-2.76,-2.76,-2.76,-2.727,-2.6123,-2.5749,-2.5356,-2.4579,-2.428,-2.4287,-2.4672,-2.441,-2.4158,-2.4158,-2.4158,-2.4158,-2.4158,-2.3445,-2.3129,-2.3485,-2.2166,-2.136,-2.1415,-2.1414,-2.1414,-2.1414,-2.1855,-2.2092,-2.2092,-2.2223,-2.2296,-2.2296,-2.2296,-2.2223,-2.2106,-2.2237,-2.2296,-3.6595,-3.761,-3.8513,-3.7677,-3.5971,-3.3994,-3.1988,-2.949,-2.7046,-2.5023,-2.4066,-2.3595,-2.3595,-2.361,-2.3834,-2.45,-2.5734,-2.729,-2.9337,-3.127,0.0,0.0,0.0,0.0,0.0,0.0,0.0,0.0,0.0,0.0,0.0,0.0,-3.5804,-3.6462,-3.5848,-3.5504,-3.5504,-3.5504,-3.5504,-3.5504,-3.5504,-3.5504,-3.5459,-3.4128,0.0,0.0,0.0,0.0,0.0,-3.1511,-3.1511,-3.1511,-3.1511,-3.1511,-3.1511,-3.1511,-3.1511,-3.1511,-3.1511,-3.1511,-3.1511,-3.1511,-3.1032,-3.0387,-2.9786,-2.9606,-2.9472,-2.8786,-2.8113,-2.76,-2.76,-2.76,-2.76,-2.76,-2.76,-2.76,-2.76,-2.76,-2.7405,-2.6707,-2.6048,-2.5382,-2.4709,-2.4044,-2.3595,-2.3616,-2.3616,-2.3595,-2.3595,-2.3595,-2.3595,-2.3595,-2.3062,-2.2812,-2.3078,-2.2482,-2.1793,-2.1055,-2.1023,-2.1023,-2.1023,-2.1384,-2.1613,-2.1613,-2.2061,-2.2296,-2.2296,-2.2296,-2.2046,-2.1628,-2.2092,-2.2296,-3.4656,-3.5641,-3.6412,-3.5243,-3.3681,-3.1914,-2.9983,-2.8173,-2.6467,-2.4918,-2.4066,-2.3595,-2.3595,-2.3595,-2.4118,-2.5719,-2.6318,-2.729,0.0,0.0,0.0,0.0,0.0,0.0,0.0,0.0,0.0,0.0,0.0,0.0,0.0,0.0,-3.5609,-3.5804,-3.5609,-3.5504,-3.5504,-3.5504,-3.5504,-3.5504,-3.5504,-3.525,-3.4786,-3.4399,0.0,0.0,0.0,0.0,0.0,-3.1511,-3.1511,-3.1511,-3.1511,-3.1511,-3.1511,-3.1511,-3.1511,-3.1511,-3.1511,-3.1511,-3.1511,-3.1511,-3.1361,-3.0972,-2.9909,-2.9292,-2.8771,-2.8124,-2.7764,-2.76,-2.76,-2.76,-2.76,-2.76,-2.76,-2.76,-2.76,-2.76,-2.7405,-2.6746,-2.6063,-2.5382,-2.4724,-2.4036,-2.3595,-2.3595,-2.3595,-2.3595,-2.3595,-2.3595,-2.3595,-2.3595,-2.3062,-2.2667,-2.2549,-2.1679,-2.0965,-2.0547,-2.0516,-2.0516,-2.0516,-2.0959,-2.1181,-2.1181,-2.1338,-2.14,-2.14,-2.14,-2.1338,-2.1197,-2.1613,-2.1675,-3.2367,-3.3341,-3.3973,-3.3126,-3.1847,-3.0342,-2.8607,-2.7186,-2.5839,-2.45,-2.3894,-2.3595,-2.3595,-2.3595,-2.4014,-2.5255,-2.5884,-2.6826,0.0,0.0,0.0,0.0,0.0,0.0,0.0,0.0,0.0,0.0,0.0,0.0,0.0,0.0,-3.5504,-3.5504,-3.5504,-3.5504,-3.5504,-3.5504,-3.5504,-3.5504,-3.5504,-3.5145,-3.4503,0.0,0.0,0.0,0.0,0.0,0.0,-3.1511,-3.1511,-3.1511,-3.1511,-3.1511,-3.1511,-3.1511,-3.1511,-3.1511,-3.1511,-3.1511,-3.1511,-3.1511,-3.1331,-3.0868,-2.9609,-2.8742,-2.8154,-2.772,-2.76,-2.76,-2.76,-2.76,-2.76,-2.76,-2.76,-2.76,-2.76,-2.76,-2.733,-2.6393,-2.5899,-2.5315,-2.438,-2.3879,-2.3595,-2.3595,-2.3595,-2.3595,-2.3595,-2.3595,-2.3595,-2.3595,-2.3251,-2.2866,-2.2487,-2.1616,-2.1001,-2.0846,-2.0834,-2.0834,-2.0834,-2.1245,-2.1487,-2.1487,-2.1673,-2.163,-2.1374,-2.094,-2.0829,-2.0991,-2.107,-2.107,0.0,-3.0629,-3.1137,-3.1092,-3.0193,-2.8992,-2.769,-2.6422,0.0,-2.3864,-2.3595,-2.361,-2.367,-2.3625,-2.3655,-2.3849,-2.4926,-2.6228,0.0,0.0,0.0,0.0,0.0,0.0,0.0,0.0,0.0,0.0,0.0,0.0,0.0,0.0,0.0,-3.5504,-3.5504,-3.5504,-3.5504,-3.5504,-3.5504,-3.5504,-3.5459,-3.507,-3.4414,0.0,0.0,0.0,0.0,0.0,0.0,-3.1511,-3.1511,-3.1511,-3.1511,-3.1511,-3.1511,-3.1511,-3.1511,-3.1511,-3.1511,-3.1511,-3.1511,-3.1511,-3.1032,-3.0268,-2.9041,-2.8188,-2.766,-2.76,-2.76,-2.76,-2.76,-2.76,-2.76,-2.76,-2.76,-2.76,-2.76,-2.76,-2.7225,-2.5929,-2.5621,-2.5196,-2.3894,-2.3625,-2.3595,-2.3595,-2.3595,-2.3595,-2.3595,-2.3595,-2.3595,-2.3595,-2.3595,-2.337,-2.2808,-2.2143,-2.1739,-2.1695,-2.1695,-2.1695,-2.1695,-2.206,-2.2259,-2.2259,-2.2684,-2.2605,-2.1991,-2.0871,-2.0544,-2.0974,-2.0514,-2.0516,-2.6632,0.0,-2.7634,-2.7101,-2.6767,-2.6333,0.0,-2.5053,-2.459,-2.3774,-2.3595,-2.3759,-2.4261,-2.3954,-2.4268,-2.6327,-2.6926,-2.7764,0.0,0.0,0.0,0.0,0.0,0.0,0.0,0.0,0.0,0.0,0.0,0.0,0.0,0.0,0.0,-3.5504,-3.5504,-3.5504,-3.5504,-3.5504,-3.5504,-3.5489,-3.4966,-3.4367,-3.3709,0.0,0.0,0.0,0.0,0.0,0.0,-3.1511,-3.1511,-3.1511,-3.1511,-3.1511,-3.1511,-3.1511,-3.1511,-3.1511,-3.1511,-3.1511,-3.1511,-3.1511,-3.1032,-3.0357,-2.9579,-2.8891,-2.8248,-2.775,-2.76,-2.76,-2.76,-2.76,-2.76,-2.76,-2.76,-2.76,-2.76,-2.76,-2.736,-2.6512,-2.5959,-2.5345,-2.4515,-2.3954,-2.3595,-2.3595,-2.3595,-2.3595,-2.3595,-2.3595,-2.3595,-2.3595,-2.3595,-2.3535,-2.3385,-2.2823,-2.2254,-2.1724,-2.1695,-2.1695,-2.1695,-2.1798,-2.1838,-2.1838,-2.1955,-2.1922,-2.1774,-2.0975,-2.0657,-2.0771,-2.0439,-2.0193,-2.5128,-2.6078,-2.6986,-2.6602,-2.6288,-2.5959,-2.5615,-2.4799,-2.4044,-2.367,-2.3595,-2.3714,-2.4066,-2.4096,-2.4619,-2.6393,-2.721,0.0,0.0,0.0,0.0,0.0,0.0,0.0,0.0,0.0,0.0,0.0,0.0,0.0,0.0,0.0,0.0,0.0,-3.5504,-3.5504,-3.5504,-3.5504,-3.5504,-3.5489,-3.4801,-3.4159,-3.3469,0.0,0.0,0.0,0.0,0.0,-3.1511,-3.1511,-3.1511,-3.1511,-3.1511,-3.1511,-3.1511,-3.1511,-3.1511,-3.1511,-3.1511,-3.1511,-3.1511,-3.1511,-3.1032,-3.0387,-2.9786,-2.9131,-2.8457,-2.7794,-2.76,-2.76,-2.76,-2.76,-2.76,-2.76,-2.76,-2.76,-2.76,-2.76,-2.7315,-2.6318,-2.5854,-2.53,-2.4306,-2.3849,-2.3595,-2.3595,-2.3595,-2.3595,-2.3595,-2.3595,-2.3595,-2.3595,-2.3595,-2.3595,-2.3595,-2.3295,-2.2972,-2.2592,-2.2562,-2.2562,-2.2562,-2.2562,-2.2562,-2.2562,-2.2313,-2.2164,-2.2164,-2.1186,-2.0703,-2.0692,-2.0228,-1.9909,-2.4575,-2.6063,-2.7495,-2.7091,-2.6641,-2.6258,-2.6153,-2.4822,-2.3595,-2.3595,-2.3595,-2.3655,-2.3864,-2.4365,0.0,0.0,0.0,0.0,0.0,0.0,0.0,0.0,0.0,0.0,0.0,0.0,0.0,0.0,0.0,0.0,0.0,0.0,0.0,0.0,-3.5504,-3.5504,-3.5504,-3.5504,-3.5504,-3.5489,-3.4711,-3.4038,-3.3469,-3.2706,0.0,0.0,0.0,0.0,-3.1511,-3.1511,-3.1511,-3.1511,-3.1511,-3.1511,-3.1511,-3.1511,-3.1511,-3.1511,-3.1511,-3.1511,-3.1481,-3.1376,-3.0957,-3.0372,-2.9654,-2.9041,-2.8457,-2.7794,-2.76,-2.76,-2.76,-2.76,-2.76,-2.76,-2.76,-2.76,-2.76,-2.76,-2.724,-2.5989,-2.5674,-2.5164,-2.3844,-2.3524,-2.3465,-2.3465,-2.3465,-2.3516,-2.3723,-2.367,-2.364,-2.3744,-2.3655,-2.3595,-2.3595,-2.3595,-2.3551,-2.3465,-2.3551,-2.3595,-2.3595,-2.3595,-2.3595,-2.3595,-2.3107,-2.2838,-2.2838,-2.15,-2.0838,-2.0838,-2.0154,-1.9839,-2.4455,-2.6063,-2.7046,-2.4762,-2.4567,-2.4754,-2.4193,-2.3819,-2.3595,-2.3595,-2.3595,-2.3954,-2.5091,-2.539,-2.6048,0.0,0.0,0.0,0.0,0.0,0.0,0.0,0.0,0.0,0.0,0.0,0.0,0.0,0.0,0.0,0.0,0.0,0.0,0.0,0.0,-3.5504,-3.5504,-3.5504,-3.5504,-3.5489,-3.4247,-3.3589,-3.3455,-3.2213,-3.16,0.0,0.0,0.0,-3.1511,-3.1511,-3.1511,-3.1511,-3.1511,-3.1511,-3.1511,-3.1511,-3.1511,-3.1511,-3.1511,-3.1511,-3.1406,-3.0851,-3.0597,-3.0283,-2.9101,-2.8682,-2.8457,-2.7794,-2.76,-2.76,-2.76,-2.76,-2.76,-2.76,-2.76,-2.76,-2.76,-2.76,-2.7375,-2.6587,-2.5989,-2.5182,-2.3912,-2.3215,-2.2844,-2.2844,-2.2844,-2.3228,-2.4298,-2.3947,-2.3819,-2.4395,-2.3939,-2.3595,-2.3595,-2.3595,-2.3377,-2.2875,-2.3334,-2.3595,-2.3595,-2.3595,-2.3595,-2.3595,-2.3505,-2.346,-2.3445,-2.2173,-2.1545,-2.153,-2.0872,-2.0557,-2.3056,-2.4208,-2.5144,-2.3909,-2.5196,-2.6602,-2.5899,-2.5196,-2.4687,-2.4687,-2.4687,-2.4881,-2.5495,0.0,-2.744,-2.9777,0.0,0.0,0.0,0.0,0.0,0.0,0.0,0.0,0.0,0.0,0.0,0.0,0.0,0.0,0.0,0.0,0.0,0.0,0.0,0.0,-3.5504,-3.513,-3.513,-3.5489,-3.4143,-3.3499,-3.344,-3.2108,-3.1511,0.0,0.0,-3.1087,-3.1467,-3.1029,-3.0837,-3.0896,-3.1322,-3.1219,-3.0896,-3.1351,-3.1511,-3.1438,-3.0999,-3.0632,-3.0308,-2.9957,-2.9414,-2.8781,-2.8194,-2.7756,-2.7325,-2.6594,-2.6993,-2.76,-2.76,-2.76,-2.76,-2.76,-2.7306,-2.7008,-2.7008,-2.668,-2.6115,-2.5178,-2.4722,-2.4108,-2.2847,-2.2353,-2.2273,-2.2601,-2.2372,-2.2503,-2.3402,-2.2962,-2.2826,-2.3501,-2.2967,-2.2719,-2.3076,-2.2778,-2.262,-2.2694,-2.262,-2.2733,-2.3098,-2.3098,-2.3268,-2.3595,-2.3595,-2.343,-2.3122,-2.2538,-2.2059,-2.168,-2.138,-2.1246,-2.2233,-2.2862,-2.3595,-2.3595,-2.5525,-2.741,-2.739,-2.6318,-2.551,-2.5974,-2.6063,-2.6063,0.0,-2.7165,0.0,-3.1331,0.0,0.0,0.0,0.0,0.0,0.0,0.0,0.0,0.0,0.0,0.0,0.0,0.0,0.0,0.0,0.0,0.0,0.0,0.0,0.0,-3.5265,-3.4773,-3.4773,-3.525,-3.3687,-3.2955,-3.291,-3.1738,-3.1117,-3.0896,-3.0494,-3.0644,-3.1161,-3.0329,-3.0103,-3.0329,-3.0748,-3.0644,-3.0359,-3.0777,-3.1029,-3.1087,-3.0269,-2.9613,-2.9085,-2.8882,-2.8083,-2.7211,-2.7054,-2.6641,-2.6122,-2.5563,-2.6215,-2.7071,-2.7071,-2.7214,-2.7306,-2.7137,-2.68,-2.6457,-2.6283,-2.5783,-2.5135,-2.4196,-2.3906,-2.3399,-2.2136,-2.1773,-2.1817,-2.2308,-2.1868,-2.1794,-2.2724,-2.2156,-2.1955,-2.2642,-2.2091,-2.1899,-2.2429,-2.1866,-2.17,-2.2221,-2.1913,-2.1922,-2.2452,-2.2475,-2.268,-2.315,-2.3297,-2.3162,-2.2702,-2.27,-2.2448,-2.1919,-2.1919,-2.1919,-2.331,-2.3535,-2.3595,-2.3595,-2.3774,-2.4433,-2.6267,-2.5621,-2.5187,-2.7076,-2.745,-2.745,0.0,-2.8558,-3.0103,0.0,0.0,0.0,0.0,0.0,0.0,0.0,0.0,0.0,0.0,0.0,0.0,0.0,0.0,0.0,0.0,0.0,0.0,0.0,0.0,0.0,-3.4593,-3.4533,-3.4533,-3.4532,-3.2372,-3.1358,-3.1329,-3.0693,-2.995,-2.9223,-2.9981,-3.0329,-3.0329,-2.9442,-2.9566,-3.0238,-2.9473,-2.9628,-3.0208,-2.9473,-2.969,-3.0269,-2.938,-2.8726,-2.8191,-2.7561,-2.6951,-2.637,-2.5744,-2.5522,-2.5481,-2.5398,-2.5481,-2.5563,-2.5563,-2.6068,-2.6404,-2.5728,-2.6041,-2.631,-2.5618,-2.5425,-2.537,-2.5287,-2.4763,-2.3944,-2.2724,-2.2022,-2.1614,-2.1679,-2.1215,-2.1506,-2.3305,-2.2456,-2.1955,-2.2623,-2.2104,-2.172,-2.1781,-2.121,-2.0894,-2.0919,-2.1414,-2.172,-2.1781,-2.1781,-2.1791,-2.1838,-2.2438,-2.2748,-2.2704,-2.2697,-2.2673,-2.2628,-2.2628,-2.2628,-2.1859,-2.2398,-2.3047,-2.3047,-2.364,-2.4634,-2.6228,-2.6512,-2.6916,-2.8528,-2.8843,-2.8843,0.0,0.0,0.0,0.0,0.0,0.0,0.0,0.0,0.0,0.0,0.0,0.0,0.0,0.0,0.0,0.0,0.0,0.0,0.0,0.0,0.0,0.0,0.0,0.0,0.0,-3.2932,-3.2447,-3.2447,-3.2162,-3.1729,-3.1164,-3.0573,-2.9827,-2.9002,-2.878,-2.9002,-2.9411,-2.8556,-2.8395,-2.8652,-2.833,-2.8716,-2.9442,-2.9129,-2.9223,-2.9324,-2.8103,-2.7337,-2.6775,-2.6106,-2.5544,-2.5049,-2.4805,-2.4709,-2.4624,-2.4105,-2.3959,-2.4179,-2.5147,-2.5618,-2.5755,-2.5481,-2.5259,-2.5063,-2.4794,-2.4323,-2.3871,-2.3548,-2.3271,-2.2849,-2.2056,-2.1705,-2.1652,-2.1982,-2.1575,-2.1607,-2.2656,-2.2084,-2.1681,-2.1961,-2.15,-2.0966,-2.0533,-2.0308,-2.0182,-2.0182,-2.0395,-2.072,-2.1113,-2.1137,-2.1318,-2.1697,-2.1946,-2.1698,-2.0962,-2.2141,-2.2308,-2.1624,-2.2736,-2.3251,-2.1201,-2.153,-2.2179,-2.2598,-2.3355,-2.4462,-2.6198,-2.7121,-2.8094,-2.9834,-2.9864,-2.9666,-2.9834,0.0,0.0,0.0,0.0,0.0,0.0,0.0,0.0,0.0,0.0,0.0,0.0,0.0,0.0,0.0,0.0,0.0,0.0,0.0,0.0,0.0,0.0,0.0,0.0,-3.1873,-3.1193,-3.1209,-3.1342,-3.0933,-3.008,-2.9655,-2.9034,-2.8182,-2.7855,-2.8051,-2.8524,-2.767,-2.7317,-2.7317,-2.7317,-2.7835,-2.8556,-2.8298,-2.8241,-2.8153,-2.6901,-2.6043,-2.5353,-2.4901,-2.4381,-2.3914,-2.3914,-2.3914,-2.3796,-2.3245,-2.3108,-2.3335,-2.441,-2.4866,-2.4979,-2.4724,-2.4481,-2.4234,-2.3972,-2.3484,-2.2995,-2.2606,-2.2543,-2.2397,-2.1845,-2.1744,-2.1882,-2.2246,-2.1845,-2.1681,-2.2234,-2.1832,-2.146,-2.1328,-2.0991,-2.0501,-1.9862,-1.9798,-1.9798,-1.9798,-1.9798,-2.0003,-2.0472,-2.0472,-2.0683,-2.1086,-2.1304,-2.1006,-2.0189,-2.1647,-2.2055,-2.1506,-2.2746,-2.3421,-2.1879,-2.1216,-2.1051,-2.2373,-2.2718,-2.3422,-2.6004,-2.7136,-2.8364,-3.0957,-3.0492,-2.9774,-3.0387,0.0,0.0,0.0,0.0,0.0,0.0,0.0,0.0,0.0,0.0,0.0,0.0,0.0,0.0,0.0,0.0,0.0,0.0,0.0,0.0,0.0,0.0,0.0,0.0,-3.1608,-3.1178,-3.1133,-2.9691,-2.8524,-2.7703,-2.7703,-2.7263,-2.6521,-2.7351,-2.7703,-2.7637,-2.685,-2.6499,-2.6499,-2.6499,-2.7007,-2.7571,-2.6782,-2.6647,-2.6769,-2.5904,-2.4883,-2.4004,-2.3991,-2.3602,-2.3108,-2.3108,-2.3108,-2.3108,-2.3108,-2.3108,-2.3108,-2.3108,-2.3679,-2.4089,-2.3275,-2.3708,-2.406,-2.3275,-2.3108,-2.3108,-2.3108,-2.3108,-2.2932,-2.241,-2.2322,-2.2322,-2.2322,-2.1857,-2.1707,-2.2246,-2.1832,-2.1307,-2.0754,-2.0691,-2.0465,-1.9849,-1.9798,-1.9798,-1.9798,-1.9798,-1.9798,-1.9798,-1.9798,-1.9798,-1.9798,-2.0446,-2.0795,-2.0795,-2.1376,-2.2016,-2.2672,-2.2694,-2.3009,-2.0685,-2.119,-2.2209,-2.2598,-2.4081,-2.5773,-2.7031,-2.7824,-2.8906,-3.1062,-3.0808,-3.0283,-3.0477,0.0,0.0,0.0,0.0,0.0,0.0,0.0,0.0,0.0,0.0,0.0,0.0,0.0,0.0,0.0,0.0,0.0,0.0,0.0,0.0,0.0,0.0,0.0,0.0,0.0,-2.9347,-2.8736,-2.7716,-2.7384,-2.7703,-2.7703,-2.7263,-2.6499,-2.6748,-2.685,-2.685,-2.6589,-2.6499,-2.6499,-2.6499,-2.6658,-2.6765,-2.6089,-2.5903,-2.5835,-2.4829,-2.4268,-2.3929,-2.3496,-2.3246,-2.3108,-2.3108,-2.3108,-2.3108,-2.3108,-2.3108,-2.3108,-2.3108,-2.3275,-2.3395,-2.3168,-2.3275,-2.3395,-2.3155,-2.3108,-2.3108,-2.3108,-2.3108,-2.3058,-2.2895,-2.2857,-2.2857,-2.2857,-2.2719,-2.2681,-2.2844,-2.238,-2.1857,-2.1333,-2.093,-2.0465,-1.9849,-1.9798,-1.9798,-1.9798,-1.9798,-1.9798,-1.9798,-1.9798,-1.9798,-1.9798,-2.0003,-1.9914,-1.9557,-2.0573,-2.0984,-2.0829,-2.1625,-2.2086,-2.1377,-2.2083,-2.3197,-2.3736,-2.5031,-2.6512,-2.7735,-2.8697,-2.9699,0.0,-3.0791,-3.0582,-3.0866,0.0,0.0,0.0,0.0,0.0,0.0,0.0,0.0,0.0,0.0,0.0,0.0,0.0,0.0,0.0,0.0,0.0,0.0,0.0,0.0,0.0,0.0,0.0,0.0,0.0,0.0,-2.7703,-2.6871,-2.6748,-2.7229,-2.7229,-2.6973,-2.6499,-2.6499,-2.6499,-2.6499,-2.6499,-2.6499,-2.6499,-2.6499,-2.6348,-2.6109,-2.5724,-2.5322,-2.487,-2.4217,-2.3853,-2.3572,-2.3221,-2.3108,-2.3108,-2.3108,-2.3108,-2.3108,-2.3108,-2.3108,-2.3108,-2.3108,-2.3108,-2.3108,-2.3108,-2.3108,-2.3108,-2.3108,-2.3108,-2.3108,-2.3108,-2.3108,-2.3108,-2.3108,-2.3108,-2.3108,-2.3108,-2.3108,-2.3108,-2.3108,-2.2819,-2.2393,-2.1882,-2.1358,-2.0792,-2.0214,-1.9936,-1.9798,-1.9798,-1.9798,-1.9798,-1.9798,-1.9798,-1.9798,-1.9798,-1.9798,-1.9648,-1.9309,-2.0053,-2.0377,-2.0329,-2.1024,-2.1472,-2.2948,-2.3376,-2.3974,-2.5196,-2.5659,-2.6258,-2.8083,-2.9445,-3.0342,-3.0417,0.0,-3.0702,0.0,0.0,0.0,0.0,0.0,0.0,0.0,0.0,0.0,0.0,0.0,0.0,0.0,0.0,0.0,0.0,0.0,0.0,0.0,0.0,0.0,0.0,0.0,0.0,0.0,0.0,0.0,0.0,-2.685,-2.6499,-2.6499,-2.6499,-2.6499,-2.6499,-2.6499,-2.6499,-2.6499,-2.6499,-2.6499,-2.6487,-2.6436,-2.6097,-2.5586,-2.5485,-2.4833,-2.3991,-2.3941,-2.3547,-2.3108,-2.3108,-2.3108,-2.3108,-2.3108,-2.3108,-2.3108,-2.3108,-2.3108,-2.3108,-2.3108,-2.3108,-2.3108,-2.3108,-2.3108,-2.3108,-2.3108,-2.3108,-2.3108,-2.3108,-2.3108,-2.3108,-2.3108,-2.3108,-2.3108,-2.3108,-2.3108,-2.3108,-2.3108,-2.3108,-2.2895,-2.2372,-2.1857,-2.1345,-2.0742,-2.0214,-1.9861,-1.9798,-1.9798,-1.9798,-1.9798,-1.9798,-1.9798,-1.9798,-1.9798,-1.9798,-1.9798,-1.9798,-2.0105,-2.0696,-2.0696,-2.0991,-2.1266,-2.2559,-2.4315,-2.4717,-2.6004,-2.7285,-2.772,-2.8427,-2.916,-2.9684,-3.0163,0.0,0.0,0.0,0.0,0.0,0.0,0.0,0.0,0.0,0.0,0.0,0.0,0.0,0.0,0.0,0.0,0.0,0.0,0.0,0.0,0.0,0.0,0.0,0.0,0.0,-2.8266,-2.8084,-2.7571,0.0,-2.6589,-2.6499,-2.6499,-2.6499,-2.6499,-2.6499,-2.6499,-2.6499,-2.6499,-2.6499,-2.6499,-2.6449,-2.5996,-2.5699,-2.5498,-2.4657,-2.4205,-2.3929,-2.3446,-2.3208,-2.3108,-2.3108,-2.3108,-2.3108,-2.3108,-2.3108,-2.3108,-2.3108,-2.3108,-2.3108,-2.3108,-2.3108,-2.3108,-2.3108,-2.3108,-2.3108,-2.3108,-2.3108,-2.3108,-2.3108,-2.3108,-2.3108,-2.3108,-2.3108,-2.3108,-2.3108,-2.3108,-2.3108,-2.3108,-2.3108,-2.2895,-2.2372,-2.2209,-2.1732,-2.0779,-2.0578,-2.0314,-1.9823,-1.9798,-1.9798,-1.9798,-1.9798,-1.9798,-1.9798,-1.9798,-1.9798,-1.9798,-1.9798,-1.9875,-2.0029,-2.0029,-2.0067,-2.1907,-2.3299,-2.4936,-2.574,-2.6775,-2.76,-2.76,-2.7869,-2.8229,-2.8573,0.0,0.0,0.0,0.0,0.0,0.0,0.0,0.0,0.0,0.0,0.0,0.0,0.0,0.0,0.0,0.0,0.0,0.0,0.0,0.0,0.0,0.0,0.0,0.0,0.0,0.0,-2.7703,-2.7703,-2.7141,-2.6084,-2.6361,-2.6348,-2.6084,-2.6361,-2.6499,-2.6499,-2.6499,-2.6499,-2.6499,-2.6499,-2.6499,-2.6436,-2.5858,-2.5435,-2.5121,-2.4305,-2.3828,-2.3509,-2.3208,-2.3108,-2.3108,-2.3108,-2.3108,-2.3108,-2.3108,-2.3108,-2.3108,-2.3108,-2.3108,-2.3108,-2.3108,-2.3108,-2.3108,-2.3108,-2.3108,-2.3108,-2.3108,-2.3108,-2.3108,-2.3108,-2.3108,-2.3108,-2.3108,-2.3108,-2.3108,-2.3108,-2.3108,-2.3108,-2.3108,-2.3108,-2.2995,-2.2706,-2.2443,-2.197,-2.1157,-2.0531,-2.0081,-1.981,-1.915,-1.89,-1.9254,-1.8927,-1.9097,-1.9798,-1.9798,-1.9798,-1.9798,-1.9798,-1.9798,-1.9798,-1.9798,-1.9798,-2.2744,-2.4031,-2.531,-2.6976,-2.7472,-2.7575,-2.7595,-2.76,-2.76,-2.76,0.0,0.0,0.0,0.0,0.0,0.0,0.0,0.0,0.0,0.0,0.0,0.0,0.0,0.0,0.0,0.0,0.0,0.0,0.0,0.0,0.0,0.0,0.0,0.0,0.0,-2.8214,-2.7517,-2.7484,-2.6865,-2.5598,-2.6021,-2.5959,-2.5473,-2.5996,-2.626,-2.6348,-2.6348,-2.6399,-2.6499,-2.6499,-2.6436,-2.6285,-2.5686,-2.5146,-2.4587,-2.4054,-2.3521,-2.3108,-2.3108,-2.3108,-2.3108,-2.3108,-2.3108,-2.3108,-2.3108,-2.3108,-2.3108,-2.3108,-2.3108,-2.3108,-2.3108,-2.3108,-2.3108,-2.3108,-2.3108,-2.3108,-2.3108,-2.3108,-2.3108,-2.3108,-2.3108,-2.3108,-2.3108,-2.3108,-2.3108,-2.3108,-2.3108,-2.3108,-2.3108,-2.3108,-2.3108,-2.3108,-2.2575,-2.1981,-2.1362,-2.0197,-1.9502,-1.9434,-1.8274,-1.7868,-1.8474,-1.7922,-1.8167,-1.9397,-1.9423,-1.9475,-1.9618,-1.9618,-1.9669,-1.9798,-1.9798,-1.9798,-2.1049,-2.259,-2.4599,-2.6829,-2.7411,-2.7454,0.0,0.0,-2.76,0.0,0.0,0.0,0.0,0.0,0.0,0.0,0.0,0.0,0.0,0.0,0.0,0.0,0.0,0.0,0.0,0.0,0.0,0.0,0.0,0.0,0.0,0.0,-2.7537,-2.685,-2.685,0.0,-2.6658,-2.6658,-2.6299,-2.5586,-2.5222,-2.4963,-2.4888,-2.5008,-2.5285,-2.5711,-2.5711,-2.6034,-2.6499,-2.6499,-2.6197,-2.5661,-2.5134,-2.4594,-2.4042,-2.3434,-2.317,-2.3108,-2.3108,-2.3108,-2.3108,-2.3108,-2.3108,-2.3108,-2.3108,-2.3108,-2.3108,-2.3108,-2.3108,-2.3108,-2.3108,-2.3108,-2.3108,-2.3108,-2.3108,-2.3108,-2.3108,-2.3108,-2.3108,-2.3108,-2.3108,-2.3108,-2.3108,-2.3108,-2.3108,-2.3108,-2.3108,-2.3108,-2.3108,-2.3108,-2.3108,-2.3108,-2.2415,-2.156,-2.0622,-1.9703,-1.8792,-1.7963,-1.7715,-1.7633,-1.7743,-1.766,-1.7677,-1.7907,-1.7907,-1.8205,-1.8847,-1.8847,-1.9176,-1.9798,-1.9798,-1.9798,-2.2312,-2.3647,-2.5036,-2.6961,-2.7153,-2.6964,-2.7398,-2.6965,-2.6701,0.0,0.0,0.0,0.0,0.0,0.0,0.0,0.0,0.0,0.0,0.0,0.0,0.0,0.0,0.0,0.0,0.0,0.0,0.0,0.0,0.0,0.0,-2.704,-2.6871,-2.6499,-2.6499,0.0,-2.6499,-2.6172,-2.5699,-2.5159,-2.4901,-2.4625,-2.4368,-2.465,-2.4946,-2.5159,-2.5159,-2.5473,-2.5984,-2.5661,-2.5561,-2.5511,-2.4682,-2.4217,-2.3929,-2.3321,-2.3108,-2.3108,-2.3108,-2.3108,-2.3108,-2.3108,-2.3108,-2.3108,-2.3108,-2.3108,-2.3108,-2.3108,-2.3108,-2.3108,-2.3108,-2.3108,-2.2987,-2.2537,-2.2445,-2.2279,-2.1803,-2.2082,-2.2445,-2.2445,-2.2793,-2.2944,-2.2506,-2.2793,-2.2944,-2.2506,-2.2823,-2.3108,-2.3108,-2.2702,-2.2445,-2.2445,-2.1678,-2.0864,-2.0067,-1.9058,-1.8348,-1.8008,-1.6977,-1.6557,-1.6978,-1.6585,-1.6358,-1.6358,-1.7191,-1.7759,-1.8085,-1.8501,-1.8661,-1.8581,-1.8992,-1.9176,-2.2758,-2.3853,-2.4681,-2.6219,-2.6485,-2.6493,0.0,0.0,0.0,0.0,0.0,0.0,0.0,0.0,0.0,0.0,0.0,0.0,0.0,0.0,0.0,0.0,0.0,0.0,0.0,0.0,0.0,0.0,0.0,0.0,-2.6499,-2.6499,-2.6499,-2.6499,-2.6499,-2.6499,-2.6499,-2.5749,-2.5209,-2.4788,-2.465,-2.4318,-2.3803,-2.4324,-2.4499,-2.4374,-2.4512,-2.4908,-2.5372,-2.4951,-2.4971,-2.5109,-2.4305,-2.3916,-2.3728,-2.3258,-2.3108,-2.3108,-2.3108,-2.3108,-2.3108,-2.3108,-2.3108,-2.3108,-2.3108,-2.3108,-2.3108,-2.3108,-2.3108,-2.3108,-2.3108,-2.2944,-2.2628,-2.2032,-2.1721,-2.1396,-2.0751,-2.1112,-2.1553,-2.1553,-2.2063,-2.2279,-2.1678,-2.2063,-2.2341,-2.1951,-2.2414,-2.2793,-2.2793,-2.2261,-2.1815,-2.1585,-2.0782,-2.0038,-1.9469,-1.8448,-1.783,-1.7752,-1.6382,-1.5751,-1.6208,-1.569,-1.541,-1.541,-1.6489,-1.7135,-1.733,-1.7868,-1.795,-1.7605,-1.8167,-1.8409,-2.0622,-2.1566,-2.2494,-2.3845,-2.5247,-2.6252,0.0,0.0,0.0,0.0,0.0,0.0,0.0,0.0,0.0,0.0,0.0,0.0,0.0,0.0,0.0,0.0,0.0,0.0,0.0,0.0,0.0,0.0,0.0,0.0,-2.6499,-2.6499,-2.6499,-2.6499,-2.6499,-2.6499,-2.6499,-2.5398,-2.4813,-2.4775,-2.4293,-2.374,-2.317,-2.3778,-2.374,-2.3221,-2.3803,-2.4356,-2.4825,-2.48,-2.4531,-2.4079,-2.4017,-2.3665,-2.3145,-2.3108,-2.3108,-2.3108,-2.3108,-2.3108,-2.3108,-2.3108,-2.3108,-2.3108,-2.3108,-2.3108,-2.3108,-2.3108,-2.3108,-2.3108,-2.3108,-2.2537,-2.1939,-2.1908,-2.127,-2.0655,-2.0623,-2.0623,-2.0655,-2.0655,-2.0687,-2.0719,-2.0655,-2.0687,-2.1005,-2.1784,-2.1939,-2.197,-2.197,-2.1939,-2.1585,-2.0751,-1.9879,-1.9175,-1.8701,-1.791,-1.7079,-1.6265,-1.6136,-1.587,-1.5478,-1.541,-1.541,-1.541,-1.5468,-1.5864,-1.6578,-1.6595,-1.695,-1.7605,-1.7633,-1.766,-1.9575,-2.0648,-2.174,-2.2716,-2.3939,-2.4979,-2.5349,0.0,0.0,0.0,0.0,0.0,0.0,0.0,0.0,0.0,0.0,0.0,0.0,0.0,0.0,0.0,0.0,0.0,0.0,0.0,0.0,0.0,0.0,0.0,-2.6499,-2.6499,-2.6499,-2.6499,-2.6499,-2.616,-2.5423,-2.4669,-2.4104,-2.371,-2.3916,-2.369,-2.312,-2.3728,-2.3678,-2.3108,-2.3321,-2.3735,-2.4268,-2.386,-2.381,-2.3966,-2.3559,-2.3283,-2.3108,-2.3108,-2.3108,-2.3108,-2.3108,-2.3108,-2.3108,-2.3108,-2.3108,-2.3108,-2.3108,-2.3108,-2.3108,-2.3108,-2.2732,-2.2322,-2.2322,-2.171,-2.091,-2.0365,-1.9562,-1.8921,-1.8921,-1.9824,-2.043,-1.9879,-2.0236,-2.043,-1.9846,-2.0236,-2.0526,-2.0268,-2.0719,-2.108,-2.108,-2.059,-2.0107,-1.9814,-1.8977,-1.8282,-1.7883,-1.757,-1.7034,-1.6153,-1.6095,-1.5899,-1.543,-1.541,-1.541,-1.541,-1.541,-1.5526,-1.5806,-1.6265,-1.6397,-1.6187,-1.6669,-1.6894,-1.8739,-1.9713,-2.0788,0.0,0.0,-2.3442,-2.4575,0.0,0.0,0.0,0.0,0.0,0.0,0.0,0.0,0.0,0.0,0.0,0.0,0.0,0.0,0.0,0.0,0.0,0.0,0.0,0.0,0.0,0.0,0.0,-2.6499,-2.6499,-2.6411,-2.621,-2.6197,-2.5737,-2.48,-2.428,-2.3803,-2.3396,-2.3816,-2.369,-2.312,-2.3728,-2.3678,-2.3108,-2.3108,-2.3321,-2.3678,-2.3258,-2.3333,-2.3665,-2.3258,-2.3108,-2.3078,-2.2793,-2.2884,-2.3078,-2.2793,-2.2702,-2.2702,-2.2702,-2.2506,-2.231,-2.2598,-2.2494,-2.231,-2.2598,-2.2094,-2.1459,-2.1459,-2.0814,-1.9944,-1.9077,-1.8428,-1.8008,-1.8008,-1.8911,-1.9562,-1.8977,-1.9332,-1.9529,-1.8944,-1.9332,-1.9628,-1.9332,-1.9781,-2.0171,-2.0171,-1.9661,-1.9177,-1.8877,-1.8337,-1.79,-1.7617,-1.7598,-1.7217,-1.6378,-1.6457,-1.6172,-1.5439,-1.5557,-1.5557,-1.541,-1.541,-1.541,-1.541,-1.5892,-1.5864,-1.541,-1.5892,-1.6265,0.0,0.0,0.0,0.0,0.0,0.0,0.0,0.0,0.0,0.0,0.0,0.0,0.0,0.0,0.0,0.0,0.0,0.0,0.0,0.0,0.0,0.0,0.0,0.0,0.0,0.0,0.0,0.0,0.0,-2.6499,-2.6499,-2.6474,-2.621,-2.5611,-2.5561,-2.531,-2.4775,-2.4255,-2.3966,-2.3966,-2.3966,-2.3678,-2.312,-2.3715,-2.3634,-2.3108,-2.3108,-2.3108,-2.3108,-2.3108,-2.3108,-2.3108,-2.3078,-2.3078,-2.2975,-2.2156,-2.2353,-2.2914,-2.2156,-2.1877,-2.1877,-2.1877,-2.1302,-2.0751,-2.1616,-2.127,-2.0782,-2.1616,-2.1227,-2.0558,-2.0526,-1.989,-1.9044,-1.8202,-1.8008,-1.8008,-1.8008,-1.8008,-1.8008,-1.8008,-1.8008,-1.8008,-1.8008,-1.8008,-1.8303,-1.9133,-1.9276,-1.9276,-1.9276,-1.9276,-1.8944,-1.8076,-1.8008,-1.8008,-1.7988,-1.8008,-1.7646,-1.6755,-1.7139,-1.6807,-1.5508,-1.5889,-1.5909,-1.5439,-1.543,-1.542,-1.541,-1.541,-1.541,-1.541,-1.541,-1.5777,-1.7385,0.0,0.0,0.0,0.0,0.0,0.0,0.0,0.0,0.0,0.0,0.0,0.0,0.0,0.0,0.0,0.0,0.0,0.0,0.0,0.0,0.0,0.0,0.0,0.0,0.0,0.0,0.0,0.0,-2.6499,-2.6499,-2.6097,-2.5762,-2.5598,-2.4845,-2.4368,-2.423,-2.3622,-2.3346,-2.3346,-2.3346,-2.3258,-2.3108,-2.3271,-2.3258,-2.3108,-2.3108,-2.3108,-2.3108,-2.3108,-2.3108,-2.3035,-2.2445,-2.223,-2.2125,-2.1259,-2.1101,-2.1353,-2.1753,-2.1491,-2.1069,-2.169,-2.1302,-2.0655,-2.0878,-2.0782,-2.0655,-2.0878,-2.0333,-1.9529,-1.8877,-1.8529,-1.8303,-1.8076,-1.8008,-1.8008,-1.8008,-1.8008,-1.8008,-1.8008,-1.8008,-1.8008,-1.8008,-1.8008,-1.8076,-1.8337,-1.8361,-1.8361,-1.8361,-1.8361,-1.8269,-1.8042,-1.8008,-1.7881,-1.7578,-1.7832,-1.7646,-1.6755,-1.7139,-1.708,-1.6365,-1.6484,-1.6338,-1.5919,-1.5919,-1.5723,-1.541,-1.541,-1.541,-1.541,-1.541,-1.5497,-1.7486,-1.8005,0.0,0.0,0.0,0.0,0.0,-2.1852,0.0,0.0,0.0,0.0,0.0,0.0,0.0,0.0,0.0,0.0,0.0,0.0,0.0,0.0,0.0,0.0,0.0,0.0,0.0,0.0,-2.6135,-2.6235,-2.6487,-2.5711,-2.5272,-2.5272,-2.4443,-2.3891,-2.364,-2.3283,-2.3108,-2.3108,-2.3108,-2.3108,-2.3108,-2.3108,-2.3108,-2.3108,-2.3108,-2.3108,-2.3078,-2.2732,-2.261,-2.2537,-2.2063,-2.169,-2.1239,-2.0365,-2.0301,-2.0623,-2.0751,-2.0494,-2.0139,-2.0655,-2.0236,-1.9584,-1.9944,-1.9814,-1.9595,-1.9955,-1.9431,-1.863,-1.8144,-1.8008,-1.8008,-1.8008,-1.8008,-1.8008,-1.8008,-1.8008,-1.8008,-1.8008,-1.8008,-1.8008,-1.8008,-1.8008,-1.8008,-1.8008,-1.8008,-1.8008,-1.8008,-1.8008,-1.8008,-1.8008,-1.8008,-1.791,-1.7666,-1.7871,-1.7725,-1.7041,-1.7412,-1.7373,-1.6726,-1.6882,-1.6797,-1.6357,-1.6193,-1.588,-1.541,-1.541,-1.541,-1.541,-1.541,-1.541,-1.8407,-1.8297,-1.8747,0.0,0.0,0.0,-2.1051,-2.1298,0.0,0.0,0.0,0.0,0.0,0.0,0.0,0.0,0.0,0.0,0.0,0.0,0.0,0.0,0.0,0.0,0.0,0.0,0.0,-2.5548,-2.5598,-2.5799,-2.6285,-2.5285,-2.47,-2.47,-2.4192,-2.3653,-2.3108,-2.3108,-2.3108,-2.3108,-2.3108,-2.3108,-2.3108,-2.3108,-2.3108,-2.3108,-2.3108,-2.3047,-2.2914,-2.2187,-2.1908,-2.1877,-2.169,-2.1144,-2.0365,-1.9464,-1.9661,-2.0204,-1.9529,-1.9233,-1.9177,-1.9266,-1.8721,-1.8134,-1.8911,-1.862,-1.8168,-1.8944,-1.8596,-1.8008,-1.8008,-1.8008,-1.8008,-1.8008,-1.8008,-1.8008,-1.8008,-1.8008,-1.8008,-1.8008,-1.8008,-1.8008,-1.8008,-1.8008,-1.8008,-1.8008,-1.8008,-1.8008,-1.8008,-1.8008,-1.8008,-1.8008,-1.8008,-1.8008,-1.8008,-1.8008,-1.7852,-1.7471,-1.7803,-1.7633,-1.6872,-1.7246,-1.7246,-1.6785,-1.6318,-1.588,-1.541,-1.541,-1.541,-1.541,-1.541,-1.541,-2.0976,-2.0834,-2.0635,-2.0484,0.0,0.0,0.0,-2.0232,0.0,0.0,0.0,0.0,0.0,0.0,0.0,0.0,0.0,0.0,0.0,0.0,0.0,0.0,0.0,0.0,0.0,0.0,-2.4556,-2.5523,-2.5598,-2.546,-2.5159,-2.4519,-2.4167,-2.4167,-2.3572,-2.3221,-2.3108,-2.3108,-2.3108,-2.3108,-2.3108,-2.3108,-2.3108,-2.3108,-2.3108,-2.3108,-2.3108,-2.2732,-2.2125,-2.197,-2.1908,-2.1753,-2.0365,-1.9683,-1.9464,-1.8596,-1.8361,-1.8596,-1.911,-1.8854,-1.8361,-1.9077,-1.8721,-1.8042,-1.8202,-1.8144,-1.8042,-1.8202,-1.8144,-1.8008,-1.8008,-1.8008,-1.8008,-1.8008,-1.8008,-1.8008,-1.8008,-1.8008,-1.8008,-1.8008,-1.8008,-1.8008,-1.8008,-1.8008,-1.8008,-1.8008,-1.8008,-1.8008,-1.8008,-1.8008,-1.8008,-1.8008,-1.8008,-1.8008,-1.8008,-1.8008,-1.7978,-1.7891,-1.7969,-1.793,-1.7764,-1.7842,-1.7686,-1.7266,-1.6506,-1.588,-1.541,-1.541,-1.541,-1.541,-1.541,-1.541,-2.1555,-2.1203,-2.0996,-2.0758,0.0,0.0,0.0,0.0,0.0,0.0,0.0,0.0,0.0,0.0,0.0,0.0,0.0,0.0,0.0,0.0,0.0,0.0,0.0,0.0,0.0,0.0,-2.3904,-2.4732,-2.4795,-2.4808,-2.4788,-2.3998,-2.3703,-2.3991,-2.3409,-2.3108,-2.3108,-2.3108,-2.3108,-2.3108,-2.3108,-2.3108,-2.3108,-2.3108,-2.2884,-2.2506,-2.2506,-2.2032,-2.1239,-2.0782,-2.059,-2.0526,-1.965,-1.9044,-1.8596,-1.8168,-1.8008,-1.8076,-1.8496,-1.8371,-1.8076,-1.8496,-1.8361,-1.8008,-1.8008,-1.8008,-1.8008,-1.8008,-1.8008,-1.8008,-1.8008,-1.8008,-1.8008,-1.8008,-1.8008,-1.8008,-1.8008,-1.8008,-1.8008,-1.8008,-1.8008,-1.8008,-1.8008,-1.8008,-1.8008,-1.8008,-1.8008,-1.8008,-1.8008,-1.8008,-1.8008,-1.8008,-1.8008,-1.8008,-1.8008,-1.8008,-1.8008,-1.8008,-1.8008,-1.8008,-1.8008,-1.8008,-1.7705,-1.707,-1.6151,-1.5588,-1.541,-1.541,-1.541,-1.541,-1.541,-1.541,0.0,0.0,0.0,0.0,0.0,-2.03,0.0,0.0,0.0,-2.1051,0.0,0.0,0.0,0.0,0.0,0.0,0.0,0.0,0.0,0.0,0.0,0.0,0.0,0.0,0.0,0.0,-2.3183,-2.3791,-2.374,-2.3916,-2.4437,-2.3597,-2.3321,-2.3816,-2.3346,-2.3108,-2.3108,-2.3108,-2.3108,-2.3108,-2.3108,-2.3005,-2.2884,-2.2884,-2.2414,-2.1647,-2.1647,-2.1175,-2.0301,-1.9595,-1.921,-1.9044,-1.9044,-1.862,-1.8008,-1.8008,-1.8008,-1.8008,-1.8008,-1.8008,-1.8008,-1.8008,-1.8008,-1.8008,-1.8008,-1.8008,-1.8008,-1.8008,-1.8008,-1.8008,-1.8008,-1.8008,-1.8008,-1.8008,-1.8008,-1.8008,-1.8008,-1.8008,-1.8008,-1.8008,-1.8008,-1.8008,-1.8008,-1.8008,-1.8008,-1.8008,-1.8008,-1.8008,-1.8008,-1.8008,-1.8008,-1.8008,-1.8008,-1.8008,-1.8008,-1.8008,-1.8008,-1.8008,-1.7828,-1.7725,-1.7725,-1.7545,-1.7044,-1.622,-1.5468,-1.5029,-1.4932,-1.4932,-1.5108,-1.541,-1.541,-1.541,0.0,0.0,0.0,0.0,-2.1164,0.0,0.0,0.0,-2.0,-1.9643,0.0,0.0,0.0,0.0,0.0,0.0,0.0,0.0,0.0,0.0,0.0,0.0,0.0,0.0,0.0,0.0,0.0,-2.3158,-2.2744,-2.2719,-2.3258,-2.317,-2.3133,-2.3195,-2.3145,-2.3108,-2.3108,-2.3108,-2.3108,-2.3108,-2.3108,-2.2732,-2.2044,-2.2044,-2.1553,-2.0751,-2.0751,-2.0236,-1.9431,-1.9332,-1.8854,-1.8144,-1.8144,-1.8076,-1.8008,-1.8008,-1.8008,-1.8008,-1.8008,-1.8008,-1.8008,-1.8008,-1.8008,-1.8008,-1.8008,-1.8008,-1.8008,-1.8008,-1.8008,-1.8008,-1.8008,-1.8008,-1.8008,-1.8008,-1.8008,-1.8008,-1.8008,-1.8008,-1.8008,-1.8008,-1.8008,-1.8008,-1.8008,-1.8008,-1.8008,-1.8008,-1.8008,-1.8008,-1.8008,-1.8008,-1.8008,-1.8008,-1.8008,-1.8008,-1.8008,-1.8008,-1.8008,-1.8008,-1.7207,-1.674,-1.674,-1.5974,-1.5171,-1.4394,-1.4279,-1.3919,-1.3274,-1.3274,-1.4004,-1.541,-1.541,-1.541,0.0,0.0,0.0,0.0,0.0,0.0,0.0,0.0,-1.938,0.0,0.0,0.0,0.0,0.0,0.0,0.0,0.0,0.0,0.0,0.0,0.0,0.0,0.0,0.0,0.0,0.0,0.0,0.0,0.0,-2.2071,-2.2594,-2.2932,-2.3108,-2.3108,-2.3108,-2.3108,-2.3108,-2.3108,-2.3108,-2.3108,-2.3108,-2.2671,-2.1908,-2.1908,-2.1144,-1.9846,-1.9846,-1.9365,-1.8563,-1.8563,-1.8337,-1.8008,-1.8008,-1.8008,-1.8008,-1.8008,-1.8008,-1.8008,-1.8008,-1.8008,-1.8008,-1.8008,-1.8008,-1.8008,-1.8008,-1.8008,-1.8008,-1.8008,-1.8008,-1.8008,-1.8008,-1.8008,-1.8008,-1.8008,-1.8008,-1.8008,-1.8008,-1.8008,-1.8008,-1.8008,-1.8008,-1.8008,-1.8008,-1.8008,-1.8008,-1.8008,-1.8008,-1.8008,-1.8008,-1.8008,-1.8008,-1.8008,-1.8008,-1.8008,-1.8008,-1.8008,-1.7759,-1.7207,-1.6324,-1.5799,-1.5799,-1.4843,-1.4328,-1.4336,-1.3794,-1.3524,-1.3508,-1.3327,-1.3594,-1.4232,-1.4072,-1.4273,-2.2926,0.0,0.0,0.0,0.0,0.0,0.0,0.0,0.0,0.0,0.0,0.0,0.0,0.0,0.0,0.0,0.0,0.0,0.0,0.0,0.0,0.0,0.0,0.0,0.0,0.0,0.0,0.0,0.0,0.0,-2.2259,-2.2656,-2.2945,-2.3095,-2.3108,-2.3108,-2.3108,-2.3108,-2.2975,-2.2763,-2.2763,-2.2218,-2.1207,-2.1207,-2.0365,-1.8944,-1.8944,-1.8596,-1.8008,-1.8008,-1.8008,-1.8008,-1.8008,-1.8008,-1.8008,-1.8008,-1.8008,-1.8008,-1.8008,-1.8008,-1.8008,-1.8008,-1.8008,-1.8008,-1.8008,-1.8008,-1.8008,-1.8008,-1.8008,-1.8008,-1.8008,-1.8008,-1.8008,-1.8008,-1.8008,-1.8008,-1.8008,-1.8008,-1.8008,-1.8008,-1.8008,-1.8008,-1.8008,-1.8008,-1.8008,-1.8008,-1.8008,-1.8008,-1.8008,-1.8008,-1.8008,-1.8008,-1.7759,-1.7613,-1.7613,-1.7613,-1.7217,-1.6289,-1.5332,-1.4665,-1.4414,-1.3702,-1.3445,-1.3766,-1.312,-1.293,-1.322,-1.2972,-1.2848,-1.284,-1.2936,-1.3304,0.0,0.0,0.0,-2.0619,0.0,0.0,0.0,0.0,-2.0325,0.0,0.0,0.0,0.0,0.0,0.0,0.0,0.0,0.0,0.0,0.0,0.0,0.0,0.0,0.0,0.0,0.0,0.0,0.0,0.0,0.0,-2.2196,-2.2334,-2.2556,-2.3083,-2.3108,-2.3108,-2.3108,-2.3108,-2.2689,-2.1939,-2.1939,-2.1037,-1.9365,-1.9365,-1.8877,-1.8042,-1.8042,-1.8042,-1.8008,-1.8008,-1.8008,-1.8008,-1.8008,-1.8008,-1.8008,-1.8008,-1.8008,-1.8008,-1.8008,-1.8008,-1.8008,-1.8008,-1.8008,-1.8008,-1.8008,-1.8008,-1.8008,-1.8008,-1.8008,-1.8008,-1.8008,-1.8008,-1.8008,-1.8008,-1.8008,-1.8008,-1.8008,-1.8008,-1.8008,-1.8008,-1.8008,-1.8008,-1.8008,-1.8008,-1.8008,-1.8008,-1.8008,-1.8008,-1.8008,-1.8008,-1.8008,-1.8008,-1.7182,-1.6636,-1.6636,-1.6636,-1.6245,-1.5305,-1.4314,-1.3346,-1.2445,-1.2372,-1.2237,-1.1977,-1.1942,-1.1794,-1.1491,-1.1485,-1.1444,-1.1499,-1.2522,-1.3009,0.0,0.0,-2.4323,-2.2076,0.0,0.0,0.0,0.0,0.0,0.0,0.0,0.0,0.0,0.0,0.0,0.0,0.0,0.0,0.0,0.0,0.0,0.0,0.0,0.0,0.0,0.0,0.0,0.0,0.0,0.0,0.0,-2.2122,-2.2397,-2.2556,-2.2907,-2.3108,-2.3108,-2.2567,-2.2168,-2.1877,-2.1333,-2.043,-1.9299,-1.9299,-1.8821,-1.8008,-1.8008,-1.8008,-1.8008,-1.8008,-1.8008,-1.8008,-1.8008,-1.8008,-1.8008,-1.8008,-1.8008,-1.8008,-1.8008,-1.8008,-1.8008,-1.8008,-1.8008,-1.8008,-1.8008,-1.8008,-1.8008,-1.8008,-1.8008,-1.8008,-1.8008,-1.8008,-1.8008,-1.8008,-1.8008,-1.8008,-1.8008,-1.8008,-1.7828,-1.7182,-1.707,-1.707,-1.707,-1.707,-1.7285,-1.7906,-1.8008,-1.8008,-1.8008,-1.8008,-1.7759,-1.7139,-1.6784,-1.6358,-1.5728,-1.5048,-1.4557,-1.4243,-1.331,-1.2629,-1.2298,-1.2305,-1.2258,-1.2158,-1.2151,-1.2104,-1.2004,-1.181,-1.1717,-1.1745,-1.1877,-1.2115,-2.4321,-2.4831,0.0,0.0,-2.2499,0.0,-2.0175,0.0,0.0,0.0,0.0,0.0,0.0,0.0,0.0,0.0,0.0,0.0,0.0,0.0,0.0,0.0,0.0,0.0,0.0,0.0,-2.0112,-2.0125,0.0,0.0,0.0,0.0,-2.2108,-2.2297,-2.2819,-2.3108,-2.3108,-2.2292,-2.1753,-2.1428,-2.0558,-1.9694,-1.8854,-1.8854,-1.8529,-1.8008,-1.8008,-1.8008,-1.8008,-1.8008,-1.8008,-1.8008,-1.8008,-1.8008,-1.8008,-1.8008,-1.8008,-1.8008,-1.8008,-1.8008,-1.8008,-1.8008,-1.8008,-1.8008,-1.8008,-1.8008,-1.8008,-1.8008,-1.8008,-1.8008,-1.8008,-1.8008,-1.8008,-1.8008,-1.8008,-1.7906,-1.7569,-1.7501,-1.7217,-1.6289,-1.6105,-1.6105,-1.6105,-1.6384,-1.6922,-1.7862,-1.7716,-1.7501,-1.7501,-1.7226,-1.6759,-1.6184,-1.579,-1.5332,-1.4736,-1.3774,-1.3346,-1.3673,-1.2806,-1.2305,-1.2305,-1.2305,-1.2305,-1.2305,-1.2305,-1.2305,-1.2305,-1.2118,-1.2024,-1.2017,-1.1717,-1.169]},{"header":{"parameterUnit":"m.s-1","parameterCategory":1,"la1":30.6,"la2":29.2853,"lo1":-89.7004,"lo2":-87.6739,"dy":0.0162,"dx":0.0183,"nx":112,"ny":82,"refTime":"2026-05-15T00:00:00:Z","depth":0,"parameterNumber":3,"parameterNumberName":"V-component_of_WINDS"},"data":[0.0,0.0,0.0,0.0,0.0,0.0,0.0,0.0,0.0,0.0,0.0,0.0,0.0,0.0,0.0,0.0,0.0,0.0,0.0,0.0,0.0,0.0,0.0,0.0,0.0,0.0,0.0,0.0,0.0,0.0,0.0,0.0,0.0,0.0,0.0,0.0,0.0,0.0,0.0,0.0,0.0,0.0,0.0,0.0,0.0,0.0,0.0,0.0,0.0,0.0,0.0,0.0,0.0,0.0,0.0,0.0,0.0,0.0,0.0,0.0,0.0,0.0,0.0,0.0,0.0,0.0,0.0,0.0,0.0,0.0,0.0,0.0,0.0,0.0,0.0,0.0,0.0,0.0,0.0,0.0,0.0,0.0,0.0,0.0,0.0,0.0,0.0,0.0,0.0,0.0,0.0,0.0,0.0,0.0,0.0,0.0,-0.0312,-0.1068,0.0,0.0,0.0,0.0,0.0,0.0,0.0,0.0,0.0,0.0,0.0,0.0,0.0,0.0,0.0,0.0,0.0,0.0,0.0,0.0,0.0,0.0,0.0,0.0,0.0,0.0,0.0,0.0,0.0,0.0,0.0,0.0,0.0,0.0,0.0,0.0,0.0,0.0,0.0,0.0,0.0,0.0,0.0,0.0,0.0,0.0,0.0,0.0,0.0,0.0,0.0,0.0,0.0,0.0,0.0,0.0,0.0,0.0,0.0,0.0,0.0,0.0,0.0,0.0,0.0,0.0,0.0,0.0,0.0,0.0,0.0,0.0,0.0,0.0,0.0,0.0,0.0,0.0,0.0,0.0,0.0,0.0,0.0,0.0,0.0,0.0,0.0,0.0,0.0,0.0,0.0,0.0,0.0,0.0,0.0,0.0,0.0,0.0,0.0,0.0,0.0,0.0,0.0,0.0,0.0,0.0,0.0,0.0,0.0,0.0,-0.0302,-0.1066,0.0,0.0,0.0,0.0,0.0,0.0,0.0,0.0,0.0,0.0,0.0,0.0,0.0,0.0,0.0,0.0,0.0,0.0,0.0,0.0,0.0,0.0,0.0,0.0,0.0,0.0,0.0,0.0,0.0,0.0,0.0,0.0,0.0,0.0,0.0,0.0,0.0,0.0,0.0,0.0,0.0,0.0,0.0,0.0,0.0,0.0,0.0,0.0,0.0,0.0,0.0,0.0,0.0,0.0,0.0,0.0,0.0,0.0,0.0,0.0,0.0,0.0,0.0,0.0,0.0,0.0,0.0,0.0,0.0,0.0,0.0,0.0,0.0,0.0,0.0,0.0,0.0,0.0,0.0,0.0,0.0,0.0,0.0,0.0,0.0,0.0,0.0,0.0,0.0,0.0,0.0,0.0,0.0,0.0,0.0,0.0,0.0,0.0,0.0,0.0,0.0,0.0,0.0,0.0,0.0,0.0,0.0,0.0,0.0,0.0,-0.0126,-0.0486,-0.0441,0.0,0.0,0.0,0.0,0.0,0.0,0.0,0.0,0.0,0.0,0.0,0.0,0.0,0.0,0.0,0.0,0.0,0.0,0.0,0.0,0.0,0.0,0.0,0.0,0.0,0.0,0.0,0.0,0.0,0.0,0.0,0.0,0.0,0.0,0.0,0.0,0.0,0.0,0.0,0.0,0.0,0.0,0.0,0.0,0.0,0.0,0.0,0.0,0.0,0.0,0.0,0.0,0.0,0.0,0.0,0.0,0.0,0.0,0.0,0.0,0.0,0.0,0.0,0.0,0.0,0.0,0.0,0.0,0.0,0.0,0.0,0.0,0.0,0.0,0.0,0.0,0.0,0.0,0.0,0.0,0.0,0.0,0.0,0.0,0.0,0.0,0.0,0.0,0.0,0.0,0.0,0.0,0.0,0.0,0.0,0.0,0.0,0.0,0.0,0.0,0.0,0.0,0.0,0.0,0.0,0.0,0.0,0.0,0.0,0.0,0.0,0.0,0.0,0.0,0.0,0.0,0.0,0.0,0.0,0.0,0.0,0.0,0.0,0.0,0.0,0.0,0.0,0.0,0.0,0.0,0.0,0.0,0.0,0.0,0.0,0.0,0.0,0.0,0.0,0.0,0.0,0.0,0.0,0.0,0.0,0.0,0.0,0.0,0.0,0.0,0.0,0.0,0.0,0.0,0.0,0.0,0.0,0.0,0.0,0.0,0.0,0.0,0.0,0.0,0.0,0.0,0.0,0.0,0.0,0.0,0.0,0.0,0.0,0.0,0.0,0.0,0.0,0.0,0.0,0.0,0.0,0.0,0.0,0.0,0.0,0.0,0.0,0.0,0.0,0.0,0.0,0.0,0.0,0.0,0.0,0.0,0.0,0.0,0.0,0.0,0.0,0.0,0.0,0.0,0.0,0.0,0.0,0.0,0.0,0.0,0.0,0.0,0.0,0.0,0.0,0.0,0.0,0.0,0.0,0.0,0.0,0.0,0.0,0.0,0.0,0.0,0.0,0.0,0.0,0.0,0.0,0.0,0.0,0.0,0.0,0.0,0.0,0.0,0.0,0.0,0.0,0.0,0.0,0.0,0.0,0.0,0.0,0.0,0.0,0.0,0.0,0.0,0.0,0.0,0.0,0.0,0.0,0.0,0.0,0.0,0.0,0.0,0.0,0.0,0.0,0.0,0.0,0.0,0.0,0.0,0.0,0.0,0.0,0.0,0.0,0.0,0.0,0.0,0.0,0.0,0.0,0.0,0.0,0.0,0.0,0.0,0.0,0.0,0.0,0.0,0.0,0.0,0.0,0.0,0.0,0.0,0.0,0.0,0.0,0.0,0.0,0.0,0.0,0.0,0.0,0.0,0.0,0.0,0.0,0.0,0.0,0.0,0.0,0.0,0.0,0.0,0.0,0.0,0.0,0.0,0.0,0.0,0.0,0.0,0.0,0.0,0.0,0.0,0.0,0.0,0.0,0.0,0.0501,0.0573,0.0034,0.0,0.0,0.0,0.0,0.0,0.0,0.0,0.0,0.0,0.0,0.0,0.0,0.0,0.0,0.0,0.0,0.0,0.0,0.0,0.0,0.0,0.0,0.0,0.0,0.0,0.0,0.0,0.0,0.0,0.0,0.0,0.0,0.0,0.0,0.0,0.0,0.0,0.0,0.0,0.0,0.0,0.0,0.0,0.0,0.0,0.0,0.0,0.0,0.0,0.0,0.0,0.0,0.0,0.0,0.0,0.0,0.0,0.0,0.0,0.0,0.0,0.0,0.0,0.0,0.0,0.0,0.0,0.0,0.0,0.0,0.0,0.0,0.0,0.0,0.0,0.0,0.0,0.0,0.0,0.0,0.0,0.0,0.0,0.0,0.0,0.0,0.0,0.0,0.0,0.0,0.0,0.0,0.0,0.0,0.0,0.0,0.0,0.0,0.0,0.0,0.0,0.0,0.0,0.0,0.0,0.0,0.0308,0.0526,0.0523,0.129,0.1435,0.0568,0.0,0.0,0.0,0.0,0.0,0.0,0.0,0.0,0.0,0.0,0.0,0.0,0.0,0.0,0.0,0.0,0.0,0.0,0.0,0.0,0.0,0.0,0.0,0.0,0.0,0.0,0.0,0.0,0.0,0.0,0.0,0.0,0.0,0.0,0.0,0.0,0.0,0.0,0.0,0.0,0.0,0.0,0.0,0.0,0.0,0.0,0.0,0.0,0.0,0.0,0.0,0.0,0.0,0.0,0.0,0.0,0.0,0.0,0.0,0.0,0.0,0.0,0.0,0.0,0.0,0.0,0.0,0.0,0.0,0.0,0.0,0.0,0.0,0.0,0.0,0.0,0.0,0.0,0.0,0.0,0.0,0.0,0.0,0.0,0.0,0.0,0.0,0.0,0.0,0.0,0.0,0.0,0.0,0.0,0.0,0.0,0.0,0.0,0.0,0.0,0.0,0.0,0.0,0.0,0.0,0.0,0.0965,0.162,0.1626,0.2429,0.2527,0.0,0.0,0.0,0.0,0.0,0.0,0.0,0.0,0.0,0.0,0.0,0.0,0.0,0.0,0.0,0.0,0.0,0.0,0.0,0.0,0.0,0.0,0.0,0.0,0.0,0.0,0.0,0.0,0.0,0.0,0.0,0.0,0.0,0.0,0.0,0.0,0.0,0.0,0.0,0.0,0.0,0.0,0.0,0.0,0.0,0.0,0.0,0.0,0.0,0.0,0.0,0.0,0.0,0.0,0.0,0.0,0.0,0.0,0.0,0.0,0.0,0.0,0.0,0.0,0.0,0.0,0.0,0.0,0.0,0.0,0.0,0.0,0.0,0.0,0.0,0.0,0.0,0.0,0.0,0.0,0.0,0.0,0.0,0.0,0.0,0.0,0.0,0.0,0.0,0.0,0.0,0.0,0.0,0.0,0.0,0.0,0.0,0.0,0.0,0.0,0.0,0.0,0.0,0.0,0.0,0.028,0.1065,0.1394,0.1867,0.2458,0.3304,0.3316,0.2096,0.0,0.0,0.0,0.0,0.0,0.0,0.0,0.0,0.0,0.0,0.0,0.0,0.0,0.0,0.0,0.0,0.0,0.0,0.0,0.0,0.0,0.0,0.0,0.0,0.0,0.0,0.0,0.0,0.0,0.0,0.0,0.0,0.0,0.0,0.0,0.0,0.0,0.0,0.0,0.0,0.0,0.0,0.0,0.0,0.0,0.0,0.0,0.0,0.0,0.0,0.0,0.0,0.0,0.0,0.0,0.0,0.0,0.0,0.0,0.0,0.0,0.0,0.0,0.0,0.0,0.0,0.0,0.0,0.0,0.0,0.0,0.0,0.0,0.0,0.0,0.0,0.0,0.0,0.0,0.0,0.0,0.0,0.0,0.0,0.0,0.0,0.0,0.0,0.0,0.0,0.0,0.0,0.0,0.0,0.0,0.0,0.0,0.0,0.0,0.0,0.0,0.0,0.0641,0.0956,0.1442,0.2114,0.2599,0.3007,0.3513,0.4345,0.4251,0.293,0.0,0.0,0.0,0.0,0.0,0.0,0.0,0.0,0.0,0.0,0.0,0.0,0.0,0.0,0.0,0.0,0.0,0.0,0.0,0.0,0.0,0.0,0.0,0.0,0.0,0.0,0.0,0.0,0.0,0.0,0.0,0.0,0.0,0.0,0.0,0.0,0.0,0.0,0.0,0.0,0.0,0.0,0.0,0.0,0.0,0.0,0.0,0.0,0.0,0.0,0.0,0.0,0.0,0.0,0.0,0.0,0.0,0.0,0.0,0.0,0.0,0.0,0.0,0.0,0.0,0.0,0.0,0.0,0.0,0.0,0.0,0.0,0.0,0.0,0.0,0.0,0.0,0.0,0.0,0.0,0.0,0.0,0.0,0.0,0.0,0.0,0.0,0.0,0.0,0.0,0.0,0.0,0.0,0.0,0.0,0.0,0.0,0.0,0.0,0.0,0.0,0.0,0.1545,0.232,0.2989,0.3221,0.4078,0.4653,0.4622,0.5352,0.523,0.3968,0.0,0.0,0.0,0.0,0.0,0.0,0.0,0.0,0.0,0.0,0.0,0.0,0.0,0.0,0.0,0.0,0.0,0.0,0.0,0.0,0.0,0.0,0.0,0.0,0.0,0.0,0.0,0.0,0.0,0.0,0.0,0.0,0.0,0.0,0.0,0.0,0.0,0.0,0.0,0.0,0.0,0.0,0.0,0.0,0.0,0.0,0.0,0.0,0.0,0.0,0.0,0.0,0.0,0.0,0.0,0.0,0.0,0.0,0.0,0.0,0.8824,0.0,0.0,0.0,0.0,0.0,0.0,0.0,0.0,0.0,0.0,0.0,0.0,0.0,0.0,0.0,0.0,0.0,0.0,0.0,0.0,0.0,0.0,0.0,0.0,0.0,0.0,0.0,0.0,0.0,0.0,0.0,0.0,0.0,0.0,0.0,0.0,0.0,0.0,0.0,0.0,0.0,0.1348,0.2183,0.3107,0.4115,0.4252,0.4638,0.5449,0.5609,0.5332,0.4552,0.0,0.0,0.0,0.0,0.0,0.0,0.0,0.0,0.0,0.0,0.0,0.0,0.0,0.0,0.0,0.0,0.0,0.0,0.0,0.0,0.0,0.0,0.0,0.0,0.0,0.0,0.0,0.0,0.0,0.0,0.0,0.0,0.0,0.0,0.0,0.0,0.0,0.0,0.0,0.0,0.0,0.0,0.0,0.0,0.0,0.0,0.0,0.0,0.0,0.0,0.0,0.0,0.0,0.0,0.0,0.0,0.0,0.0,0.0,0.0,0.0,0.988,0.0,0.0,0.0,0.0,0.0,0.0,0.0,0.0,0.0,0.0,0.0,0.0,0.0,0.0,0.0,0.0,0.0,0.0,0.0,0.0,0.0,0.0,0.0,0.0,0.0,0.0,0.0,0.0,0.0,0.0,0.0,0.0,0.0,0.0,0.0,0.0,0.0,0.0,0.0,0.0,0.2087,0.3257,0.4355,0.5045,0.5044,0.5161,0.5669,0.5566,0.5286,0.4724,0.4385,0.0,0.0,0.0,0.0,0.0,0.0,0.0,0.0,0.0,0.0,0.0,0.0,0.0,0.0,0.0,0.0,0.0,0.0,0.0,0.0,0.0,0.0,0.0,0.0,0.0,0.0,0.0,0.0,0.0,0.0,0.0,0.0,0.0,0.0,0.0,0.0,0.0,0.0,0.0,0.0,0.0,0.0,0.0,0.0,0.0,0.0,0.0,0.0,0.0,0.0,0.0,0.0,0.0,0.0,0.0,1.3527,1.372,1.3833,1.378,1.2832,1.2328,1.2015,0.0,0.0,0.0,0.0,0.0,0.0,0.0,0.0,0.0,0.0,0.0,0.0,0.0,0.0,0.0,0.0,0.0,0.0,0.0,0.0,0.0,0.0,0.0,0.0,0.0,0.7664,0.7123,0.0,0.0,0.0,0.0,0.0,0.0,0.0,0.0,0.0,0.0,0.0,0.0,0.3074,0.4514,0.5606,0.5749,0.5715,0.5647,0.5559,0.5419,0.5146,0.4714,0.4409,0.3926,0.0,0.0,0.0,0.0,0.0,0.0,0.0,0.0,0.0,0.0,0.0,0.0,0.0,0.0,0.0,0.0,0.0,0.0,0.0,0.0,0.0,0.0,0.0,0.0,0.0,0.0,0.0,0.0,0.0,0.0,0.0,0.0,1.774,1.7687,0.0,0.0,0.0,0.0,0.0,0.0,0.0,0.0,0.0,0.0,0.0,0.0,0.0,0.0,1.7085,1.6333,1.5965,1.6053,1.5388,1.494,1.478,1.4821,1.4834,1.4827,1.4666,0.0,1.2966,1.2032,0.0,0.0,0.0,0.0,0.0,0.0,0.0,0.0,0.0,0.0,0.0,0.0,0.0,0.0,0.0,0.0,0.0,0.0,0.0,0.0,0.0,0.0,0.8289,0.8264,0.7731,0.6988,0.0,0.5455,0.482,0.4355,0.0,0.0,0.0,0.0,0.0,0.0,0.0,0.0,0.3661,0.4719,0.5484,0.5603,0.5379,0.5264,0.5416,0.5138,0.4894,0.4704,0.4556,0.4324,0.4036,0.3698,0.0,0.0,0.0,0.0,0.0,0.0,0.0,0.0,0.0,0.0,0.0,0.0,0.0,0.0,0.0,0.0,0.0,0.0,0.0,0.0,0.0,0.0,0.0,0.0,0.0,0.0,0.0,0.0,0.0,1.8115,1.8994,1.876,1.8564,1.8003,0.0,0.0,0.0,0.0,0.0,0.0,0.0,0.0,0.0,1.899,1.9017,1.9416,2.0199,1.9817,1.9338,1.8767,1.8616,1.7816,1.6543,1.6543,1.613,1.5438,1.5277,1.5298,1.5305,1.3565,1.2783,1.2505,0.0,0.0,0.0,0.0,0.0,0.0,1.0432,0.0,0.0,0.0,0.0,0.0,0.0,0.0,0.0,0.0,0.0,0.0,0.0,0.0,0.0,0.9837,0.9682,0.9378,0.8879,0.8049,0.6986,0.0,0.5238,0.4804,0.3905,0.0,0.0,0.0,0.0,0.0,0.3816,0.4631,0.5257,0.5325,0.5106,0.5009,0.5108,0.4914,0.4762,0.4694,0.4576,0.4399,0.42,0.3894,0.3439,0.0,0.0,0.0,0.0,0.0,0.0,0.0,0.0,0.0,0.0,0.0,0.0,0.0,0.0,0.0,0.0,0.0,0.0,0.0,0.0,0.0,0.0,0.0,0.0,0.0,0.0,0.0,0.0,1.917,2.0137,1.9824,1.9883,1.957,0.0,0.0,0.0,0.0,0.0,0.0,1.9416,2.0176,2.0937,2.1824,2.1853,2.2246,2.2988,2.2578,2.1936,2.1022,2.0891,1.9898,1.8141,1.8141,1.763,1.6734,1.6554,1.7069,1.7898,1.5232,1.4363,1.4591,1.3092,1.2193,0.0,1.2046,1.1957,1.1837,1.2358,1.2432,1.2204,1.163,0.0,1.0591,0.95,0.0,0.0,0.0,0.0,0.8893,1.0111,0.0,1.0855,1.1161,1.1153,1.0944,1.0484,0.9699,0.8625,0.0,0.6876,0.6661,0.5707,0.0,0.0,0.0,0.0,0.4447,0.418,0.4714,0.51,0.51,0.4938,0.486,0.486,0.4721,0.4662,0.4662,0.4518,0.4358,0.42,0.393,0.3582,0.3081,0.0,0.0,0.0,0.0,0.0,0.0,0.0,0.0,0.0,0.0,0.0,0.0,0.0,0.0,0.0,0.0,0.0,0.0,0.0,0.0,0.0,0.0,0.0,0.0,0.0,0.0,0.0,0.0,0.0,2.1103,2.1504,0.0,0.0,0.0,0.0,1.9756,2.0215,2.0869,2.168,2.2139,2.2773,2.3633,2.3662,2.3877,2.4316,2.2805,2.2007,2.1916,2.034,1.9542,1.9405,1.9405,1.936,1.9306,1.9289,1.976,2.027,1.6962,1.6146,1.6766,1.4963,1.405,1.3672,1.2992,1.273,1.2764,1.3053,1.2786,1.2345,1.2616,1.2114,1.1342,1.1261,1.039,0.0,0.0,1.0331,1.0129,1.1453,1.1795,1.1844,1.1866,1.0981,1.0099,0.9791,0.9498,0.92,0.0,0.8113,0.7296,0.6798,0.0,0.0,0.5402,0.4981,0.4782,0.5008,0.5058,0.51,0.51,0.4874,0.4704,0.4704,0.459,0.4501,0.4501,0.4311,0.4204,0.4197,0.393,0.3724,0.3559,0.3363,0.0,0.0,0.0,0.0,0.0,0.0,0.0,0.0,0.0,0.0,0.0,0.0,0.0,0.0,0.0,0.0,0.0,0.0,0.0,0.0,0.0,0.0,0.0,0.0,0.0,0.0,0.0,0.0,2.2471,2.2852,0.0,0.0,2.1455,2.1426,2.1572,2.2246,2.2773,2.3096,2.3506,2.4004,2.4636,2.4336,2.4394,2.4834,2.3978,2.3395,2.3138,2.2561,2.1699,2.0666,2.0666,2.0215,1.9497,1.9497,2.0093,2.0987,1.9531,1.8825,1.8544,1.6915,1.5686,1.4802,1.4703,1.4111,1.334,1.3407,1.3307,1.3047,1.2612,1.2245,1.1917,1.1502,1.1238,1.1108,1.1489,1.1508,1.1556,1.2018,1.2144,1.2098,1.1946,1.1392,1.0859,1.0584,1.0335,1.011,1.0039,0.9567,0.8955,0.8206,0.7806,0.7306,0.6455,0.6514,0.653,0.6299,0.6009,0.5734,0.5564,0.5342,0.5039,0.4597,0.4837,0.4824,0.4324,0.4156,0.4075,0.4075,0.39,0.3768,0.374,0.3498,0.3135,0.0,0.0,0.0,0.0,0.0,0.0,0.0,0.0,0.0,0.0,0.0,0.0,0.0,0.0,0.0,0.0,0.0,0.0,0.0,0.0,0.0,0.0,0.0,0.0,0.0,0.0,2.3823,2.3457,2.3922,2.3887,2.3027,2.3076,2.3154,2.3154,2.3818,2.4219,2.4219,2.4629,2.499,2.5283,2.501,2.5,2.5293,2.4853,2.4424,2.4004,2.3857,2.3134,2.1889,2.1889,2.1489,2.0719,2.0719,2.1177,2.1861,2.1463,2.095,2.0167,1.8282,1.6895,1.593,1.534,1.4566,1.374,1.3633,1.36,1.3473,1.2712,1.2489,1.2365,1.187,1.1857,1.2011,1.2011,1.2151,1.2305,1.2305,1.2305,1.2258,1.2094,1.171,1.1335,1.1182,1.0835,1.0593,1.0593,1.0176,0.9702,0.9296,0.8705,0.811,0.7547,0.754,0.7461,0.7155,0.6714,0.637,0.6182,0.599,0.5601,0.4893,0.512,0.4998,0.4246,0.4031,0.3941,0.3941,0.3799,0.3744,0.3744,0.3498,0.3229,0.2963,0.0,0.0,0.0,0.0,0.0,0.0,0.0,0.0,0.0,0.0,0.0,0.0,0.0,0.0,0.0,0.0,0.0,0.0,0.0,0.0,0.0,0.0,0.0,2.3756,2.4777,2.5192,2.4018,2.458,2.4812,2.3926,2.4219,2.4453,2.4453,2.4844,2.5135,2.5135,2.5508,2.5693,2.5693,2.5693,2.5693,2.5693,2.5303,2.4873,2.4434,2.4014,2.3584,2.311,2.3101,2.3091,2.3091,2.3091,2.3091,2.3062,2.2705,2.2275,2.1671,1.9083,1.778,1.709,1.5026,1.4208,1.4168,1.3837,1.3695,1.3601,1.3083,1.288,1.2744,1.2479,1.2348,1.2305,1.2305,1.2305,1.2305,1.2305,1.2305,1.2305,1.2305,1.1857,1.1402,1.1395,1.0982,1.06,1.0593,0.9888,0.9477,1.0028,0.8813,0.8026,0.8734,0.8015,0.0,0.7552,0.7204,0.6937,0.6927,0.6741,0.634,0.5597,0.5426,0.5038,0.4292,0.4003,0.3855,0.3855,0.372,0.3644,0.3622,0.3408,0.3236,0.3108,0.0,0.0,0.0,0.0,0.0,0.0,0.0,0.0,0.0,0.0,0.0,0.0,0.0,0.0,0.0,0.0,0.0,0.0,0.0,0.0,0.0,0.0,2.747,2.5327,2.5914,2.6176,2.5299,2.541,2.5459,2.5225,2.5255,2.5323,2.5323,2.544,2.5557,2.5557,2.5625,2.5693,2.5693,2.5693,2.5693,2.5693,2.5567,2.5332,2.4883,2.4453,2.4023,2.3603,2.3237,2.3091,2.3091,2.3091,2.3091,2.3081,2.2974,2.2539,2.1795,2.0727,1.96,1.847,1.7868,1.7139,1.6396,1.6294,1.5774,1.5174,1.5614,1.455,1.3175,1.3683,1.3091,1.2305,1.2305,1.2305,1.2305,1.2305,1.2305,1.2305,1.2305,1.2017,1.169,1.1435,1.1136,1.0847,1.0633,0.9888,0.9538,1.0322,1.0114,0.9787,0.9738,0.0,0.0,0.8815,0.8386,0.7954,0.7537,0.7436,0.7101,0.6367,0.6488,0.6288,0.0,0.5116,0.4892,0.4892,0.4859,0.4635,0.4198,0.3612,0.3286,0.0,0.0,0.0,0.0,0.0,0.0,0.0,0.0,0.0,0.0,0.0,0.0,0.0,0.0,0.0,0.0,0.0,0.0,0.0,0.0,0.0,0.0,2.9553,3.0302,2.8575,2.8116,2.76,2.6628,2.6014,2.5693,2.5693,2.5693,2.5693,2.5693,2.5693,2.5693,2.5693,2.5693,2.5693,2.5693,2.5693,2.5693,2.5693,2.5693,2.542,2.4785,2.4531,2.4102,2.3506,2.3208,2.3091,0.0,2.3091,2.3091,2.3091,2.3091,2.2744,0.0,0.0,0.0,0.0,0.0,1.7868,1.7302,1.7302,1.6887,1.6415,1.677,1.5937,1.4766,1.4931,1.4422,1.3653,1.306,1.2879,1.2806,1.2409,1.2305,1.2305,1.2305,1.1984,1.167,1.1623,1.1189,1.0827,1.0787,0.0,0.0,1.0498,1.0301,1.0116,1.0265,1.0372,1.0147,0.0,0.9089,0.8689,0.8199,0.8156,0.7857,0.7128,0.7189,0.0,0.0,0.0,0.5421,0.5308,0.5303,0.0,0.0,0.0,0.0,0.0,0.0,0.0,0.0,0.2648,0.2572,0.0,0.0,0.0,0.0,0.0,0.0,0.0,0.0,0.0,0.0,0.0,0.0,0.0,0.0,0.0,0.0,3.1937,3.2972,3.2391,3.0742,2.9085,2.7767,2.662,2.5878,2.5684,2.5693,2.5693,2.5693,2.5693,2.5693,2.5693,0.0,0.0,0.0,0.0,2.5693,2.5693,2.5693,2.5274,2.4492,2.4443,2.3949,2.3169,2.312,2.3091,2.3091,2.3091,2.3091,2.3091,2.3091,2.2818,2.2308,2.0862,1.9852,1.9076,1.806,1.7658,0.0,0.0,0.0,0.0,1.7381,1.712,1.6796,1.6225,1.5978,1.5593,1.4235,1.3912,1.3717,1.2849,1.2556,1.2445,1.2445,1.204,1.1687,1.1859,1.1364,1.0882,1.0981,1.0787,1.0593,1.0593,0.9951,0.9722,1.0466,1.0334,0.0,0.9726,0.9452,0.9138,0.8844,0.0,0.0,0.7883,0.7689,0.7211,0.6319,0.6057,0.5825,0.5566,0.5474,0.5176,0.4604,0.4543,0.4242,0.3689,0.3689,0.3674,0.3621,0.3324,0.3344,0.0,0.0,0.0,0.0,0.0,0.0,0.0,0.0,0.0,0.0,0.0,0.0,0.0,0.0,0.0,3.1543,3.2907,3.3683,3.3563,3.197,3.0045,2.7861,2.7352,2.6849,2.5781,2.5693,2.5693,2.5693,2.5693,2.5693,2.5693,2.5693,0.0,2.5693,2.5693,2.5693,2.5693,2.5693,2.5469,2.4941,0.0,0.0,2.3652,2.3257,2.3091,2.3091,2.3091,2.3091,2.3091,2.3091,2.2685,2.1963,2.1269,2.0697,2.0245,2.004,1.9962,1.9962,1.9962,1.9392,1.8829,1.9614,1.8527,1.6963,1.7382,1.6925,0.0,1.5165,1.5153,1.5272,1.4772,1.4027,1.3419,1.3419,1.3324,1.3006,1.2082,1.2198,1.217,1.1187,1.0787,1.0593,1.0593,1.046,1.0396,1.0561,1.0546,1.0311,0.9782,0.9633,0.9392,0.8864,0.8804,0.8752,0.8586,0.8358,0.8143,0.796,0.7636,0.7348,0.7077,0.6618,0.6185,0.5857,0.5367,0.4826,0.4242,0.4242,0.4073,0.3748,0.369,0.3693,0.0,0.0,0.0,0.0,0.0,0.0,0.0,0.0,0.0,0.0,0.0,2.8434,3.0253,0.0,3.2098,3.3608,3.4123,3.4311,3.4311,3.3266,3.1756,2.9658,2.8319,2.7363,2.6706,2.6062,2.5693,2.5693,2.5693,2.5693,2.5693,2.5693,2.5693,2.5693,2.5693,2.5693,2.5693,2.5518,2.5176,2.4736,2.4307,2.3877,2.3457,2.3198,2.3091,2.3091,2.3091,2.3091,2.3081,2.2867,2.2451,2.1846,2.1366,2.0957,2.0605,2.0605,2.0605,2.0605,2.0605,2.0245,1.9883,2.045,1.9771,1.8763,1.8873,1.8415,1.7631,1.6498,1.619,1.6066,1.5382,1.4843,1.445,1.445,1.4316,1.4085,1.3633,1.3384,1.2979,1.2137,1.1553,1.1076,1.0688,1.0593,1.0593,1.0593,1.0466,1.018,0.974,0.9552,0.9292,0.8851,0.8804,0.8804,0.8804,0.8569,0.8402,0.8402,0.8096,0.7789,0.7504,0.7215,0.6776,0.6206,0.5894,0.5459,0.4848,0.4543,0.4353,0.4237,0.4013,0.3944,0.0,0.0,0.0,0.0,0.0,0.0,0.0,0.0,2.8586,3.0382,3.0746,3.1298,3.3068,3.3483,3.3985,3.5282,3.5044,3.468,3.468,3.4161,3.3195,3.1737,2.9407,2.7861,2.7636,2.6428,2.5693,2.5693,2.5693,2.5693,2.5693,2.5693,2.5693,2.5693,2.5693,2.5693,2.5693,2.5293,2.4844,2.4414,2.3984,2.3555,2.3091,2.3091,2.3091,2.3091,2.3091,2.3091,2.3062,2.2685,2.2266,2.1846,2.1366,2.0957,2.0605,2.0605,2.0605,2.0605,2.0605,2.0605,2.0605,2.0605,2.0605,2.0507,1.9951,1.9609,1.9131,1.7738,1.7174,1.6806,1.5965,1.5623,1.5473,1.5473,1.528,1.5076,1.5168,1.4564,1.3791,1.3247,1.2549,1.1779,1.0958,1.0832,1.0776,1.0624,1.0354,1.008,0.9755,0.9472,0.9164,0.8844,0.8804,0.8804,0.8804,0.8597,0.8482,0.8482,0.823,0.7963,0.7678,0.7611,0.7241,0.6534,0.6404,0.6118,0.5655,0.5103,0.4898,0.5022,0.464,0.4379,3.2497,3.2258,3.2523,3.2583,3.1606,3.1313,0.0,0.0,3.1549,3.3721,3.4173,3.4248,3.45,3.4893,3.5282,3.547,3.5044,3.468,3.468,3.3822,3.3101,3.2896,3.0687,2.8773,2.7673,2.6428,2.5693,2.5693,2.5693,2.5693,2.5693,2.5693,2.5693,2.5693,2.5693,2.5693,2.5693,2.5293,2.4844,2.4414,2.3984,2.3555,2.3091,2.3091,2.3091,2.3091,2.3091,2.3091,2.3062,2.2685,2.2266,2.1846,2.1366,2.0957,2.0605,2.0605,2.0605,2.0605,2.0605,2.0605,2.0605,2.0605,2.0605,2.0458,1.9609,1.959,1.9563,1.8269,1.8137,1.8267,1.7821,1.707,1.6428,1.6428,1.6427,1.6157,1.5367,1.5238,1.5042,1.4139,1.3377,1.2604,1.1803,1.1679,1.1406,1.0713,1.0566,1.0345,0.9789,0.9653,0.9419,0.8864,0.8804,0.8804,0.8804,0.8778,0.8758,0.8758,0.8724,0.8577,0.8308,0.8016,0.7815,0.7712,0.7185,0.6909,0.6907,0.6533,0.6296,0.6207,0.6151,0.5435,3.4937,3.4617,3.4556,0.0,3.5542,3.5249,3.6225,3.5107,3.4027,3.4583,3.468,3.468,3.468,3.5132,3.5495,0.0,3.5044,3.468,3.468,3.3771,3.2728,3.1767,3.0322,2.9223,2.868,2.7531,2.6802,2.6802,2.6802,2.6802,2.6802,2.61,2.5693,2.5693,2.5693,2.5693,2.5693,2.5039,2.46,2.4414,2.374,2.3276,2.3091,2.3091,2.3091,2.3081,2.2838,2.2867,2.3023,2.2107,2.1816,2.1816,2.1113,2.0732,2.0605,2.0605,2.0605,2.0605,2.0605,2.0605,2.0605,2.0605,2.0429,2.0166,2.0059,1.9629,1.9075,1.8828,1.8516,1.8198,1.8057,1.7716,1.7398,1.7398,1.7398,1.732,1.6906,1.6505,1.5927,1.5062,1.4249,1.3455,1.2634,1.2512,1.2389,1.2058,1.1022,1.0154,0.9769,0.9532,0.9265,0.8851,0.8804,0.8804,0.8804,0.8804,0.8804,0.8804,0.8804,0.8677,0.8409,0.8257,0.811,0.7912,0.7659,0.7537,0.7559,0.7102,0.6905,0.6928,0.656,0.6115,3.4887,3.5148,0.0,3.7118,3.7523,3.7475,3.7181,3.6191,3.5284,3.4994,3.4781,3.468,3.468,3.5006,3.527,3.527,3.4806,3.45,3.45,3.3545,3.2473,3.1417,2.9943,2.924,2.9829,2.8179,2.722,2.7589,2.7589,2.7589,2.7589,2.6716,2.6062,2.5684,2.5693,2.5625,2.5557,2.4795,2.4355,2.4238,2.3452,2.3091,2.3091,2.3091,2.3091,2.3071,2.2652,2.2711,2.2994,2.1717,2.1494,2.1797,2.0948,2.0605,2.0605,2.0605,2.0605,2.0605,2.0605,2.0605,2.0605,2.0605,2.0352,2.0107,2.0224,1.9561,1.8792,1.8916,1.8486,1.8008,1.8008,1.8008,1.8008,1.8008,1.8008,1.8008,1.8008,1.7432,1.6674,1.5978,1.5216,1.4429,1.3472,1.3334,1.3252,1.3039,1.1791,1.0749,1.0343,0.9757,0.9221,0.8831,0.8804,0.8804,0.8804,0.8804,0.8804,0.8804,0.8804,0.8711,0.8529,0.8442,0.831,0.8152,0.7992,0.7985,0.8145,0.7694,0.7542,0.771,0.7261,0.7012,3.1117,0.0,3.455,3.506,3.5804,3.6484,3.6977,3.5884,3.4851,3.5357,3.5044,3.468,3.468,3.4693,3.4705,3.4705,3.4286,3.3922,3.3922,3.2955,3.2441,3.2938,3.0017,2.8783,0.0,2.7887,2.6294,2.7494,2.7589,2.7589,2.7589,2.7542,2.6993,2.5732,2.5693,2.5527,2.5135,2.4639,2.4209,2.3799,2.3305,2.3091,2.3091,2.3091,2.3091,2.3071,2.2652,2.2711,2.2994,2.1717,2.1494,2.1797,2.0948,2.0605,2.0605,2.0605,2.0605,2.0605,2.0605,2.0605,2.0605,2.0605,2.0595,2.0429,1.957,1.9297,1.9102,1.8281,1.8027,1.8008,1.8008,1.8008,1.8008,1.8008,1.8008,1.8008,1.8008,1.7666,1.7236,1.6753,1.6326,1.5627,1.4366,1.4154,1.3906,1.313,1.294,1.266,1.1937,1.062,0.9524,0.8857,0.8804,0.8804,0.8804,0.8804,0.8804,0.8804,0.8804,0.8804,0.8791,0.8549,0.8529,0.8778,0.8192,0.8185,0.8784,0.8497,0.851,0.8765,0.8738,0.8335,3.1859,3.3162,3.4661,3.6079,3.6674,3.6983,3.7201,3.6551,3.5636,3.4653,3.401,3.352,3.3131,3.337,3.3633,3.3633,3.3784,3.3897,3.3897,3.3257,3.2448,3.1552,3.0656,0.0,0.0,0.0,0.0,2.9806,2.8979,2.8844,2.9931,2.8448,2.74,2.6993,2.6159,2.5518,2.5116,2.4639,2.4209,2.3779,2.3305,2.3091,2.3091,2.3091,2.3091,2.3052,2.2402,2.2334,2.2584,2.1328,2.1055,2.1396,2.084,2.0605,2.0605,2.0605,2.0605,2.0605,2.0605,2.0605,2.0605,2.0605,2.041,2.0137,2.0175,1.9531,1.8857,1.8857,1.8447,1.8008,1.8008,1.8008,1.8008,1.8008,1.8008,1.8008,1.8008,1.7676,1.7256,1.6785,1.6367,1.5858,1.5126,1.4991,1.4717,1.3906,1.2932,1.2175,1.1927,1.1056,1.0218,0.9536,0.9465,0.929,0.8831,0.8804,0.8804,0.8804,0.8804,0.8804,0.8804,0.8711,0.8704,0.8804,0.8611,0.8611,0.8804,0.8711,0.8711,0.8804,0.8804,0.8672,3.1358,3.2362,3.3456,3.4945,3.5796,3.6322,3.6348,3.5799,3.4977,3.3846,3.2855,3.2089,3.1712,3.1788,3.2026,3.2416,3.2767,3.3144,3.3558,3.3119,3.2436,3.162,3.1016,3.06,0.0,0.0,0.0,3.1007,2.9837,2.9668,3.111,2.9727,2.868,2.8272,2.703,2.6089,2.5514,2.5187,2.4736,2.4145,2.3854,2.3714,2.3714,2.3714,2.3714,2.3631,2.2414,2.2129,2.2412,2.1143,2.083,2.1151,2.0781,2.0605,2.0605,2.0605,2.0605,2.0605,2.0605,2.0605,2.0605,2.0605,2.0419,2.0137,2.0155,1.9531,1.8867,1.8838,1.8437,1.8008,1.8008,1.8008,1.8008,1.8008,1.8008,1.8008,1.8008,1.7803,1.748,1.7051,1.6602,1.6162,1.5723,1.5508,1.5235,1.4717,1.3674,1.2696,1.1994,1.1469,1.0889,1.0244,1.0167,0.9987,0.9562,0.951,0.951,0.951,0.929,0.9159,0.9159,0.9159,0.9159,0.9159,0.9387,0.9387,0.9159,0.9159,0.9035,0.8804,0.8804,0.8804,2.9616,3.0276,3.113,3.19,3.3325,3.4547,3.4593,3.3784,3.3023,3.296,3.1625,3.0482,0.0,0.0,3.0093,3.1135,3.1386,3.1813,3.2918,3.2604,3.2466,0.0,0.0,0.0,0.0,0.0,0.0,3.114,0.0,3.0011,3.1223,3.1223,3.0676,2.9544,2.8297,2.7245,2.6407,2.6186,2.5723,2.4872,2.4872,2.4872,2.4872,2.4872,2.4872,2.4692,2.2812,2.2151,2.2383,2.1134,2.081,2.1112,2.0732,2.0605,2.0605,2.0605,2.0605,2.0605,2.0605,2.0605,2.0605,2.0605,2.0605,2.0449,1.957,1.9307,1.9111,1.8281,1.8027,1.8008,1.8008,1.8008,1.8008,1.8008,1.8008,1.8008,1.8008,1.8008,1.7881,1.7461,1.7012,1.6553,1.6134,1.5684,1.541,1.541,1.5049,1.4128,1.225,1.193,1.1617,1.0939,1.0838,1.0838,1.0788,1.0788,1.0788,1.0788,1.0192,0.9865,0.9865,0.9865,0.9865,0.9865,1.0491,1.0491,0.9865,0.9865,0.9517,0.8857,0.8857,0.8831,3.015,3.0231,3.0571,3.1802,3.2112,3.2321,3.3308,3.2629,3.1599,3.0796,2.9628,2.8624,0.0,0.0,0.0,3.008,3.121,0.0,3.3023,3.2955,0.0,3.3056,0.0,3.2486,3.3056,3.1491,0.0,0.0,3.1196,3.0962,3.2544,3.1733,3.1033,3.0765,2.9184,2.8075,2.7491,2.6743,2.6312,2.6058,2.6058,2.6058,2.6058,2.6058,2.5588,2.4735,2.3587,2.2717,2.1973,2.1016,2.0674,2.0723,2.0644,2.0605,2.0605,2.0605,2.0605,2.0605,2.0605,2.0605,2.0605,2.0605,2.0605,2.0507,1.9922,1.9541,1.918,1.8598,1.8217,1.8008,1.8008,1.8008,1.8008,1.8008,1.8008,1.8008,1.8008,1.8008,1.7881,1.7461,1.6789,1.6094,1.5654,1.5488,1.541,1.541,1.5049,1.4481,1.3658,1.3264,1.2682,1.1651,1.1541,1.1341,1.0838,1.0788,1.0788,1.0788,1.0644,1.0542,1.0542,1.0542,1.0542,1.0542,1.0712,1.0712,1.0542,1.0542,1.0192,0.9536,0.9536,0.9283,2.9534,2.9435,2.9587,3.0027,3.0147,3.032,3.1071,3.038,2.9419,2.8838,2.7795,0.0,2.6302,2.7105,0.0,0.0,0.0,0.0,3.293,3.3124,3.3124,0.0,3.3124,0.0,3.3124,3.2469,3.2339,0.0,3.1728,3.1518,3.3013,3.2426,3.2052,3.2052,3.0317,2.9033,2.8299,2.7103,2.6719,2.7197,2.7197,2.7197,2.7197,2.7197,2.6705,2.5835,0.0,2.3438,2.2191,2.1485,2.0972,2.0605,2.0605,2.0605,2.0605,2.0605,2.0605,2.0644,2.1078,2.0934,2.0605,2.0605,2.0605,2.0488,1.9824,1.9473,1.916,1.85,1.8159,1.8008,1.8008,1.8008,1.8008,1.8008,1.8008,1.8008,1.8008,1.8008,1.7832,1.7217,1.6699,1.6152,1.5518,1.541,1.541,1.541,1.5215,1.4902,1.4445,1.3887,1.3188,1.2366,1.2286,1.2138,1.1742,1.1717,1.1717,1.1717,1.1425,1.1241,1.1241,1.1241,1.1241,1.1241,1.1559,1.1559,1.1241,1.1241,1.0889,1.0244,1.0244,1.0038,2.8464,2.84,2.8427,2.7952,2.8331,2.8807,2.8911,2.8076,2.7205,2.6916,0.0,2.5021,2.4537,2.5385,2.66,2.7896,0.0,3.1022,3.2817,3.3048,3.2993,3.3111,3.3124,3.3124,3.3124,3.3124,3.3124,3.3124,3.2096,3.1909,3.3025,3.3124,3.3048,3.2898,3.1339,3.0013,2.892,2.7603,2.7412,2.8347,2.8347,2.8347,2.8347,2.8347,2.7929,2.7198,0.0,0.0,2.2843,2.2368,2.1707,2.0972,2.0972,2.0972,2.0972,2.0972,2.0972,2.1078,2.1924,2.1669,2.0972,2.0828,2.0789,2.0621,1.9725,1.9495,1.9363,1.8645,1.8319,1.8221,1.8407,1.8411,1.8337,1.8337,1.8337,1.8303,1.8202,1.8168,1.7921,1.7022,1.6855,1.66,1.5703,1.5468,1.541,1.541,1.541,1.5254,1.4834,1.4131,1.3496,1.3042,1.2993,1.2964,1.2905,1.2905,1.2905,1.2905,1.2295,1.1947,1.1947,1.1947,1.1947,1.1947,1.2559,1.2584,1.1947,1.1947,1.1591,1.0939,1.0939,1.0889,2.8366,2.778,2.7623,2.8769,2.8856,2.8804,2.9478,2.8425,0.0,0.0,2.3665,2.2849,2.2761,2.3665,2.5234,2.7708,2.8737,3.0118,3.2717,3.2667,3.2541,0.0,0.0,0.0,0.0,0.0,0.0,0.0,0.0,0.0,3.3081,3.3124,3.2696,3.1712,3.141,3.0714,2.9644,2.9376,2.9326,2.9495,2.9495,2.9495,2.9495,2.9495,2.8694,2.7237,0.0,0.0,2.3879,2.342,2.3147,2.301,2.301,2.301,2.301,2.301,2.301,2.2999,2.3184,2.3147,2.285,2.2038,2.1773,2.1569,2.0669,2.0435,2.0568,2.076,1.996,1.9327,2.0499,2.0468,2.0139,2.0139,2.0139,1.9944,1.9243,1.9077,1.8775,1.7791,1.7719,1.7459,1.6477,1.5806,1.541,1.541,1.541,1.5254,1.4834,1.4658,1.4268,1.3477,1.3398,1.3262,1.2935,1.2905,1.2905,1.2905,1.2774,1.2715,1.2715,1.2715,1.2715,1.2715,1.2822,1.2847,1.2715,1.2715,1.2344,1.1641,1.1641,1.1341,2.841,2.7901,2.7627,2.7508,2.7666,2.7685,2.7142,0.0,0.0,0.0,2.246,2.1794,2.1506,2.2849,0.0,2.5749,2.7155,2.895,3.1449,3.1549,0.0,0.0,0.0,0.0,0.0,0.0,0.0,0.0,0.0,0.0,3.3124,3.2792,3.224,3.1411,3.1135,3.0595,2.9804,2.9792,2.9792,2.9792,2.9792,2.9792,2.9792,2.9792,2.9035,2.769,0.0,0.0,2.4611,2.4368,2.3963,2.3514,2.3514,2.3514,2.3514,2.3514,2.3514,2.3551,2.4108,2.3927,2.3526,2.3562,2.322,2.2603,2.1612,2.1355,2.1407,2.1397,2.0709,2.0129,2.0817,2.0802,2.059,2.059,2.059,2.0494,2.0074,1.9977,1.9662,1.8666,1.8523,1.8129,1.6725,1.6208,1.5835,1.5468,1.5719,1.5908,1.5723,1.5664,1.5192,1.3952,1.3607,1.3428,1.3223,1.3032,1.2905,1.2905,1.2905,1.2905,1.2905,1.2905,1.2905,1.2905,1.2905,1.2905,1.2905,1.2905,1.2725,1.2369,1.2369,1.2197,2.8769,2.8406,2.8011,2.7085,2.7185,2.7058,2.5526,2.421,0.0,0.0,2.1594,2.1056,2.0742,2.2124,2.3477,0.0,2.5624,2.762,3.0093,3.0545,3.1185,0.0,0.0,0.0,0.0,0.0,0.0,0.0,0.0,0.0,0.0,3.2528,3.1951,3.1411,3.0884,3.0357,2.9804,2.9792,2.9792,2.9792,2.9792,2.9792,2.9792,2.9666,2.9063,2.8097,0.0,0.0,0.0,2.5335,2.485,2.4145,2.4145,2.4145,2.4145,2.4145,2.4145,2.4253,2.504,2.4814,2.423,2.4897,2.446,2.3512,2.2718,2.24,2.2309,2.2155,2.1619,2.1101,2.1261,2.1244,2.1132,2.1132,2.1005,2.0878,2.0878,2.0878,2.0617,1.9678,1.9458,1.892,1.7422,1.6941,1.6539,1.5968,1.6358,1.6736,1.6736,1.6736,1.6255,1.4969,1.4208,1.3701,1.3525,1.3203,1.3003,1.2915,1.2905,1.2905,1.2905,1.2905,1.2905,1.2905,1.2905,1.2905,1.2905,1.2905,1.2905,1.2905,1.2905,1.2905,2.9558,2.9046,2.8615,3.0296,2.9648,2.8476,2.789,0.0,2.3454,2.1907,2.0702,2.01,2.0603,2.0867,2.1823,2.433,2.4888,2.6176,2.9415,3.0306,3.1035,0.0,0.0,0.0,0.0,0.0,0.0,0.0,0.0,0.0,0.0,3.2528,3.1951,3.1411,3.0884,3.0357,2.9804,2.9792,2.9792,2.9792,2.9792,2.9792,2.9779,2.9252,2.8674,2.8084,0.0,0.0,0.0,2.6349,2.6314,2.6233,2.6233,2.6233,2.6233,2.6233,2.6233,2.6233,2.6349,2.6314,2.6146,2.5702,2.492,2.4106,2.4046,2.3714,2.3523,2.4279,2.3539,2.2687,2.3485,2.3269,2.2884,2.2884,2.231,2.1784,2.1784,2.1784,2.1606,2.0954,2.0529,2.006,1.9436,1.8297,1.7468,1.7413,1.7468,1.7495,1.7495,1.7495,1.7434,1.7291,1.5729,1.4355,1.3574,1.3477,1.3281,1.2925,1.2905,1.2905,1.2905,1.2905,1.2905,1.2905,1.2905,1.2905,1.2905,1.2905,1.2905,1.2905,1.2905,1.2905,2.8944,2.9048,2.8844,2.8571,2.8936,2.8878,2.6929,0.0,2.31,2.1757,2.0589,1.9874,2.01,2.0465,2.1169,2.2585,2.3088,2.4243,2.6892,2.7758,0.0,0.0,0.0,0.0,0.0,0.0,0.0,0.0,0.0,0.0,0.0,3.1549,3.1148,3.0934,3.0394,3.0018,2.9792,2.9792,2.9792,2.9792,2.9792,2.9792,2.9779,2.9553,2.8963,2.8097,0.0,0.0,0.0,2.6499,2.6499,2.6499,2.6499,2.6499,2.6499,2.6499,2.6499,2.6499,2.6499,2.6499,2.6461,2.6223,2.5638,2.4988,2.466,2.4435,2.4299,2.4323,2.3654,2.3022,2.3385,2.3283,2.3108,2.3108,2.2854,2.2628,2.2628,2.2628,2.237,2.1469,2.1153,2.0652,1.9299,1.8615,1.8124,1.766,1.7988,1.8259,1.8259,1.8259,1.8259,1.8259,1.6689,1.5342,1.4579,1.4352,1.4002,1.3478,1.3443,1.3443,1.3443,1.3079,1.2905,1.2905,1.2905,1.2905,1.2905,1.2905,1.2905,1.2905,1.2905,1.2905,2.8933,2.9309,2.9239,2.8299,2.8828,2.8861,0.0,2.4349,2.2744,2.1506,2.0476,1.9798,1.9798,2.0137,2.0616,2.1182,2.1845,2.3025,2.5071,2.6172,0.0,0.0,0.0,0.0,0.0,0.0,0.0,0.0,0.0,0.0,0.0,0.0,3.0457,3.0608,3.008,2.9792,2.9792,2.9792,2.9792,2.9792,2.9792,2.9792,2.9779,2.9453,2.8863,0.0,0.0,0.0,0.0,2.6499,2.6499,2.6499,2.6499,2.6499,2.6499,2.6499,2.6499,2.6499,2.6499,2.6499,2.6499,2.6499,2.6097,2.5498,2.4938,2.4788,2.4675,2.4155,2.359,2.3108,2.3108,2.3108,2.3108,2.3108,2.3108,2.3108,2.3108,2.3108,2.2832,2.192,2.1606,2.1041,1.9551,1.9141,1.8847,1.834,1.8688,1.9044,1.9044,1.9044,1.9044,1.9044,1.7828,1.6612,1.5581,1.5128,1.4646,1.4107,1.4073,1.4073,1.4073,1.3491,1.3176,1.3176,1.2992,1.2905,1.2905,1.2905,1.2992,1.3152,1.2968,1.2905,3.0099,3.0118,2.9888,3.1058,3.0116,2.8461,2.6841,2.4745,2.2644,2.1043,2.0239,1.9798,1.9798,1.9811,1.9999,2.0603,2.1594,2.2899,2.4562,2.6239,0.0,0.0,0.0,0.0,0.0,0.0,0.0,0.0,0.0,0.0,0.0,0.0,3.0043,3.0595,3.008,2.9792,2.9792,2.9792,2.9792,2.9792,2.9792,2.9792,2.9754,2.8637,0.0,0.0,0.0,0.0,0.0,2.6499,2.6499,2.6499,2.6499,2.6499,2.6499,2.6499,2.6499,2.6499,2.6499,2.6499,2.6499,2.6499,2.6097,2.5498,2.4938,2.4788,2.4675,2.4155,2.359,2.3108,2.3108,2.3108,2.3108,2.3108,2.3108,2.3108,2.3108,2.3108,2.2945,2.241,2.1857,2.1345,2.0779,2.0175,1.9798,1.9773,1.9773,1.9798,1.9798,1.9798,1.9798,1.9798,1.9309,1.8227,1.6348,1.5633,1.5118,1.4709,1.4686,1.4686,1.4686,1.412,1.3802,1.3802,1.319,1.2905,1.2905,1.2905,1.3214,1.3779,1.3176,1.2905,2.6894,2.7472,2.7814,2.7411,2.7275,2.6839,2.5159,2.364,2.2209,2.0955,2.0239,1.9798,1.9798,1.9798,2.0238,2.1581,2.2083,2.2899,0.0,0.0,0.0,0.0,0.0,0.0,0.0,0.0,0.0,0.0,0.0,0.0,0.0,0.0,2.988,3.0043,2.988,2.9792,2.9792,2.9792,2.9792,2.9792,2.9792,2.9578,2.9189,2.88,0.0,0.0,0.0,0.0,0.0,2.6499,2.6499,2.6499,2.6499,2.6499,2.6499,2.6499,2.6499,2.6499,2.6499,2.6499,2.6499,2.6499,2.6373,2.6047,2.5096,2.4525,2.4142,2.3547,2.3246,2.3108,2.3108,2.3108,2.3108,2.3108,2.3108,2.3108,2.3108,2.3108,2.2945,2.2393,2.187,2.1345,2.0792,2.0214,1.9798,1.9798,1.9798,1.9798,1.9798,1.9798,1.9798,1.9798,1.9309,1.8437,1.7069,1.6824,1.6343,1.5378,1.532,1.532,1.532,1.4744,1.4422,1.4422,1.4224,1.4131,1.4131,1.4131,1.4224,1.4399,1.3802,1.3742,2.5288,2.6166,2.6722,2.5997,2.5847,2.546,2.4004,2.2811,2.1681,2.0603,2.0049,1.9798,1.9798,1.9798,2.015,2.1192,2.1719,2.251,0.0,0.0,0.0,0.0,0.0,0.0,0.0,0.0,0.0,0.0,0.0,0.0,0.0,0.0,2.9792,2.9792,2.9792,2.9792,2.9792,2.9792,2.9792,2.9792,2.9792,2.949,2.8888,0.0,0.0,0.0,0.0,0.0,0.0,2.6499,2.6499,2.6499,2.6499,2.6499,2.6499,2.6499,2.6499,2.6499,2.6499,2.6499,2.6499,2.6499,2.6348,2.5959,2.4845,2.4117,2.3572,2.3208,2.3108,2.3108,2.3108,2.3108,2.3108,2.3108,2.3108,2.3108,2.3108,2.3108,2.2882,2.2146,2.1732,2.1242,2.0503,2.0037,1.9798,1.9798,1.9798,1.9798,1.9798,1.9798,1.9798,1.9798,1.951,1.8933,1.8007,1.7779,1.7389,1.6619,1.6572,1.6572,1.6572,1.6009,1.5683,1.5683,1.5459,1.5216,1.5001,1.504,1.4926,1.4698,1.4549,1.4549,0.0,2.5757,2.6185,2.6147,2.5335,2.4274,2.3183,2.2171,0.0,2.0024,1.9798,1.9811,1.9861,1.9823,1.9849,2.0012,2.0916,2.2008,0.0,0.0,0.0,0.0,0.0,0.0,0.0,0.0,0.0,0.0,0.0,0.0,0.0,0.0,0.0,2.9792,2.9792,2.9792,2.9792,2.9792,2.9792,2.9792,2.9754,2.9428,2.8813,0.0,0.0,0.0,0.0,0.0,0.0,2.6499,2.6499,2.6499,2.6499,2.6499,2.6499,2.6499,2.6499,2.6499,2.6499,2.6499,2.6499,2.6499,2.6097,2.5398,2.4368,2.3653,2.3158,2.3108,2.3108,2.3108,2.3108,2.3108,2.3108,2.3108,2.3108,2.3108,2.3108,2.3108,2.2794,2.1757,2.1546,2.1142,2.0049,1.9823,1.9798,1.9798,1.9798,1.9798,1.9798,1.9798,1.9798,1.9798,1.9798,1.961,1.9096,1.8581,1.8242,1.8204,1.8204,1.8204,1.8204,1.7666,1.7351,1.7351,1.6824,1.6236,1.5686,1.5727,1.5446,1.4891,1.5389,1.532,2.2347,0.0,2.3188,2.2791,2.246,2.2096,0.0,2.1069,2.0679,1.9949,1.9798,1.9936,2.0402,2.01,2.0363,2.2042,2.2543,2.3246,0.0,0.0,0.0,0.0,0.0,0.0,0.0,0.0,0.0,0.0,0.0,0.0,0.0,0.0,0.0,2.9792,2.9792,2.9792,2.9792,2.9792,2.9792,2.9779,2.934,2.8837,2.8285,0.0,0.0,0.0,0.0,0.0,0.0,2.6499,2.6499,2.6499,2.6499,2.6499,2.6499,2.6499,2.6499,2.6499,2.6499,2.6499,2.6499,2.6499,2.6097,2.5473,2.482,2.4243,2.3703,2.3233,2.3108,2.3108,2.3108,2.3108,2.3108,2.3108,2.3108,2.3108,2.3108,2.3108,2.2907,2.2246,2.1782,2.1267,2.0616,2.01,1.9798,1.9798,1.9798,1.9798,1.9798,1.9798,1.9798,1.9798,1.9798,1.9748,1.9623,1.9108,1.8632,1.8229,1.8204,1.8204,1.8204,1.8049,1.8001,1.8001,1.7858,1.7713,1.7554,1.7175,1.6915,1.6745,1.5969,1.5776,2.1131,2.1882,2.2594,2.2322,2.2058,2.1782,2.1493,2.0855,2.0175,1.9861,1.9798,1.9899,2.0239,2.0264,2.0704,2.2146,2.2782,0.0,0.0,0.0,0.0,0.0,0.0,0.0,0.0,0.0,0.0,0.0,0.0,0.0,0.0,0.0,0.0,0.0,2.9792,2.9792,2.9792,2.9792,2.9792,2.9779,2.9202,2.8599,2.8084,0.0,0.0,0.0,0.0,0.0,2.6499,2.6499,2.6499,2.6499,2.6499,2.6499,2.6499,2.6499,2.6499,2.6499,2.6499,2.6499,2.6499,2.6499,2.6097,2.5498,2.4938,2.4443,2.3879,2.3271,2.3108,2.3108,2.3108,2.3108,2.3108,2.3108,2.3108,2.3108,2.3108,2.3108,2.2869,2.2083,2.1694,2.123,2.044,2.0012,1.9798,1.9798,1.9798,1.9798,1.9798,1.9798,1.9798,1.9798,1.9798,1.9798,1.9798,1.9547,1.9233,1.8957,1.8932,1.8932,1.8932,1.8932,1.8932,1.8932,1.8682,1.8556,1.8556,1.7777,1.741,1.7363,1.6453,1.6194,2.0666,2.187,2.302,2.2681,2.2305,2.2033,2.1945,2.0828,1.9798,1.9798,1.9798,1.9849,2.0024,2.049,0.0,0.0,0.0,0.0,0.0,0.0,0.0,0.0,0.0,0.0,0.0,0.0,0.0,0.0,0.0,0.0,0.0,0.0,0.0,0.0,2.9792,2.9792,2.9792,2.9792,2.9792,2.9779,2.9126,2.8561,2.8084,2.7444,0.0,0.0,0.0,0.0,2.6499,2.6499,2.6499,2.6499,2.6499,2.6499,2.6499,2.6499,2.6499,2.6499,2.6499,2.6499,2.6474,2.6386,2.6034,2.5485,2.4883,2.4368,2.3879,2.3271,2.3108,2.3108,2.3108,2.3108,2.3108,2.3108,2.3108,2.3108,2.3108,2.3108,2.2807,2.1807,2.1543,2.1209,2.023,2.0003,1.9952,1.9952,1.9952,1.9952,1.995,1.9861,1.9836,1.9924,1.9849,1.9798,1.9798,1.9798,1.985,1.9952,1.985,1.9798,1.9798,1.9798,1.9798,1.9798,1.9346,1.9121,1.9121,1.8041,1.7524,1.7524,1.6911,1.6647,2.0566,2.187,2.2644,2.0778,2.0614,2.0817,2.03,1.9987,1.9798,1.9798,1.9798,2.01,2.1054,2.1305,2.1857,0.0,0.0,0.0,0.0,0.0,0.0,0.0,0.0,0.0,0.0,0.0,0.0,0.0,0.0,0.0,0.0,0.0,0.0,0.0,0.0,2.9792,2.9792,2.9792,2.9792,2.9779,2.8737,2.8185,2.8072,2.709,2.6575,0.0,0.0,0.0,2.6499,2.6499,2.6499,2.6499,2.6499,2.6499,2.6499,2.6499,2.6499,2.6499,2.6499,2.6499,2.6411,2.5887,2.5674,2.541,2.4418,2.4067,2.3879,2.3271,2.3108,2.3108,2.3108,2.3108,2.3108,2.3108,2.3108,2.3108,2.3108,2.3108,2.292,2.2309,2.1807,2.146,2.1342,2.0949,2.066,2.066,2.066,2.0641,2.057,2.0138,1.9987,2.0515,2.0087,1.9798,1.9798,1.9798,2.0055,2.0597,2.0105,1.9798,1.9798,1.9798,1.9798,1.9798,1.9723,1.9685,1.9673,1.8606,1.8078,1.8066,1.7513,1.725,1.9346,2.0313,2.1051,2.0062,2.1142,2.2322,2.1732,2.1142,2.0715,2.0715,2.0715,2.0878,2.1393,0.0,2.3025,2.5041,0.0,0.0,0.0,0.0,0.0,0.0,0.0,0.0,0.0,0.0,0.0,0.0,0.0,0.0,0.0,0.0,0.0,0.0,0.0,0.0,2.9792,2.9478,2.9478,2.9779,2.8649,2.8109,2.8059,2.7002,2.6499,0.0,0.0,2.6905,2.6521,2.6973,2.7162,2.7095,2.6692,2.6782,2.7095,2.6658,2.6499,2.6555,2.7007,2.6922,2.658,2.6388,2.5852,2.5241,2.4725,2.4395,2.4175,2.4316,2.3725,2.3108,2.3108,2.3108,2.3108,2.3108,2.3424,2.3738,2.3738,2.4076,2.4087,2.3173,2.2803,2.2432,2.1776,2.1445,2.1415,2.1778,2.151,2.1401,2.1728,2.1226,2.0825,2.0746,2.0816,2.0682,2.0371,2.0645,2.0818,2.0795,2.0818,2.0695,2.0346,2.0346,2.0182,1.9798,1.9798,1.966,1.9359,1.887,1.8469,1.8191,1.794,1.7827,1.8656,1.9183,1.9798,1.9798,2.1418,2.3,2.2932,2.2083,2.1405,2.1794,2.187,2.187,0.0,2.2744,0.0,2.6348,0.0,0.0,0.0,0.0,0.0,0.0,0.0,0.0,0.0,0.0,0.0,0.0,0.0,0.0,0.0,0.0,0.0,0.0,0.0,0.0,2.9591,2.9113,2.9113,2.9578,2.8644,2.8208,2.817,2.7227,2.6871,2.7095,2.7517,2.7351,2.685,2.767,2.7887,2.767,2.7263,2.7351,2.7637,2.7229,2.6973,2.6905,2.7736,2.7554,2.7003,2.6992,2.6245,2.5319,2.5229,2.4898,2.4681,2.5231,2.4553,2.3636,2.3636,2.3501,2.3424,2.359,2.3972,2.435,2.4509,2.5007,2.5135,2.4196,2.3906,2.3502,2.2526,2.2253,2.2347,2.285,2.2351,2.2178,2.2823,2.2204,2.1575,2.1253,2.152,2.152,2.1053,2.1582,2.1748,2.1272,2.1534,2.1496,2.1028,2.1004,2.0782,2.0257,2.0118,1.9826,1.9432,1.9132,1.8795,1.8392,1.8392,1.8392,1.956,1.9748,1.9798,1.9798,1.9949,2.0501,2.1992,2.1546,2.1182,2.2669,2.2982,2.2982,0.0,2.391,2.5259,0.0,0.0,0.0,0.0,0.0,0.0,0.0,0.0,0.0,0.0,0.0,0.0,0.0,0.0,0.0,0.0,0.0,0.0,0.0,0.0,0.0,2.8963,2.8913,2.8913,2.8976,2.864,2.8484,2.8457,2.788,2.8051,2.878,2.8019,2.767,2.767,2.8556,2.8427,2.7769,2.8524,2.8363,2.7802,2.8524,2.8298,2.7736,2.862,2.8477,2.7824,2.7322,2.6717,2.6027,2.552,2.5356,2.5315,2.5398,2.5315,2.5231,2.5231,2.4738,2.4408,2.5063,2.4766,2.4481,2.5175,2.537,2.537,2.5287,2.4817,2.4419,2.4316,2.3875,2.3587,2.3607,2.3051,2.2861,2.3458,2.2456,2.1907,2.2427,2.2007,2.1673,2.1639,2.2253,2.2603,2.2581,2.203,2.1673,2.1639,2.1639,2.1602,2.1554,2.1015,2.0708,2.0668,1.9557,1.8983,1.8945,1.8945,1.8945,1.8342,1.8794,1.9296,1.9296,1.9836,2.0717,2.2008,2.2246,2.2585,2.3885,2.4148,2.4148,0.0,0.0,0.0,0.0,0.0,0.0,0.0,0.0,0.0,0.0,0.0,0.0,0.0,0.0,0.0,0.0,0.0,0.0,0.0,0.0,0.0,0.0,0.0,0.0,0.0,2.8564,2.8644,2.8644,2.802,2.801,2.8494,2.7953,2.8182,2.9002,2.9223,2.9002,2.8588,2.9442,2.9597,2.9348,2.9659,2.9286,2.8556,2.8876,2.878,2.8566,2.9038,2.8744,2.8092,2.757,2.6918,2.6338,2.6139,2.6095,2.6176,2.6654,2.6785,2.6561,2.5646,2.5175,2.5035,2.5315,2.5536,2.5728,2.6014,2.6428,2.6628,2.621,2.5959,2.5656,2.5261,2.5023,2.5018,2.5455,2.4929,2.4746,2.5383,2.4689,2.3922,2.3345,2.2706,2.2483,2.2854,2.3106,2.3268,2.3268,2.3002,2.2711,2.2346,2.2323,2.2123,2.1697,2.1472,2.0999,2.0243,2.0156,1.9736,1.9006,1.9332,1.951,1.779,1.8066,1.8569,1.892,1.9597,2.0526,2.1983,2.2706,2.3521,2.5034,2.5059,2.4838,2.5034,0.0,0.0,0.0,0.0,0.0,0.0,0.0,0.0,0.0,0.0,0.0,0.0,0.0,0.0,0.0,0.0,0.0,0.0,0.0,0.0,0.0,0.0,0.0,0.0,2.8261,2.852,2.8473,2.8035,2.8283,2.9048,2.8701,2.8971,2.9827,3.0133,2.995,2.9473,3.0329,3.0673,3.0673,3.0673,3.0178,2.9442,2.969,2.9501,2.9153,2.955,2.9114,2.8343,2.7961,2.7377,2.6852,2.6852,2.6852,2.6956,2.7458,2.76,2.7382,2.6349,2.5919,2.581,2.6054,2.631,2.6563,2.68,2.7255,2.7465,2.7001,2.6926,2.6692,2.6033,2.5914,2.6078,2.6512,2.6033,2.5839,2.6497,2.6019,2.5182,2.4107,2.357,2.3377,2.3566,2.3595,2.3595,2.3595,2.3595,2.3421,2.2987,2.2987,2.277,2.2317,2.2109,2.161,2.077,2.0996,2.0566,1.9577,1.9948,2.0003,1.8318,1.7802,1.7664,1.8732,1.902,1.961,2.182,2.2719,2.3747,2.6034,2.5586,2.4983,2.5498,0.0,0.0,0.0,0.0,0.0,0.0,0.0,0.0,0.0,0.0,0.0,0.0,0.0,0.0,0.0,0.0,0.0,0.0,0.0,0.0,0.0,0.0,0.0,0.0,2.8088,2.8507,2.8528,2.886,2.9473,3.0299,3.0299,3.0748,3.1467,3.0644,3.0299,3.0359,3.1161,3.1511,3.1511,3.1511,3.0999,3.0419,3.1219,3.0587,2.9406,3.0196,2.9654,2.8607,2.8592,2.8128,2.76,2.76,2.76,2.76,2.76,2.76,2.76,2.76,2.706,2.6695,2.7433,2.7034,2.6721,2.7433,2.76,2.76,2.76,2.76,2.739,2.6707,2.6602,2.6602,2.6602,2.6048,2.5869,2.6512,2.6019,2.5337,2.4679,2.4605,2.4335,2.3655,2.3595,2.3595,2.3595,2.3595,2.3595,2.3595,2.3595,2.3595,2.3595,2.3009,2.2694,2.2694,2.2039,2.14,2.082,2.0795,2.0446,1.7127,1.7741,1.8594,1.892,2.0161,2.1578,2.2631,2.3296,2.4255,2.6122,2.5908,2.541,2.5573,0.0,0.0,0.0,0.0,0.0,0.0,0.0,0.0,0.0,0.0,0.0,0.0,0.0,0.0,0.0,0.0,0.0,0.0,0.0,0.0,0.0,0.0,0.0,0.0,0.0,2.9155,2.9757,3.0446,3.0614,3.0299,3.0299,3.0748,3.1511,3.1248,3.1161,3.1161,3.1409,3.1511,3.1511,3.1511,3.1351,3.1131,3.0886,3.0531,3.005,2.9394,2.8921,2.8517,2.8064,2.7764,2.76,2.76,2.76,2.76,2.76,2.76,2.76,2.76,2.7433,2.7331,2.7549,2.7433,2.7331,2.7534,2.76,2.76,2.76,2.76,2.754,2.7345,2.73,2.73,2.73,2.7136,2.7091,2.7285,2.6731,2.6048,2.5367,2.4889,2.4335,2.3655,2.3595,2.3595,2.3595,2.3595,2.3595,2.3595,2.3595,2.3595,2.3595,2.3421,2.3112,2.2697,2.2501,2.2064,2.1428,2.1437,2.1328,1.7081,1.8164,1.9421,1.9873,2.1004,2.2246,2.3221,2.4079,2.4921,0.0,2.5837,2.5661,2.59,0.0,0.0,0.0,0.0,0.0,0.0,0.0,0.0,0.0,0.0,0.0,0.0,0.0,0.0,0.0,0.0,0.0,0.0,0.0,0.0,0.0,0.0,0.0,0.0,0.0,0.0,3.0299,3.1117,3.1248,3.0777,3.0777,3.1029,3.1511,3.1511,3.1511,3.1511,3.1511,3.1511,3.1511,3.1511,3.1331,3.1047,3.0657,3.0178,2.9639,2.8861,2.8427,2.8154,2.7735,2.76,2.76,2.76,2.76,2.76,2.76,2.76,2.76,2.76,2.76,2.76,2.76,2.76,2.76,2.76,2.76,2.76,2.76,2.76,2.76,2.76,2.76,2.76,2.76,2.76,2.76,2.76,2.7255,2.6746,2.6078,2.5397,2.4724,2.4036,2.3759,2.3595,2.3595,2.3595,2.3595,2.3595,2.3595,2.3595,2.3595,2.3595,2.3415,2.3062,2.3069,2.2731,2.2088,2.2107,2.1946,1.7609,1.8678,1.9984,2.1142,2.1531,2.2033,2.3565,2.4707,2.546,2.5523,0.0,2.5762,0.0,0.0,0.0,0.0,0.0,0.0,0.0,0.0,0.0,0.0,0.0,0.0,0.0,0.0,0.0,0.0,0.0,0.0,0.0,0.0,0.0,0.0,0.0,0.0,0.0,0.0,0.0,0.0,3.1161,3.1511,3.1511,3.1511,3.1511,3.1511,3.1511,3.1511,3.1511,3.1511,3.1511,3.1496,3.1436,3.1032,3.0492,3.0372,2.9594,2.8592,2.8532,2.8124,2.76,2.76,2.76,2.76,2.76,2.76,2.76,2.76,2.76,2.76,2.76,2.76,2.76,2.76,2.76,2.76,2.76,2.76,2.76,2.76,2.76,2.76,2.76,2.76,2.76,2.76,2.76,2.76,2.76,2.76,2.7345,2.6662,2.6048,2.5382,2.4664,2.4036,2.367,2.3595,2.3595,2.3595,2.3595,2.3595,2.3595,2.3595,2.3595,2.3595,2.3595,2.3595,2.3334,2.2785,2.2785,2.246,1.5916,1.7506,1.9255,2.0557,2.182,2.2844,2.3208,2.3853,2.4469,2.4908,2.531,0.0,0.0,0.0,0.0,0.0,0.0,0.0,0.0,0.0,0.0,0.0,0.0,0.0,0.0,0.0,0.0,0.0,0.0,0.0,0.0,0.0,0.0,0.0,0.0,0.0,2.9721,2.9919,3.0419,0.0,3.1409,3.1511,3.1511,3.1511,3.1511,3.1511,3.1511,3.1511,3.1511,3.1511,3.1511,3.1451,3.0913,3.0627,3.0387,2.9385,2.8846,2.8517,2.8004,2.772,2.76,2.76,2.76,2.76,2.76,2.76,2.76,2.76,2.76,2.76,2.76,2.76,2.76,2.76,2.76,2.76,2.76,2.76,2.76,2.76,2.76,2.76,2.76,2.76,2.76,2.76,2.76,2.76,2.76,2.76,2.7345,2.6662,2.6467,2.5899,2.4709,2.447,2.4156,2.3625,2.3595,2.3595,2.3595,2.3595,2.3595,2.3595,2.3595,2.3595,2.3595,2.3595,2.353,2.3399,2.3399,2.3341,1.5056,1.6811,1.8705,2.0475,2.2022,2.3108,2.3108,2.3333,2.3634,2.3923,0.0,0.0,0.0,0.0,0.0,0.0,0.0,0.0,0.0,0.0,0.0,0.0,0.0,0.0,0.0,0.0,0.0,0.0,0.0,0.0,0.0,0.0,0.0,0.0,0.0,0.0,3.0299,3.0299,3.0543,3.1017,3.1346,3.1331,3.1017,3.1346,3.1511,3.1511,3.1511,3.1511,3.1511,3.1511,3.1511,3.1436,3.0748,3.0313,2.9939,2.8966,2.8397,2.8079,2.772,2.76,2.76,2.76,2.76,2.76,2.76,2.76,2.76,2.76,2.76,2.76,2.76,2.76,2.76,2.76,2.76,2.76,2.76,2.76,2.76,2.76,2.76,2.76,2.76,2.76,2.76,2.76,2.76,2.76,2.76,2.76,2.7465,2.7121,2.6806,2.6183,2.5158,2.5017,2.4578,2.3661,2.4074,2.4246,2.3991,2.4225,2.4116,2.3595,2.3595,2.3595,2.3595,2.3595,2.3595,2.3595,2.3595,2.3595,1.4281,1.6171,1.8263,2.0606,2.2,2.2832,2.3053,2.3108,2.3108,2.3108,0.0,0.0,0.0,0.0,0.0,0.0,0.0,0.0,0.0,0.0,0.0,0.0,0.0,0.0,0.0,0.0,0.0,0.0,0.0,0.0,0.0,0.0,0.0,0.0,0.0,2.9797,3.0494,3.0524,3.05,3.0507,3.0943,3.0868,3.0357,3.0913,3.1227,3.1331,3.1331,3.1391,3.1511,3.1511,3.1436,3.1256,3.0612,2.9968,2.9367,2.8667,2.8094,2.76,2.76,2.76,2.76,2.76,2.76,2.76,2.76,2.76,2.76,2.76,2.76,2.76,2.76,2.76,2.76,2.76,2.76,2.76,2.76,2.76,2.76,2.76,2.76,2.76,2.76,2.76,2.76,2.76,2.76,2.76,2.76,2.76,2.76,2.76,2.7204,2.6606,2.58,2.5736,2.5188,2.3946,2.4697,2.4992,2.4572,2.4953,2.4776,2.39,2.3879,2.3837,2.3745,2.3745,2.3702,2.3595,2.3595,2.3595,1.2523,1.5023,1.7913,2.054,2.132,2.174,0.0,0.0,2.3108,0.0,0.0,0.0,0.0,0.0,0.0,0.0,0.0,0.0,0.0,0.0,0.0,0.0,0.0,0.0,0.0,0.0,0.0,0.0,0.0,0.0,0.0,0.0,3.045,3.1161,3.1161,0.0,3.1351,3.1351,3.1066,3.0492,3.0058,2.9816,2.9726,2.9804,3.0133,3.0642,3.0642,3.0957,3.1511,3.1511,3.1152,3.0582,2.9953,2.931,2.8652,2.7989,2.7675,2.76,2.76,2.76,2.76,2.76,2.76,2.76,2.76,2.76,2.76,2.76,2.76,2.76,2.76,2.76,2.76,2.76,2.76,2.76,2.76,2.76,2.76,2.76,2.76,2.76,2.76,2.76,2.76,2.76,2.76,2.76,2.76,2.76,2.76,2.76,2.7991,2.772,2.6395,2.6749,2.6468,2.5068,2.5125,2.5182,2.5105,2.5163,2.5128,2.4989,2.4989,2.4772,2.4287,2.4287,2.4053,2.3595,2.3595,2.3595,1.1492,1.3999,1.6493,1.7972,1.9547,2.0972,2.1842,2.2129,2.2355,0.0,0.0,0.0,0.0,0.0,0.0,0.0,0.0,0.0,0.0,0.0,0.0,0.0,0.0,0.0,0.0,0.0,0.0,0.0,0.0,0.0,0.0,3.097,3.1117,3.1511,3.1511,0.0,3.1511,3.1122,3.0627,2.9983,2.9741,2.9412,2.9041,2.9442,2.9729,2.9983,2.9983,3.0357,3.0898,3.0582,3.0462,3.0402,2.9415,2.8861,2.8517,2.7854,2.76,2.76,2.76,2.76,2.76,2.76,2.76,2.76,2.76,2.76,2.76,2.76,2.76,2.76,2.76,2.76,2.77,2.8018,2.8091,2.8198,2.8543,2.8328,2.8091,2.8091,2.7835,2.771,2.8042,2.7835,2.771,2.8042,2.781,2.76,2.76,2.791,2.8091,2.8091,2.8638,2.8586,2.762,2.7665,2.7203,2.5897,2.5956,2.5926,2.5652,2.5908,2.6052,2.6052,2.5486,2.507,2.4835,2.4552,2.443,2.4491,2.4199,2.4053,1.0582,1.255,1.4321,1.5444,1.7489,1.9425,0.0,0.0,0.0,0.0,0.0,0.0,0.0,0.0,0.0,0.0,0.0,0.0,0.0,0.0,0.0,0.0,0.0,0.0,0.0,0.0,0.0,0.0,0.0,0.0,3.1511,3.1511,3.1511,3.1511,3.1511,3.1511,3.1511,3.0687,3.0043,2.9606,2.9442,2.8981,2.8368,2.9052,2.9262,2.9112,2.9277,2.9684,3.0238,2.9801,2.9759,2.9924,2.8966,2.8502,2.8278,2.7779,2.76,2.76,2.76,2.76,2.76,2.76,2.76,2.76,2.76,2.76,2.76,2.76,2.76,2.76,2.76,2.771,2.7944,2.8391,2.863,2.885,2.9293,2.9058,2.8732,2.8732,2.8367,2.8198,2.8638,2.8367,2.8149,2.8479,2.8116,2.7835,2.7835,2.8238,2.8559,2.8709,2.9271,2.9361,2.8661,2.8611,2.8056,2.6756,2.6864,2.6741,2.6191,2.6505,2.6691,2.6691,2.5946,2.5524,2.5392,2.4992,2.4934,2.5202,2.4776,2.4597,0.9616,1.0315,1.1307,1.4011,1.532,1.6444,0.0,0.0,0.0,0.0,0.0,0.0,0.0,0.0,0.0,0.0,0.0,0.0,0.0,0.0,0.0,0.0,0.0,0.0,0.0,0.0,0.0,0.0,0.0,0.0,3.1511,3.1511,3.1511,3.1511,3.1511,3.1511,3.1511,3.0268,2.9636,2.9592,2.8951,2.8293,2.7675,2.8338,2.8293,2.7735,2.8368,2.9026,2.9651,2.9621,2.9235,2.8697,2.8622,2.8203,2.7645,2.76,2.76,2.76,2.76,2.76,2.76,2.76,2.76,2.76,2.76,2.76,2.76,2.76,2.76,2.76,2.76,2.8018,2.8463,2.8487,2.8943,2.9361,2.9384,2.9384,2.9361,2.9361,2.9339,2.9316,2.9361,2.9339,2.9111,2.8583,2.8463,2.8439,2.8439,2.8463,2.8709,2.9293,2.9892,2.9955,2.9214,2.966,2.9359,2.7821,2.7738,2.7418,2.6674,2.6691,2.6691,2.6691,2.6657,2.6401,2.5959,2.5924,2.567,2.5202,2.5182,2.5163,0.7859,0.8791,0.985,1.1079,1.3133,1.5158,1.6227,0.0,0.0,0.0,0.0,0.0,0.0,0.0,0.0,0.0,0.0,0.0,0.0,0.0,0.0,0.0,0.0,0.0,0.0,0.0,0.0,0.0,0.0,0.0,3.1511,3.1511,3.1511,3.1511,3.1511,3.1107,3.0298,2.94,2.8727,2.8319,2.8502,2.8233,2.7615,2.8278,2.8218,2.76,2.7854,2.8349,2.8921,2.8498,2.8438,2.8562,2.8139,2.7809,2.76,2.76,2.76,2.76,2.76,2.76,2.76,2.76,2.76,2.76,2.76,2.76,2.76,2.76,2.7885,2.8189,2.8189,2.8614,2.918,2.9563,3.0123,3.0576,3.0576,2.9951,2.9518,2.9892,2.9651,2.9518,2.9913,2.9651,2.9451,2.9629,2.9316,2.9081,2.9081,2.9406,2.9739,2.9935,3.0518,3.0576,2.9836,2.9977,2.943,2.7908,2.7807,2.7469,2.6725,2.6691,2.6691,2.6691,2.6691,2.6624,2.6436,2.6156,2.605,2.6158,2.5854,2.5707,0.682,0.7616,0.8558,0.0,0.0,1.2861,1.3798,0.0,0.0,0.0,0.0,0.0,0.0,0.0,0.0,0.0,0.0,0.0,0.0,0.0,0.0,0.0,0.0,0.0,0.0,0.0,0.0,0.0,0.0,0.0,3.1511,3.1511,3.1406,3.1167,3.1152,3.0672,2.9621,2.8936,2.8368,2.7944,2.8382,2.8233,2.7615,2.8278,2.8218,2.76,2.76,2.7854,2.8218,2.7779,2.7869,2.8203,2.7779,2.76,2.7625,2.7835,2.776,2.7625,2.7835,2.791,2.791,2.791,2.8042,2.8174,2.7968,2.8027,2.8174,2.7968,2.8343,2.8803,2.8803,2.9248,2.9848,3.0456,3.0898,3.119,3.119,3.0559,3.0123,3.0518,3.0272,3.0145,3.0539,3.0272,3.0081,3.0272,2.9957,2.9695,2.9695,3.0059,3.0393,3.058,3.0975,3.1004,3.0514,3.048,2.982,2.8297,2.8432,2.801,2.6742,2.6945,2.6945,2.6691,2.6691,2.6691,2.6691,2.6384,2.6401,2.6691,2.6384,2.6156,0.0,0.0,0.0,0.0,0.0,0.0,0.0,0.0,0.0,0.0,0.0,0.0,0.0,0.0,0.0,0.0,0.0,0.0,0.0,0.0,0.0,0.0,0.0,0.0,0.0,0.0,0.0,0.0,0.0,3.1511,3.1511,3.1481,3.1167,3.0522,3.0462,3.0163,2.9592,2.8906,2.8562,2.8562,2.8562,2.8218,2.7615,2.8263,2.8229,2.76,2.76,2.76,2.76,2.76,2.76,2.76,2.7625,2.7625,2.7685,2.8295,2.8165,2.7735,2.8295,2.8511,2.8511,2.8511,2.8919,2.9293,2.8685,2.8943,2.9271,2.8685,2.895,2.9429,2.9451,2.9908,3.0477,3.1055,3.119,3.119,3.119,3.119,3.119,3.119,3.119,3.119,3.119,3.119,3.0995,3.0398,3.033,3.033,3.033,3.033,3.0539,3.1151,3.119,3.119,3.1157,3.119,3.0565,2.9094,2.9685,2.911,2.686,2.7452,2.7486,2.6742,2.6725,2.6708,2.6691,2.6691,2.6691,2.6691,2.6691,2.6453,0.6371,0.0,0.0,0.0,0.0,0.0,0.0,0.0,0.0,0.0,0.0,0.0,0.0,0.0,0.0,0.0,0.0,0.0,0.0,0.0,0.0,0.0,0.0,0.0,0.0,0.0,0.0,0.0,0.0,3.1511,3.1511,3.1032,3.0702,3.0507,2.9609,2.9041,2.8876,2.8214,2.7884,2.7884,2.7884,2.7779,2.76,2.7794,2.7779,2.76,2.76,2.76,2.76,2.76,2.76,2.7635,2.8091,2.8262,2.8319,2.8927,2.9042,2.8857,2.8606,2.8779,2.9065,2.8654,2.8919,2.9361,2.9203,2.9271,2.9361,2.9203,2.9585,3.0145,3.058,3.0838,3.0995,3.1151,3.119,3.119,3.119,3.119,3.119,3.119,3.119,3.119,3.119,3.119,3.1151,3.0975,3.0938,3.0938,3.0938,3.0938,3.1015,3.1171,3.119,3.097,3.0446,3.0886,3.0565,2.9094,2.9685,2.9583,2.8417,2.8552,2.8298,2.7503,2.7503,2.7232,2.6691,2.6691,2.6691,2.6691,2.6691,2.6641,0.6712,0.6777,0.0,0.0,0.0,0.0,0.0,0.9501,0.0,0.0,0.0,0.0,0.0,0.0,0.0,0.0,0.0,0.0,0.0,0.0,0.0,0.0,0.0,0.0,0.0,0.0,0.0,0.0,3.1077,3.1197,3.1496,3.0642,3.0118,3.0118,2.9131,2.8472,2.8173,2.7809,2.76,2.76,2.76,2.76,2.76,2.76,2.76,2.76,2.76,2.76,2.7625,2.7885,2.7984,2.8018,2.8367,2.8654,2.8966,2.9563,2.9607,2.9384,2.9293,2.9473,2.9717,2.9361,2.9651,3.0086,2.9848,2.9935,3.0102,2.9865,3.0208,3.0777,3.1112,3.119,3.119,3.119,3.119,3.119,3.119,3.119,3.119,3.119,3.119,3.119,3.119,3.119,3.119,3.119,3.119,3.119,3.119,3.119,3.119,3.119,3.119,3.1021,3.0598,3.0954,3.07,2.9516,3.0159,3.0091,2.9044,2.9314,2.9093,2.8332,2.7976,2.7435,2.6691,2.6691,2.6691,2.6691,2.6691,2.6691,0.7414,0.7161,0.7079,0.0,0.0,0.0,0.7662,0.8389,0.0,0.0,0.0,0.0,0.0,0.0,0.0,0.0,0.0,0.0,0.0,0.0,0.0,0.0,0.0,0.0,0.0,0.0,0.0,3.0447,3.0507,3.0746,3.1256,3.0133,2.9502,2.9502,2.8831,2.8188,2.76,2.76,2.76,2.76,2.76,2.76,2.76,2.76,2.76,2.76,2.76,2.765,2.7735,2.8271,2.8487,2.8511,2.8654,2.9035,2.9563,3.0187,3.0059,2.9673,3.0145,3.0335,3.0393,3.0314,3.0699,3.1095,3.0559,3.076,3.1075,3.0539,3.0797,3.119,3.119,3.119,3.119,3.119,3.119,3.119,3.119,3.119,3.119,3.119,3.119,3.119,3.119,3.119,3.119,3.119,3.119,3.119,3.119,3.119,3.119,3.119,3.119,3.119,3.119,3.119,3.092,3.026,3.0835,3.0618,2.9297,2.9871,2.9871,2.9145,2.8264,2.7435,2.6691,2.6691,2.6691,2.6691,2.6691,2.6691,0.7921,0.8128,0.8311,0.7786,0.0,0.0,0.0,0.7514,0.0,0.0,0.0,0.0,0.0,0.0,0.0,0.0,0.0,0.0,0.0,0.0,0.0,0.0,0.0,0.0,0.0,0.0,2.9265,3.0417,3.0507,3.0342,2.9983,2.922,2.8801,2.8801,2.8154,2.7735,2.76,2.76,2.76,2.76,2.76,2.76,2.76,2.76,2.76,2.76,2.76,2.7885,2.8319,2.8439,2.8487,2.8606,2.9563,3.0021,3.0187,3.0797,3.0938,3.0797,3.0435,3.0617,3.0938,3.0456,3.0699,3.1171,3.1055,3.1112,3.1171,3.1055,3.1112,3.119,3.119,3.119,3.119,3.119,3.119,3.119,3.119,3.119,3.119,3.119,3.119,3.119,3.119,3.119,3.119,3.119,3.119,3.119,3.119,3.119,3.119,3.119,3.119,3.119,3.119,3.119,3.114,3.0987,3.1123,3.1055,3.0768,3.0903,3.0632,2.9905,2.8517,2.7435,2.6691,2.6691,2.6691,2.6691,2.6691,2.6691,0.8901,0.9082,0.9266,0.8731,0.0,0.0,0.0,0.0,0.0,0.0,0.0,0.0,0.0,0.0,0.0,0.0,0.0,0.0,0.0,0.0,0.0,0.0,0.0,0.0,0.0,0.0,2.8487,2.9475,2.9549,2.9564,2.9606,2.8663,2.8248,2.8592,2.7959,2.76,2.76,2.76,2.76,2.76,2.76,2.76,2.76,2.76,2.776,2.8042,2.8042,2.8391,2.8966,2.9271,2.9406,2.9451,3.0043,3.0477,3.0797,3.1075,3.119,3.1151,3.0858,3.0955,3.1151,3.0858,3.0938,3.119,3.119,3.119,3.119,3.119,3.119,3.119,3.119,3.119,3.119,3.119,3.119,3.119,3.119,3.119,3.119,3.119,3.119,3.119,3.119,3.119,3.119,3.119,3.119,3.119,3.119,3.119,3.119,3.119,3.119,3.119,3.119,3.119,3.119,3.119,3.119,3.119,3.119,3.119,3.0666,2.9567,2.8988,2.8049,2.6691,2.6691,2.6691,2.6691,2.6691,2.6691,0.0,0.0,0.0,0.0,0.0,0.8906,0.0,0.0,0.0,0.7662,0.0,0.0,0.0,0.0,0.0,0.0,0.0,0.0,0.0,0.0,0.0,0.0,0.0,0.0,0.0,0.0,2.769,2.8353,2.8293,2.8502,2.9187,2.8184,2.7854,2.8382,2.7884,2.76,2.76,2.76,2.76,2.76,2.76,2.766,2.776,2.776,2.8116,2.8662,2.8662,2.9012,2.9607,3.0102,3.0372,3.0477,3.0477,3.076,3.119,3.119,3.119,3.119,3.119,3.119,3.119,3.119,3.119,3.119,3.119,3.119,3.119,3.119,3.119,3.119,3.119,3.119,3.119,3.119,3.119,3.119,3.119,3.119,3.119,3.119,3.119,3.119,3.119,3.119,3.119,3.119,3.119,3.119,3.119,3.119,3.119,3.119,3.119,3.119,3.119,3.119,3.119,3.119,3.1271,3.1329,3.1329,3.1408,3.0748,2.9262,2.9556,2.8794,2.6939,2.6939,2.6841,2.6691,2.6691,2.6691,0.0,0.0,0.0,0.0,1.0294,0.0,0.0,0.0,0.7954,0.7247,0.0,0.0,0.0,0.0,0.0,0.0,0.0,0.0,0.0,0.0,0.0,0.0,0.0,0.0,0.0,0.0,0.0,2.766,2.7165,2.7136,2.7779,2.7675,2.763,2.7705,2.7645,2.76,2.76,2.76,2.76,2.76,2.76,2.7885,2.8407,2.8407,2.8732,2.9293,2.9293,2.9651,3.0208,3.0272,3.0617,3.1112,3.1112,3.1151,3.119,3.119,3.119,3.119,3.119,3.119,3.119,3.119,3.119,3.119,3.119,3.119,3.119,3.119,3.119,3.119,3.119,3.119,3.119,3.119,3.119,3.119,3.119,3.119,3.119,3.119,3.119,3.119,3.119,3.119,3.119,3.119,3.119,3.119,3.119,3.119,3.119,3.119,3.119,3.119,3.119,3.119,3.119,3.119,3.1528,3.1734,3.1734,3.2127,3.1628,3.0094,3.0106,2.9347,2.7751,2.7751,2.7411,2.6691,2.6691,2.6691,0.0,0.0,0.0,0.0,0.0,0.0,0.0,0.0,0.8377,0.0,0.0,0.0,0.0,0.0,0.0,0.0,0.0,0.0,0.0,0.0,0.0,0.0,0.0,0.0,0.0,0.0,0.0,0.0,0.0,2.6303,2.6986,2.739,2.76,2.76,2.76,2.76,2.76,2.76,2.76,2.76,2.76,2.7934,2.8487,2.8487,2.9035,2.9913,2.9913,3.0251,3.0818,3.0818,3.0975,3.119,3.119,3.119,3.119,3.119,3.119,3.119,3.119,3.119,3.119,3.119,3.119,3.119,3.119,3.119,3.119,3.119,3.119,3.119,3.119,3.119,3.119,3.119,3.119,3.119,3.119,3.119,3.119,3.119,3.119,3.119,3.119,3.119,3.119,3.119,3.119,3.119,3.119,3.119,3.119,3.119,3.119,3.119,3.119,3.119,3.131,3.1528,3.195,3.2213,3.2213,3.2665,3.2275,3.092,3.1166,3.0645,2.9302,2.8826,2.842,2.8084,2.7618,2.7272,1.2254,0.0,0.0,0.0,0.0,0.0,0.0,0.0,0.0,0.0,0.0,0.0,0.0,0.0,0.0,0.0,0.0,0.0,0.0,0.0,0.0,0.0,0.0,0.0,0.0,0.0,0.0,0.0,0.0,0.0,2.6527,2.7061,2.7405,2.7585,2.76,2.76,2.76,2.76,2.7685,2.786,2.786,2.8247,2.8989,2.8989,2.9563,3.0539,3.0539,3.0797,3.119,3.119,3.119,3.119,3.119,3.119,3.119,3.119,3.119,3.119,3.119,3.119,3.119,3.119,3.119,3.119,3.119,3.119,3.119,3.119,3.119,3.119,3.119,3.119,3.119,3.119,3.119,3.119,3.119,3.119,3.119,3.119,3.119,3.119,3.119,3.119,3.119,3.119,3.119,3.119,3.119,3.119,3.119,3.119,3.131,3.137,3.137,3.137,3.1545,3.1968,3.2416,3.2745,3.2856,3.3181,3.2864,3.1754,3.2068,3.1703,3.0586,3.0012,2.9725,2.9707,2.8468,2.7736,0.0,0.0,0.0,1.1904,0.0,0.0,0.0,0.0,1.0272,0.0,0.0,0.0,0.0,0.0,0.0,0.0,0.0,0.0,0.0,0.0,0.0,0.0,0.0,0.0,0.0,0.0,0.0,0.0,0.0,0.0,2.6452,2.6617,2.6941,2.757,2.76,2.76,2.76,2.76,2.7894,2.8463,2.8463,2.9088,3.0251,3.0251,3.058,3.1171,3.1171,3.1171,3.119,3.119,3.119,3.119,3.119,3.119,3.119,3.119,3.119,3.119,3.119,3.119,3.119,3.119,3.119,3.119,3.119,3.119,3.119,3.119,3.119,3.119,3.119,3.119,3.119,3.119,3.119,3.119,3.119,3.119,3.119,3.119,3.119,3.119,3.119,3.119,3.119,3.119,3.119,3.119,3.119,3.119,3.119,3.119,3.1564,3.1789,3.1789,3.1789,3.1969,3.2451,3.2921,3.3346,3.3734,3.3762,3.3395,3.2575,3.2588,3.2184,3.1359,3.1341,3.1335,3.1273,2.8972,2.7897,0.0,0.0,1.4043,1.2778,0.0,0.0,0.0,0.0,0.0,0.0,0.0,0.0,0.0,0.0,0.0,0.0,0.0,0.0,0.0,0.0,0.0,0.0,0.0,0.0,0.0,0.0,0.0,0.0,0.0,0.0,0.0,2.5901,2.6692,2.6941,2.736,2.76,2.76,2.7993,2.831,2.8511,2.8896,2.9518,3.0293,3.0293,3.0638,3.119,3.119,3.119,3.119,3.119,3.119,3.119,3.119,3.119,3.119,3.119,3.119,3.119,3.119,3.119,3.119,3.119,3.119,3.119,3.119,3.119,3.119,3.119,3.119,3.119,3.119,3.119,3.119,3.119,3.119,3.119,3.119,3.119,3.1271,3.1564,3.1603,3.1603,3.1603,3.1603,3.1507,3.1249,3.119,3.119,3.119,3.119,3.131,3.1565,3.1733,3.1933,3.2248,3.2549,3.2793,3.2952,3.3361,3.3666,3.3788,3.3807,3.3678,3.3403,3.3385,3.3256,3.2981,3.2449,3.2192,3.2161,3.0839,2.9799,1.4007,1.4336,0.0,0.0,1.3023,0.0,1.1619,0.0,0.0,0.0,0.0,0.0,0.0,0.0,0.0,0.0,0.0,0.0,0.0,0.0,0.0,0.0,0.0,0.0,0.0,0.0,1.7291,1.9562,0.0,0.0,0.0,0.0,2.6348,2.6572,2.7255,2.76,2.76,2.8213,2.8606,2.8826,2.9429,3.0038,3.0617,3.0617,3.0838,3.119,3.119,3.119,3.119,3.119,3.119,3.119,3.119,3.119,3.119,3.119,3.119,3.119,3.119,3.119,3.119,3.119,3.119,3.119,3.119,3.119,3.119,3.119,3.119,3.119,3.119,3.119,3.119,3.119,3.119,3.1249,3.1372,3.1411,3.1545,3.1968,3.2039,3.2039,3.2039,3.1897,3.166,3.1252,3.1312,3.1411,3.1411,3.1562,3.1769,3.2021,3.2196,3.2416,3.2713,3.3151,3.3346,3.3214,3.3578,3.3807,3.3807,3.3807,3.3807,3.3807,3.3807,3.3807,3.3807,3.3293,3.3036,3.3018,3.2192,3.1265]}]]